<?xml version="1.0" encoding="UTF-8"?>
<gpx version="1.1" creator="https://www.www-youtrack-es.amenigma.com" xsi:schemaLocation="http://www.topografix.com/GPX/1/1 http://www.topografix.com/GPX/1/1/gpx.xsd http://www.garmin.com/xmlschemas/GpxExtensions/v3 http://www.garmin.com/xmlschemas/GpxExtensionsv3.xsd http://www.garmin.com/xmlschemas/TrackPointExtension/v1 http://www.garmin.com/xmlschemas/TrackPointExtensionv1.xsd" xmlns:gpxtpx="http://www.garmin.com/xmlschemas/TrackPointExtension/v1" xmlns:gpxx="http://www.garmin.com/xmlschemas/GpxExtensions/v3" xmlns:xsi="http://www.w3.org/2001/XMLSchema-instance">
  <metadata>
    <link href="https://www.www-youtrack-es.amenigma.com">
      <text>YouTrack.es</text>
    </link>
    <time>2026-08-31T06:14:18Z</time>
  </metadata>
  <trk>
    <src>https://www.www-youtrack-es.amenigma.com</src>
    <link href="https://www.www-youtrack-es.amenigma.com/ruta/11353-volta-als-ports">
      <text>YouTrack.es</text>
    </link>
    <trkseg>
      <trkpt lat="40.846381" lon="0.354068">
        <ele>487</ele>
        <time>2018-05-13T08:05:00.754Z</time>
      </trkpt>
      <trkpt lat="40.846474" lon="0.354043">
        <ele>490.544</ele>
        <time>2018-05-13T08:05:07.754Z</time>
      </trkpt>
      <trkpt lat="40.846564" lon="0.354101">
        <ele>492</ele>
        <time>2018-05-13T08:05:13.789Z</time>
      </trkpt>
      <trkpt lat="40.846663" lon="0.354176">
        <ele>495.505348571429</ele>
        <time>2018-05-13T08:05:26.764Z</time>
      </trkpt>
      <trkpt lat="40.846753" lon="0.354207">
        <ele>496</ele>
        <time>2018-05-13T08:05:32.754Z</time>
      </trkpt>
      <trkpt lat="40.846847" lon="0.354266">
        <ele>496</ele>
        <time>2018-05-13T08:05:39.754Z</time>
      </trkpt>
      <trkpt lat="40.846919" lon="0.354179">
        <ele>496</ele>
        <time>2018-05-13T08:05:56.755Z</time>
      </trkpt>
      <trkpt lat="40.846889" lon="0.354061">
        <ele>498.5539968</ele>
        <time>2018-05-13T08:06:03.764Z</time>
      </trkpt>
      <trkpt lat="40.846965" lon="0.353986">
        <ele>501</ele>
        <time>2018-05-13T08:06:12.764Z</time>
      </trkpt>
      <trkpt lat="40.847032" lon="0.353891">
        <ele>504</ele>
        <time>2018-05-13T08:06:19.764Z</time>
      </trkpt>
      <trkpt lat="40.847067" lon="0.353772">
        <ele>503</ele>
        <time>2018-05-13T08:06:29.750Z</time>
      </trkpt>
      <trkpt lat="40.847082" lon="0.353653">
        <ele>505</ele>
        <time>2018-05-13T08:06:38.764Z</time>
      </trkpt>
      <trkpt lat="40.847125" lon="0.353541">
        <ele>507</ele>
        <time>2018-05-13T08:06:47.764Z</time>
      </trkpt>
      <trkpt lat="40.847126" lon="0.353421">
        <ele>506</ele>
        <time>2018-05-13T08:06:55.764Z</time>
      </trkpt>
      <trkpt lat="40.847061" lon="0.353334">
        <ele>511</ele>
        <time>2018-05-13T08:07:11.764Z</time>
      </trkpt>
      <trkpt lat="40.846969" lon="0.353331">
        <ele>514.428345377397</ele>
        <time>2018-05-13T08:07:21.764Z</time>
      </trkpt>
      <trkpt lat="40.846888" lon="0.353265">
        <ele>520</ele>
        <time>2018-05-13T08:07:28.763Z</time>
      </trkpt>
      <trkpt lat="40.846864" lon="0.353136">
        <ele>523.855118475292</ele>
        <time>2018-05-13T08:07:35.753Z</time>
      </trkpt>
      <trkpt lat="40.846862" lon="0.353011">
        <ele>522</ele>
        <time>2018-05-13T08:07:45.754Z</time>
      </trkpt>
      <trkpt lat="40.846855" lon="0.352889">
        <ele>523</ele>
        <time>2018-05-13T08:07:50.764Z</time>
      </trkpt>
      <trkpt lat="40.846811" lon="0.352781">
        <ele>524</ele>
        <time>2018-05-13T08:07:55.753Z</time>
      </trkpt>
      <trkpt lat="40.846814" lon="0.352661">
        <ele>524.481818181818</ele>
        <time>2018-05-13T08:08:05.754Z</time>
      </trkpt>
      <trkpt lat="40.846822" lon="0.352532">
        <ele>526</ele>
        <time>2018-05-13T08:08:12.764Z</time>
      </trkpt>
      <trkpt lat="40.846796" lon="0.352418">
        <ele>530</ele>
        <time>2018-05-13T08:08:20.751Z</time>
      </trkpt>
      <trkpt lat="40.84678" lon="0.35229">
        <ele>533.475856285311</ele>
        <time>2018-05-13T08:08:29.754Z</time>
      </trkpt>
      <trkpt lat="40.846737" lon="0.352185">
        <ele>534</ele>
        <time>2018-05-13T08:08:37.765Z</time>
      </trkpt>
      <trkpt lat="40.846762" lon="0.352069">
        <ele>537</ele>
        <time>2018-05-13T08:08:49.764Z</time>
      </trkpt>
      <trkpt lat="40.846788" lon="0.351931">
        <ele>539</ele>
        <time>2018-05-13T08:08:57.754Z</time>
      </trkpt>
      <trkpt lat="40.846844" lon="0.351822">
        <ele>538.554454432694</ele>
        <time>2018-05-13T08:09:06.764Z</time>
      </trkpt>
      <trkpt lat="40.846836" lon="0.351701">
        <ele>539</ele>
        <time>2018-05-13T08:09:13.764Z</time>
      </trkpt>
      <trkpt lat="40.846865" lon="0.351587">
        <ele>542.544</ele>
        <time>2018-05-13T08:09:25.754Z</time>
      </trkpt>
      <trkpt lat="40.846894" lon="0.35146">
        <ele>543.428345377397</ele>
        <time>2018-05-13T08:09:32.754Z</time>
      </trkpt>
      <trkpt lat="40.846895" lon="0.351341">
        <ele>547.533329986949</ele>
        <time>2018-05-13T08:09:44.754Z</time>
      </trkpt>
      <trkpt lat="40.846881" lon="0.351205">
        <ele>549</ele>
        <time>2018-05-13T08:09:52.754Z</time>
      </trkpt>
      <trkpt lat="40.846909" lon="0.351075">
        <ele>550.5430016</ele>
        <time>2018-05-13T08:09:59.753Z</time>
      </trkpt>
      <trkpt lat="40.846958" lon="0.350952">
        <ele>552.5100032</ele>
        <time>2018-05-13T08:10:10.720Z</time>
      </trkpt>
      <trkpt lat="40.847006" lon="0.350849">
        <ele>554</ele>
        <time>2018-05-13T08:10:16.765Z</time>
      </trkpt>
      <trkpt lat="40.847068" lon="0.350727">
        <ele>555.509895489007</ele>
        <time>2018-05-13T08:10:24.764Z</time>
      </trkpt>
      <trkpt lat="40.847119" lon="0.350618">
        <ele>558.088</ele>
        <time>2018-05-13T08:10:29.754Z</time>
      </trkpt>
      <trkpt lat="40.847157" lon="0.350496">
        <ele>559.512653013183</ele>
        <time>2018-05-13T08:10:35.764Z</time>
      </trkpt>
      <trkpt lat="40.847197" lon="0.35038">
        <ele>564.544</ele>
        <time>2018-05-13T08:10:42.754Z</time>
      </trkpt>
      <trkpt lat="40.847175" lon="0.350243">
        <ele>566</ele>
        <time>2018-05-13T08:10:47.783Z</time>
      </trkpt>
      <trkpt lat="40.847214" lon="0.350121">
        <ele>569.517139652818</ele>
        <time>2018-05-13T08:10:54.753Z</time>
      </trkpt>
      <trkpt lat="40.847218" lon="0.349996">
        <ele>569</ele>
        <time>2018-05-13T08:10:59.764Z</time>
      </trkpt>
      <trkpt lat="40.847221" lon="0.349864">
        <ele>563.610965965878</ele>
        <time>2018-05-13T08:11:05.764Z</time>
      </trkpt>
      <trkpt lat="40.84722" lon="0.349736">
        <ele>564</ele>
        <time>2018-05-13T08:11:10.754Z</time>
      </trkpt>
      <trkpt lat="40.847221" lon="0.349603">
        <ele>564.777142857143</ele>
        <time>2018-05-13T08:11:17.754Z</time>
      </trkpt>
      <trkpt lat="40.847216" lon="0.349453">
        <ele>564</ele>
        <time>2018-05-13T08:11:23.764Z</time>
      </trkpt>
      <trkpt lat="40.847219" lon="0.349334">
        <ele>565.533672056634</ele>
        <time>2018-05-13T08:11:29.753Z</time>
      </trkpt>
      <trkpt lat="40.847232" lon="0.349203">
        <ele>566</ele>
        <time>2018-05-13T08:11:34.764Z</time>
      </trkpt>
      <trkpt lat="40.847243" lon="0.349057">
        <ele>569</ele>
        <time>2018-05-13T08:11:40.764Z</time>
      </trkpt>
      <trkpt lat="40.847287" lon="0.348927">
        <ele>571.436216853627</ele>
        <time>2018-05-13T08:11:45.764Z</time>
      </trkpt>
      <trkpt lat="40.847338" lon="0.348815">
        <ele>573</ele>
        <time>2018-05-13T08:11:51.764Z</time>
      </trkpt>
      <trkpt lat="40.847401" lon="0.348704">
        <ele>572</ele>
        <time>2018-05-13T08:11:57.764Z</time>
      </trkpt>
      <trkpt lat="40.847443" lon="0.348574">
        <ele>578.371847338153</ele>
        <time>2018-05-13T08:12:02.764Z</time>
      </trkpt>
      <trkpt lat="40.847471" lon="0.348453">
        <ele>582.389919111953</ele>
        <time>2018-05-13T08:12:08.764Z</time>
      </trkpt>
      <trkpt lat="40.847459" lon="0.348333">
        <ele>587</ele>
        <time>2018-05-13T08:12:16.764Z</time>
      </trkpt>
      <trkpt lat="40.847422" lon="0.348215">
        <ele>586</ele>
        <time>2018-05-13T08:12:23.764Z</time>
      </trkpt>
      <trkpt lat="40.847528" lon="0.348116">
        <ele>586.1079936</ele>
        <time>2018-05-13T08:12:29.764Z</time>
      </trkpt>
      <trkpt lat="40.847617" lon="0.348025">
        <ele>588.517752470273</ele>
        <time>2018-05-13T08:12:37.764Z</time>
      </trkpt>
      <trkpt lat="40.847647" lon="0.347862">
        <ele>590</ele>
        <time>2018-05-13T08:12:52.764Z</time>
      </trkpt>
      <trkpt lat="40.847698" lon="0.347759">
        <ele>599.045294820861</ele>
        <time>2018-05-13T08:13:14.764Z</time>
      </trkpt>
      <trkpt lat="40.847658" lon="0.34765">
        <ele>598.903042292127</ele>
        <time>2018-05-13T08:13:22.763Z</time>
      </trkpt>
      <trkpt lat="40.847658" lon="0.347527">
        <ele>596.467310769231</ele>
        <time>2018-05-13T08:13:31.764Z</time>
      </trkpt>
      <trkpt lat="40.847586" lon="0.347429">
        <ele>598</ele>
        <time>2018-05-13T08:13:41.764Z</time>
      </trkpt>
      <trkpt lat="40.847501" lon="0.347357">
        <ele>597</ele>
        <time>2018-05-13T08:13:46.764Z</time>
      </trkpt>
      <trkpt lat="40.847475" lon="0.347221">
        <ele>601</ele>
        <time>2018-05-13T08:13:55.764Z</time>
      </trkpt>
      <trkpt lat="40.847466" lon="0.347079">
        <ele>599</ele>
        <time>2018-05-13T08:14:01.764Z</time>
      </trkpt>
      <trkpt lat="40.847487" lon="0.346961">
        <ele>600</ele>
        <time>2018-05-13T08:14:08.753Z</time>
      </trkpt>
      <trkpt lat="40.847538" lon="0.346855">
        <ele>604.524748405886</ele>
        <time>2018-05-13T08:14:13.764Z</time>
      </trkpt>
      <trkpt lat="40.84762" lon="0.346769">
        <ele>608</ele>
        <time>2018-05-13T08:14:19.764Z</time>
      </trkpt>
      <trkpt lat="40.847705" lon="0.346681">
        <ele>610.504451587211</ele>
        <time>2018-05-13T08:14:22.764Z</time>
      </trkpt>
      <trkpt lat="40.847782" lon="0.346594">
        <ele>613</ele>
        <time>2018-05-13T08:14:31.764Z</time>
      </trkpt>
      <trkpt lat="40.847847" lon="0.346499">
        <ele>614.5539968</ele>
        <time>2018-05-13T08:14:39.764Z</time>
      </trkpt>
      <trkpt lat="40.847894" lon="0.346393">
        <ele>616</ele>
        <time>2018-05-13T08:14:47.764Z</time>
      </trkpt>
      <trkpt lat="40.847823" lon="0.346314">
        <ele>612</ele>
        <time>2018-05-13T08:14:57.764Z</time>
      </trkpt>
      <trkpt lat="40.847763" lon="0.346209">
        <ele>615.493343952668</ele>
        <time>2018-05-13T08:15:04.764Z</time>
      </trkpt>
      <trkpt lat="40.847765" lon="0.346081">
        <ele>618.535426666667</ele>
        <time>2018-05-13T08:15:10.764Z</time>
      </trkpt>
      <trkpt lat="40.847762" lon="0.345932">
        <ele>625</ele>
        <time>2018-05-13T08:15:18.764Z</time>
      </trkpt>
      <trkpt lat="40.847812" lon="0.34582">
        <ele>624</ele>
        <time>2018-05-13T08:15:27.764Z</time>
      </trkpt>
      <trkpt lat="40.847865" lon="0.345719">
        <ele>625</ele>
        <time>2018-05-13T08:15:35.764Z</time>
      </trkpt>
      <trkpt lat="40.847944" lon="0.345641">
        <ele>626.462372950092</ele>
        <time>2018-05-13T08:15:40.753Z</time>
      </trkpt>
      <trkpt lat="40.848017" lon="0.345557">
        <ele>627.525525280172</ele>
        <time>2018-05-13T08:15:45.764Z</time>
      </trkpt>
      <trkpt lat="40.848056" lon="0.345442">
        <ele>634</ele>
        <time>2018-05-13T08:15:55.764Z</time>
      </trkpt>
      <trkpt lat="40.848127" lon="0.345347">
        <ele>641.456</ele>
        <time>2018-05-13T08:16:07.754Z</time>
      </trkpt>
      <trkpt lat="40.84817" lon="0.345232">
        <ele>639.580305454546</ele>
        <time>2018-05-13T08:16:13.764Z</time>
      </trkpt>
      <trkpt lat="40.848176" lon="0.345109">
        <ele>639</ele>
        <time>2018-05-13T08:16:20.764Z</time>
      </trkpt>
      <trkpt lat="40.848221" lon="0.344971">
        <ele>637</ele>
        <time>2018-05-13T08:16:28.753Z</time>
      </trkpt>
      <trkpt lat="40.848281" lon="0.344875">
        <ele>635.5539968</ele>
        <time>2018-05-13T08:16:33.764Z</time>
      </trkpt>
      <trkpt lat="40.848335" lon="0.344776">
        <ele>638.5540096</ele>
        <time>2018-05-13T08:16:38.764Z</time>
      </trkpt>
      <trkpt lat="40.848404" lon="0.344695">
        <ele>641.390136833186</ele>
        <time>2018-05-13T08:16:43.764Z</time>
      </trkpt>
      <trkpt lat="40.848486" lon="0.344597">
        <ele>641</ele>
        <time>2018-05-13T08:16:49.764Z</time>
      </trkpt>
      <trkpt lat="40.848547" lon="0.344493">
        <ele>641</ele>
        <time>2018-05-13T08:16:56.764Z</time>
      </trkpt>
      <trkpt lat="40.848622" lon="0.344417">
        <ele>641</ele>
        <time>2018-05-13T08:17:01.755Z</time>
      </trkpt>
      <trkpt lat="40.848716" lon="0.34433">
        <ele>645.30314</ele>
        <time>2018-05-13T08:17:06.764Z</time>
      </trkpt>
      <trkpt lat="40.848768" lon="0.344226">
        <ele>648.40736</ele>
        <time>2018-05-13T08:17:12.764Z</time>
      </trkpt>
      <trkpt lat="40.848784" lon="0.344102">
        <ele>648.525538897286</ele>
        <time>2018-05-13T08:17:20.764Z</time>
      </trkpt>
      <trkpt lat="40.848708" lon="0.344022">
        <ele>650</ele>
        <time>2018-05-13T08:17:32.763Z</time>
      </trkpt>
      <trkpt lat="40.848716" lon="0.343888">
        <ele>659.971941210155</ele>
        <time>2018-05-13T08:17:42.764Z</time>
      </trkpt>
      <trkpt lat="40.848658" lon="0.343788">
        <ele>664</ele>
        <time>2018-05-13T08:17:49.764Z</time>
      </trkpt>
      <trkpt lat="40.848613" lon="0.343663">
        <ele>669</ele>
        <time>2018-05-13T08:17:58.764Z</time>
      </trkpt>
      <trkpt lat="40.84856" lon="0.343539">
        <ele>665</ele>
        <time>2018-05-13T08:18:04.764Z</time>
      </trkpt>
      <trkpt lat="40.848662" lon="0.343466">
        <ele>667</ele>
        <time>2018-05-13T08:18:12.764Z</time>
      </trkpt>
      <trkpt lat="40.848772" lon="0.34339">
        <ele>668</ele>
        <time>2018-05-13T08:18:17.764Z</time>
      </trkpt>
      <trkpt lat="40.848864" lon="0.343382">
        <ele>670.530518203131</ele>
        <time>2018-05-13T08:18:25.764Z</time>
      </trkpt>
      <trkpt lat="40.84895" lon="0.343326">
        <ele>669.576195942583</ele>
        <time>2018-05-13T08:18:30.754Z</time>
      </trkpt>
      <trkpt lat="40.849015" lon="0.343216">
        <ele>665.456856741291</ele>
        <time>2018-05-13T08:18:36.764Z</time>
      </trkpt>
      <trkpt lat="40.848998" lon="0.343077">
        <ele>663.372626955362</ele>
        <time>2018-05-13T08:18:43.764Z</time>
      </trkpt>
      <trkpt lat="40.849003" lon="0.342945">
        <ele>663.519316363636</ele>
        <time>2018-05-13T08:18:49.753Z</time>
      </trkpt>
      <trkpt lat="40.849027" lon="0.342826">
        <ele>664</ele>
        <time>2018-05-13T08:18:52.764Z</time>
      </trkpt>
      <trkpt lat="40.849013" lon="0.342685">
        <ele>667.564569286125</ele>
        <time>2018-05-13T08:19:02.763Z</time>
      </trkpt>
      <trkpt lat="40.848967" lon="0.342565">
        <ele>672.498885389251</ele>
        <time>2018-05-13T08:19:10.764Z</time>
      </trkpt>
      <trkpt lat="40.848959" lon="0.342444">
        <ele>675.498871007177</ele>
        <time>2018-05-13T08:19:17.764Z</time>
      </trkpt>
      <trkpt lat="40.848928" lon="0.342327">
        <ele>677.506821818182</ele>
        <time>2018-05-13T08:19:27.764Z</time>
      </trkpt>
      <trkpt lat="40.848984" lon="0.342231">
        <ele>676.540201369736</ele>
        <time>2018-05-13T08:19:35.764Z</time>
      </trkpt>
      <trkpt lat="40.849034" lon="0.3421">
        <ele>677</ele>
        <time>2018-05-13T08:19:44.764Z</time>
      </trkpt>
      <trkpt lat="40.849086" lon="0.342002">
        <ele>680.463542450983</ele>
        <time>2018-05-13T08:19:52.764Z</time>
      </trkpt>
      <trkpt lat="40.849153" lon="0.341861">
        <ele>681.331777249044</ele>
        <time>2018-05-13T08:19:57.764Z</time>
      </trkpt>
      <trkpt lat="40.849132" lon="0.34174">
        <ele>677.484822857143</ele>
        <time>2018-05-13T08:20:02.753Z</time>
      </trkpt>
      <trkpt lat="40.849059" lon="0.341666">
        <ele>674.504437364888</ele>
        <time>2018-05-13T08:20:09.764Z</time>
      </trkpt>
      <trkpt lat="40.849149" lon="0.341559">
        <ele>679.374322162162</ele>
        <time>2018-05-13T08:20:19.764Z</time>
      </trkpt>
      <trkpt lat="40.849054" lon="0.341554">
        <ele>683</ele>
        <time>2018-05-13T08:20:26.764Z</time>
      </trkpt>
      <trkpt lat="40.848989" lon="0.341639">
        <ele>693.522647410431</ele>
        <time>2018-05-13T08:20:40.764Z</time>
      </trkpt>
      <trkpt lat="40.848895" lon="0.34163">
        <ele>693.478306546074</ele>
        <time>2018-05-13T08:20:47.763Z</time>
      </trkpt>
      <trkpt lat="40.848821" lon="0.341524">
        <ele>690</ele>
        <time>2018-05-13T08:20:57.764Z</time>
      </trkpt>
      <trkpt lat="40.848871" lon="0.341388">
        <ele>691.839389090909</ele>
        <time>2018-05-13T08:21:03.764Z</time>
      </trkpt>
      <trkpt lat="40.848952" lon="0.341321">
        <ele>696.1080192</ele>
        <time>2018-05-13T08:21:06.764Z</time>
      </trkpt>
      <trkpt lat="40.84903" lon="0.34124">
        <ele>699</ele>
        <time>2018-05-13T08:21:13.764Z</time>
      </trkpt>
      <trkpt lat="40.848956" lon="0.341143">
        <ele>701</ele>
        <time>2018-05-13T08:21:37.754Z</time>
      </trkpt>
      <trkpt lat="40.848882" lon="0.34123">
        <ele>703.513828179256</ele>
        <time>2018-05-13T08:21:57.753Z</time>
      </trkpt>
      <trkpt lat="40.848802" lon="0.341169">
        <ele>704</ele>
        <time>2018-05-13T08:22:14.865Z</time>
      </trkpt>
      <trkpt lat="40.848688" lon="0.341178">
        <ele>707.512971851852</ele>
        <time>2018-05-13T08:22:26.764Z</time>
      </trkpt>
      <trkpt lat="40.848628" lon="0.341085">
        <ele>711.532701538462</ele>
        <time>2018-05-13T08:22:40.764Z</time>
      </trkpt>
      <trkpt lat="40.848578" lon="0.340981">
        <ele>713.390647733761</ele>
        <time>2018-05-13T08:22:47.753Z</time>
      </trkpt>
      <trkpt lat="40.848486" lon="0.34095">
        <ele>721.399995586256</ele>
        <time>2018-05-13T08:23:03.764Z</time>
      </trkpt>
      <trkpt lat="40.848436" lon="0.34085">
        <ele>723.43281</ele>
        <time>2018-05-13T08:23:13.764Z</time>
      </trkpt>
      <trkpt lat="40.848471" lon="0.340725">
        <ele>724.481402652299</ele>
        <time>2018-05-13T08:23:24.764Z</time>
      </trkpt>
      <trkpt lat="40.848426" lon="0.340619">
        <ele>728</ele>
        <time>2018-05-13T08:23:32.763Z</time>
      </trkpt>
      <trkpt lat="40.848371" lon="0.340524">
        <ele>726.451515308233</ele>
        <time>2018-05-13T08:23:37.763Z</time>
      </trkpt>
      <trkpt lat="40.848342" lon="0.340408">
        <ele>729.267543958142</ele>
        <time>2018-05-13T08:23:49.065Z</time>
      </trkpt>
      <trkpt lat="40.848324" lon="0.340261">
        <ele>731.419694545454</ele>
        <time>2018-05-13T08:23:57.764Z</time>
      </trkpt>
      <trkpt lat="40.848349" lon="0.340138">
        <ele>733.610426666667</ele>
        <time>2018-05-13T08:24:05.764Z</time>
      </trkpt>
      <trkpt lat="40.848323" lon="0.340275">
        <ele>733</ele>
        <time>2018-05-13T08:24:14.751Z</time>
      </trkpt>
      <trkpt lat="40.848275" lon="0.340376">
        <ele>736</ele>
        <time>2018-05-13T08:24:19.764Z</time>
      </trkpt>
      <trkpt lat="40.848201" lon="0.340279">
        <ele>741.5539968</ele>
        <time>2018-05-13T08:24:37.764Z</time>
      </trkpt>
      <trkpt lat="40.848146" lon="0.340185">
        <ele>743</ele>
        <time>2018-05-13T08:24:44.764Z</time>
      </trkpt>
      <trkpt lat="40.84809" lon="0.34004">
        <ele>744</ele>
        <time>2018-05-13T08:24:52.764Z</time>
      </trkpt>
      <trkpt lat="40.847997" lon="0.34">
        <ele>749</ele>
        <time>2018-05-13T08:25:02.764Z</time>
      </trkpt>
      <trkpt lat="40.847909" lon="0.340035">
        <ele>750.8919808</ele>
        <time>2018-05-13T08:25:10.764Z</time>
      </trkpt>
      <trkpt lat="40.847794" lon="0.339957">
        <ele>748.513483194546</ele>
        <time>2018-05-13T08:25:16.753Z</time>
      </trkpt>
      <trkpt lat="40.847777" lon="0.339825">
        <ele>753.416549573653</ele>
        <time>2018-05-13T08:25:30.764Z</time>
      </trkpt>
      <trkpt lat="40.847711" lon="0.339743">
        <ele>751.472815618437</ele>
        <time>2018-05-13T08:25:35.753Z</time>
      </trkpt>
      <trkpt lat="40.847661" lon="0.339641">
        <ele>756</ele>
        <time>2018-05-13T08:25:42.763Z</time>
      </trkpt>
      <trkpt lat="40.84768" lon="0.339486">
        <ele>755</ele>
        <time>2018-05-13T08:25:53.764Z</time>
      </trkpt>
      <trkpt lat="40.84761" lon="0.339391">
        <ele>758</ele>
        <time>2018-05-13T08:26:02.764Z</time>
      </trkpt>
      <trkpt lat="40.847536" lon="0.33929">
        <ele>764</ele>
        <time>2018-05-13T08:26:13.764Z</time>
      </trkpt>
      <trkpt lat="40.847497" lon="0.339173">
        <ele>763</ele>
        <time>2018-05-13T08:26:21.864Z</time>
      </trkpt>
      <trkpt lat="40.84744" lon="0.339073">
        <ele>763</ele>
        <time>2018-05-13T08:26:30.764Z</time>
      </trkpt>
      <trkpt lat="40.847446" lon="0.338954">
        <ele>766.463520412005</ele>
        <time>2018-05-13T08:26:39.764Z</time>
      </trkpt>
      <trkpt lat="40.847498" lon="0.338846">
        <ele>772.498871007177</ele>
        <time>2018-05-13T08:26:49.764Z</time>
      </trkpt>
      <trkpt lat="40.847522" lon="0.338714">
        <ele>779.583450426347</ele>
        <time>2018-05-13T08:27:04.764Z</time>
      </trkpt>
      <trkpt lat="40.847538" lon="0.338586">
        <ele>778</ele>
        <time>2018-05-13T08:27:19.764Z</time>
      </trkpt>
      <trkpt lat="40.847628" lon="0.338574">
        <ele>777.473047427178</ele>
        <time>2018-05-13T08:27:26.764Z</time>
      </trkpt>
      <trkpt lat="40.847745" lon="0.33858">
        <ele>781.016498937257</ele>
        <time>2018-05-13T08:27:29.764Z</time>
      </trkpt>
      <trkpt lat="40.847854" lon="0.338611">
        <ele>781.394277773037</ele>
        <time>2018-05-13T08:27:37.764Z</time>
      </trkpt>
      <trkpt lat="40.847908" lon="0.338493">
        <ele>786</ele>
        <time>2018-05-13T08:27:43.764Z</time>
      </trkpt>
      <trkpt lat="40.848003" lon="0.338471">
        <ele>788</ele>
        <time>2018-05-13T08:27:54.764Z</time>
      </trkpt>
      <trkpt lat="40.848094" lon="0.338525">
        <ele>792</ele>
        <time>2018-05-13T08:27:59.753Z</time>
      </trkpt>
      <trkpt lat="40.848183" lon="0.338506">
        <ele>791.456856741291</ele>
        <time>2018-05-13T08:28:08.764Z</time>
      </trkpt>
      <trkpt lat="40.848238" lon="0.338402">
        <ele>796</ele>
        <time>2018-05-13T08:28:18.764Z</time>
      </trkpt>
      <trkpt lat="40.848301" lon="0.338316">
        <ele>806.344302402826</ele>
        <time>2018-05-13T08:28:29.764Z</time>
      </trkpt>
      <trkpt lat="40.848392" lon="0.338264">
        <ele>814</ele>
        <time>2018-05-13T08:28:41.764Z</time>
      </trkpt>
      <trkpt lat="40.848478" lon="0.338218">
        <ele>814.213779710017</ele>
        <time>2018-05-13T08:28:49.764Z</time>
      </trkpt>
      <trkpt lat="40.848569" lon="0.338206">
        <ele>817</ele>
        <time>2018-05-13T08:29:00.764Z</time>
      </trkpt>
      <trkpt lat="40.848653" lon="0.338149">
        <ele>818.389051568445</ele>
        <time>2018-05-13T08:29:08.764Z</time>
      </trkpt>
      <trkpt lat="40.848723" lon="0.338067">
        <ele>819.426159132755</ele>
        <time>2018-05-13T08:29:18.764Z</time>
      </trkpt>
      <trkpt lat="40.848663" lon="0.337962">
        <ele>824.549493173355</ele>
        <time>2018-05-13T08:29:33.764Z</time>
      </trkpt>
      <trkpt lat="40.848608" lon="0.337862">
        <ele>828</ele>
        <time>2018-05-13T08:29:45.764Z</time>
      </trkpt>
      <trkpt lat="40.848589" lon="0.337744">
        <ele>830.530518203131</ele>
        <time>2018-05-13T08:29:57.764Z</time>
      </trkpt>
      <trkpt lat="40.848624" lon="0.337627">
        <ele>831</ele>
        <time>2018-05-13T08:30:06.764Z</time>
      </trkpt>
      <trkpt lat="40.848697" lon="0.3377">
        <ele>838</ele>
        <time>2018-05-13T08:30:23.764Z</time>
      </trkpt>
      <trkpt lat="40.848768" lon="0.337789">
        <ele>838</ele>
        <time>2018-05-13T08:30:29.764Z</time>
      </trkpt>
      <trkpt lat="40.848843" lon="0.337856">
        <ele>839</ele>
        <time>2018-05-13T08:30:38.764Z</time>
      </trkpt>
      <trkpt lat="40.848837" lon="0.337734">
        <ele>840</ele>
        <time>2018-05-13T08:30:49.764Z</time>
      </trkpt>
      <trkpt lat="40.848787" lon="0.337632">
        <ele>841</ele>
        <time>2018-05-13T08:30:55.764Z</time>
      </trkpt>
      <trkpt lat="40.848793" lon="0.337508">
        <ele>842</ele>
        <time>2018-05-13T08:31:04.764Z</time>
      </trkpt>
      <trkpt lat="40.848725" lon="0.337406">
        <ele>843</ele>
        <time>2018-05-13T08:31:18.764Z</time>
      </trkpt>
      <trkpt lat="40.848686" lon="0.337298">
        <ele>843.496369475669</ele>
        <time>2018-05-13T08:31:27.764Z</time>
      </trkpt>
      <trkpt lat="40.848632" lon="0.3372">
        <ele>843.852298573299</ele>
        <time>2018-05-13T08:31:39.764Z</time>
      </trkpt>
      <trkpt lat="40.848543" lon="0.337153">
        <ele>852</ele>
        <time>2018-05-13T08:31:46.763Z</time>
      </trkpt>
      <trkpt lat="40.848456" lon="0.337213">
        <ele>856.540201369736</ele>
        <time>2018-05-13T08:31:57.764Z</time>
      </trkpt>
      <trkpt lat="40.848381" lon="0.337301">
        <ele>857.414523870968</ele>
        <time>2018-05-13T08:32:04.764Z</time>
      </trkpt>
      <trkpt lat="40.84829" lon="0.337375">
        <ele>859.513828179256</ele>
        <time>2018-05-13T08:32:12.753Z</time>
      </trkpt>
      <trkpt lat="40.848264" lon="0.337246">
        <ele>863</ele>
        <time>2018-05-13T08:32:24.764Z</time>
      </trkpt>
      <trkpt lat="40.848308" lon="0.337129">
        <ele>868.985454630082</ele>
        <time>2018-05-13T08:32:33.768Z</time>
      </trkpt>
      <trkpt lat="40.848218" lon="0.337174">
        <ele>866.491750531372</ele>
        <time>2018-05-13T08:32:45.764Z</time>
      </trkpt>
      <trkpt lat="40.848126" lon="0.337179">
        <ele>871.387418433749</ele>
        <time>2018-05-13T08:32:54.764Z</time>
      </trkpt>
      <trkpt lat="40.848156" lon="0.337065">
        <ele>880.494651428571</ele>
        <time>2018-05-13T08:33:06.764Z</time>
      </trkpt>
      <trkpt lat="40.848076" lon="0.33713">
        <ele>887</ele>
        <time>2018-05-13T08:33:20.764Z</time>
      </trkpt>
      <trkpt lat="40.84798" lon="0.337126">
        <ele>883</ele>
        <time>2018-05-13T08:33:28.764Z</time>
      </trkpt>
      <trkpt lat="40.847915" lon="0.337037">
        <ele>881</ele>
        <time>2018-05-13T08:33:37.764Z</time>
      </trkpt>
      <trkpt lat="40.847822" lon="0.336993">
        <ele>886</ele>
        <time>2018-05-13T08:33:43.764Z</time>
      </trkpt>
      <trkpt lat="40.847734" lon="0.336912">
        <ele>887</ele>
        <time>2018-05-13T08:33:51.764Z</time>
      </trkpt>
      <trkpt lat="40.847633" lon="0.336857">
        <ele>887</ele>
        <time>2018-05-13T08:33:59.764Z</time>
      </trkpt>
      <trkpt lat="40.847539" lon="0.336753">
        <ele>887</ele>
        <time>2018-05-13T08:34:06.764Z</time>
      </trkpt>
      <trkpt lat="40.847437" lon="0.336717">
        <ele>888</ele>
        <time>2018-05-13T08:34:12.764Z</time>
      </trkpt>
      <trkpt lat="40.847348" lon="0.336752">
        <ele>885.570538389792</ele>
        <time>2018-05-13T08:34:16.764Z</time>
      </trkpt>
      <trkpt lat="40.847254" lon="0.336772">
        <ele>883</ele>
        <time>2018-05-13T08:34:21.764Z</time>
      </trkpt>
      <trkpt lat="40.847156" lon="0.336825">
        <ele>882</ele>
        <time>2018-05-13T08:34:27.764Z</time>
      </trkpt>
      <trkpt lat="40.847071" lon="0.336776">
        <ele>884</ele>
        <time>2018-05-13T08:34:35.764Z</time>
      </trkpt>
      <trkpt lat="40.846976" lon="0.336751">
        <ele>884</ele>
        <time>2018-05-13T08:34:42.764Z</time>
      </trkpt>
      <trkpt lat="40.846876" lon="0.336746">
        <ele>884</ele>
        <time>2018-05-13T08:34:49.764Z</time>
      </trkpt>
      <trkpt lat="40.84693" lon="0.336641">
        <ele>885</ele>
        <time>2018-05-13T08:35:05.764Z</time>
      </trkpt>
      <trkpt lat="40.846911" lon="0.33652">
        <ele>886</ele>
        <time>2018-05-13T08:35:25.764Z</time>
      </trkpt>
      <trkpt lat="40.84681" lon="0.336483">
        <ele>885.540201369736</ele>
        <time>2018-05-13T08:35:35.764Z</time>
      </trkpt>
      <trkpt lat="40.846839" lon="0.336356">
        <ele>886.544891721742</ele>
        <time>2018-05-13T08:35:51.764Z</time>
      </trkpt>
      <trkpt lat="40.846885" lon="0.336254">
        <ele>887</ele>
        <time>2018-05-13T08:36:07.764Z</time>
      </trkpt>
      <trkpt lat="40.847002" lon="0.336212">
        <ele>887.524778831232</ele>
        <time>2018-05-13T08:36:19.863Z</time>
      </trkpt>
      <trkpt lat="40.84707" lon="0.336094">
        <ele>889</ele>
        <time>2018-05-13T08:36:34.764Z</time>
      </trkpt>
      <trkpt lat="40.846987" lon="0.33602">
        <ele>889.456856741291</ele>
        <time>2018-05-13T08:36:50.764Z</time>
      </trkpt>
      <trkpt lat="40.846889" lon="0.336005">
        <ele>889</ele>
        <time>2018-05-13T08:37:00.764Z</time>
      </trkpt>
      <trkpt lat="40.846797" lon="0.335986">
        <ele>889</ele>
        <time>2018-05-13T08:37:07.764Z</time>
      </trkpt>
      <trkpt lat="40.846704" lon="0.335984">
        <ele>891</ele>
        <time>2018-05-13T08:37:15.764Z</time>
      </trkpt>
      <trkpt lat="40.846714" lon="0.335864">
        <ele>892</ele>
        <time>2018-05-13T08:37:26.764Z</time>
      </trkpt>
      <trkpt lat="40.846786" lon="0.335791">
        <ele>894</ele>
        <time>2018-05-13T08:37:41.764Z</time>
      </trkpt>
      <trkpt lat="40.846722" lon="0.335706">
        <ele>898</ele>
        <time>2018-05-13T08:38:05.764Z</time>
      </trkpt>
      <trkpt lat="40.846794" lon="0.33562">
        <ele>896.431748224753</ele>
        <time>2018-05-13T08:38:16.764Z</time>
      </trkpt>
      <trkpt lat="40.846887" lon="0.335585">
        <ele>899</ele>
        <time>2018-05-13T08:38:27.764Z</time>
      </trkpt>
      <trkpt lat="40.846952" lon="0.335498">
        <ele>902.986687905336</ele>
        <time>2018-05-13T08:38:36.764Z</time>
      </trkpt>
      <trkpt lat="40.847031" lon="0.335432">
        <ele>907.597906196527</ele>
        <time>2018-05-13T08:38:38.764Z</time>
      </trkpt>
      <trkpt lat="40.846918" lon="0.335438">
        <ele>922.516045714286</ele>
        <time>2018-05-13T08:38:52.764Z</time>
      </trkpt>
      <trkpt lat="40.846814" lon="0.335389">
        <ele>913.563783146373</ele>
        <time>2018-05-13T08:38:59.764Z</time>
      </trkpt>
      <trkpt lat="40.846719" lon="0.335389">
        <ele>911</ele>
        <time>2018-05-13T08:39:06.764Z</time>
      </trkpt>
      <trkpt lat="40.846798" lon="0.335308">
        <ele>914</ele>
        <time>2018-05-13T08:39:15.764Z</time>
      </trkpt>
      <trkpt lat="40.846889" lon="0.335239">
        <ele>916</ele>
        <time>2018-05-13T08:39:19.764Z</time>
      </trkpt>
      <trkpt lat="40.846983" lon="0.335146">
        <ele>918.500893691117</ele>
        <time>2018-05-13T08:39:28.764Z</time>
      </trkpt>
      <trkpt lat="40.846924" lon="0.335048">
        <ele>913</ele>
        <time>2018-05-13T08:39:50.764Z</time>
      </trkpt>
      <trkpt lat="40.846995" lon="0.33496">
        <ele>918</ele>
        <time>2018-05-13T08:40:05.764Z</time>
      </trkpt>
      <trkpt lat="40.847046" lon="0.334852">
        <ele>919</ele>
        <time>2018-05-13T08:40:20.764Z</time>
      </trkpt>
      <trkpt lat="40.847126" lon="0.33477">
        <ele>920</ele>
        <time>2018-05-13T08:40:26.764Z</time>
      </trkpt>
      <trkpt lat="40.847208" lon="0.334711">
        <ele>920</ele>
        <time>2018-05-13T08:40:34.764Z</time>
      </trkpt>
      <trkpt lat="40.847303" lon="0.334709">
        <ele>921</ele>
        <time>2018-05-13T08:40:40.764Z</time>
      </trkpt>
      <trkpt lat="40.847406" lon="0.334753">
        <ele>925.548506469641</ele>
        <time>2018-05-13T08:40:45.764Z</time>
      </trkpt>
      <trkpt lat="40.847509" lon="0.334783">
        <ele>933.631092401121</ele>
        <time>2018-05-13T08:40:51.764Z</time>
      </trkpt>
      <trkpt lat="40.847581" lon="0.334876">
        <ele>949</ele>
        <time>2018-05-13T08:41:45.764Z</time>
      </trkpt>
      <trkpt lat="40.847655" lon="0.334792">
        <ele>950</ele>
        <time>2018-05-13T08:41:52.764Z</time>
      </trkpt>
      <trkpt lat="40.847702" lon="0.33468">
        <ele>949.331618412143</ele>
        <time>2018-05-13T08:42:06.764Z</time>
      </trkpt>
      <trkpt lat="40.847793" lon="0.334698">
        <ele>954.549493173355</ele>
        <time>2018-05-13T08:42:31.764Z</time>
      </trkpt>
      <trkpt lat="40.847749" lon="0.334591">
        <ele>957</ele>
        <time>2018-05-13T08:42:45.764Z</time>
      </trkpt>
      <trkpt lat="40.847726" lon="0.334469">
        <ele>957.457726870852</ele>
        <time>2018-05-13T08:43:00.766Z</time>
      </trkpt>
      <trkpt lat="40.847817" lon="0.33443">
        <ele>957.467648830439</ele>
        <time>2018-05-13T08:43:13.753Z</time>
      </trkpt>
      <trkpt lat="40.847864" lon="0.334318">
        <ele>953</ele>
        <time>2018-05-13T08:43:22.764Z</time>
      </trkpt>
      <trkpt lat="40.847795" lon="0.334238">
        <ele>960</ele>
        <time>2018-05-13T08:43:39.764Z</time>
      </trkpt>
      <trkpt lat="40.847747" lon="0.334137">
        <ele>959</ele>
        <time>2018-05-13T08:43:47.764Z</time>
      </trkpt>
      <trkpt lat="40.847816" lon="0.334029">
        <ele>961.665888624522</ele>
        <time>2018-05-13T08:44:01.764Z</time>
      </trkpt>
      <trkpt lat="40.847893" lon="0.333963">
        <ele>959.071323627621</ele>
        <time>2018-05-13T08:44:07.764Z</time>
      </trkpt>
      <trkpt lat="40.84799" lon="0.333904">
        <ele>959</ele>
        <time>2018-05-13T08:44:18.764Z</time>
      </trkpt>
      <trkpt lat="40.84806" lon="0.333983">
        <ele>965.724523915258</ele>
        <time>2018-05-13T08:44:24.764Z</time>
      </trkpt>
      <trkpt lat="40.847995" lon="0.333897">
        <ele>1003</ele>
        <time>2018-05-13T08:45:07.764Z</time>
      </trkpt>
      <trkpt lat="40.848076" lon="0.33384">
        <ele>1007.90351920731</ele>
        <time>2018-05-13T08:45:23.764Z</time>
      </trkpt>
      <trkpt lat="40.848172" lon="0.333818">
        <ele>1016.66866629731</ele>
        <time>2018-05-13T08:45:36.764Z</time>
      </trkpt>
      <trkpt lat="40.848266" lon="0.333823">
        <ele>1018.52648622629</ele>
        <time>2018-05-13T08:45:44.764Z</time>
      </trkpt>
      <trkpt lat="40.848368" lon="0.333794">
        <ele>1014.34843300944</ele>
        <time>2018-05-13T08:45:54.764Z</time>
      </trkpt>
      <trkpt lat="40.848444" lon="0.333712">
        <ele>1013</ele>
        <time>2018-05-13T08:46:01.764Z</time>
      </trkpt>
      <trkpt lat="40.848532" lon="0.333634">
        <ele>1014</ele>
        <time>2018-05-13T08:46:07.764Z</time>
      </trkpt>
      <trkpt lat="40.848632" lon="0.333622">
        <ele>1019.99818955477</ele>
        <time>2018-05-13T08:46:15.764Z</time>
      </trkpt>
      <trkpt lat="40.848719" lon="0.33355">
        <ele>1025</ele>
        <time>2018-05-13T08:46:22.764Z</time>
      </trkpt>
      <trkpt lat="40.848818" lon="0.333519">
        <ele>1030.52621506419</ele>
        <time>2018-05-13T08:46:29.752Z</time>
      </trkpt>
      <trkpt lat="40.848884" lon="0.333438">
        <ele>1030.5539968</ele>
        <time>2018-05-13T08:46:37.764Z</time>
      </trkpt>
      <trkpt lat="40.848977" lon="0.333403">
        <ele>1033.5679060051</ele>
        <time>2018-05-13T08:46:45.764Z</time>
      </trkpt>
      <trkpt lat="40.849079" lon="0.333408">
        <ele>1041.86562</ele>
        <time>2018-05-13T08:46:51.764Z</time>
      </trkpt>
      <trkpt lat="40.849152" lon="0.333332">
        <ele>1046</ele>
        <time>2018-05-13T08:47:07.764Z</time>
      </trkpt>
      <trkpt lat="40.849216" lon="0.333246">
        <ele>1052</ele>
        <time>2018-05-13T08:47:23.764Z</time>
      </trkpt>
      <trkpt lat="40.849274" lon="0.333151">
        <ele>1051</ele>
        <time>2018-05-13T08:47:36.751Z</time>
      </trkpt>
      <trkpt lat="40.849372" lon="0.33313">
        <ele>1052</ele>
        <time>2018-05-13T08:47:45.751Z</time>
      </trkpt>
      <trkpt lat="40.84947" lon="0.333093">
        <ele>1048.53565001394</ele>
        <time>2018-05-13T08:47:52.751Z</time>
      </trkpt>
      <trkpt lat="40.849506" lon="0.332968">
        <ele>1047</ele>
        <time>2018-05-13T08:47:56.754Z</time>
      </trkpt>
      <trkpt lat="40.849479" lon="0.332828">
        <ele>1047.42422</ele>
        <time>2018-05-13T08:48:00.753Z</time>
      </trkpt>
      <trkpt lat="40.849447" lon="0.332702">
        <ele>1050</ele>
        <time>2018-05-13T08:48:03.751Z</time>
      </trkpt>
      <trkpt lat="40.849402" lon="0.332572">
        <ele>1050</ele>
        <time>2018-05-13T08:48:07.754Z</time>
      </trkpt>
      <trkpt lat="40.84932" lon="0.332482">
        <ele>1049.48510968585</ele>
        <time>2018-05-13T08:48:12.754Z</time>
      </trkpt>
      <trkpt lat="40.849271" lon="0.33237">
        <ele>1049</ele>
        <time>2018-05-13T08:48:16.752Z</time>
      </trkpt>
      <trkpt lat="40.849273" lon="0.332241">
        <ele>1049</ele>
        <time>2018-05-13T08:48:20.751Z</time>
      </trkpt>
      <trkpt lat="40.849302" lon="0.332126">
        <ele>1049</ele>
        <time>2018-05-13T08:48:24.761Z</time>
      </trkpt>
      <trkpt lat="40.849377" lon="0.332052">
        <ele>1049</ele>
        <time>2018-05-13T08:48:28.751Z</time>
      </trkpt>
      <trkpt lat="40.849474" lon="0.332018">
        <ele>1049</ele>
        <time>2018-05-13T08:48:33.751Z</time>
      </trkpt>
      <trkpt lat="40.849571" lon="0.332034">
        <ele>1049</ele>
        <time>2018-05-13T08:48:37.751Z</time>
      </trkpt>
      <trkpt lat="40.849661" lon="0.331979">
        <ele>1048.65974609359</ele>
        <time>2018-05-13T08:48:45.751Z</time>
      </trkpt>
      <trkpt lat="40.849648" lon="0.331847">
        <ele>1047</ele>
        <time>2018-05-13T08:48:50.753Z</time>
      </trkpt>
      <trkpt lat="40.849591" lon="0.331734">
        <ele>1046</ele>
        <time>2018-05-13T08:48:54.762Z</time>
      </trkpt>
      <trkpt lat="40.849521" lon="0.331624">
        <ele>1045</ele>
        <time>2018-05-13T08:48:58.752Z</time>
      </trkpt>
      <trkpt lat="40.849446" lon="0.331533">
        <ele>1044</ele>
        <time>2018-05-13T08:49:01.752Z</time>
      </trkpt>
      <trkpt lat="40.849384" lon="0.331438">
        <ele>1044</ele>
        <time>2018-05-13T08:49:04.762Z</time>
      </trkpt>
      <trkpt lat="40.849337" lon="0.331332">
        <ele>1043</ele>
        <time>2018-05-13T08:49:07.724Z</time>
      </trkpt>
      <trkpt lat="40.849263" lon="0.331236">
        <ele>1043</ele>
        <time>2018-05-13T08:49:10.752Z</time>
      </trkpt>
      <trkpt lat="40.849204" lon="0.331134">
        <ele>1043</ele>
        <time>2018-05-13T08:49:15.752Z</time>
      </trkpt>
      <trkpt lat="40.849189" lon="0.330995">
        <ele>1042</ele>
        <time>2018-05-13T08:49:22.752Z</time>
      </trkpt>
      <trkpt lat="40.849115" lon="0.330885">
        <ele>1042</ele>
        <time>2018-05-13T08:49:24.762Z</time>
      </trkpt>
      <trkpt lat="40.84907" lon="0.330754">
        <ele>1042</ele>
        <time>2018-05-13T08:49:28.752Z</time>
      </trkpt>
      <trkpt lat="40.849051" lon="0.330634">
        <ele>1042</ele>
        <time>2018-05-13T08:49:31.751Z</time>
      </trkpt>
      <trkpt lat="40.849125" lon="0.33054">
        <ele>1042</ele>
        <time>2018-05-13T08:49:35.861Z</time>
      </trkpt>
      <trkpt lat="40.84924" lon="0.330579">
        <ele>1041</ele>
        <time>2018-05-13T08:49:39.762Z</time>
      </trkpt>
      <trkpt lat="40.849348" lon="0.330652">
        <ele>1041</ele>
        <time>2018-05-13T08:49:44.764Z</time>
      </trkpt>
      <trkpt lat="40.849451" lon="0.330711">
        <ele>1026.11376767345</ele>
        <time>2018-05-13T08:49:56.272Z</time>
      </trkpt>
      <trkpt lat="40.849513" lon="0.330804">
        <ele>1023.90298706072</ele>
        <time>2018-05-13T08:49:59.764Z</time>
      </trkpt>
      <trkpt lat="40.849604" lon="0.330857">
        <ele>1018.31173647059</ele>
        <time>2018-05-13T08:50:02.764Z</time>
      </trkpt>
      <trkpt lat="40.849704" lon="0.330909">
        <ele>1014</ele>
        <time>2018-05-13T08:50:05.762Z</time>
      </trkpt>
      <trkpt lat="40.849798" lon="0.33094">
        <ele>1008.8920064</ele>
        <time>2018-05-13T08:50:09.764Z</time>
      </trkpt>
      <trkpt lat="40.849885" lon="0.330904">
        <ele>1003.38629867967</ele>
        <time>2018-05-13T08:50:12.762Z</time>
      </trkpt>
      <trkpt lat="40.849979" lon="0.330816">
        <ele>1003.46734672553</ele>
        <time>2018-05-13T08:50:16.752Z</time>
      </trkpt>
      <trkpt lat="40.850051" lon="0.330711">
        <ele>1003</ele>
        <time>2018-05-13T08:50:19.764Z</time>
      </trkpt>
      <trkpt lat="40.850139" lon="0.330576">
        <ele>1003.34635837881</ele>
        <time>2018-05-13T08:50:22.761Z</time>
      </trkpt>
      <trkpt lat="40.850207" lon="0.330467">
        <ele>1006</ele>
        <time>2018-05-13T08:50:25.751Z</time>
      </trkpt>
      <trkpt lat="40.850266" lon="0.330304">
        <ele>1008</ele>
        <time>2018-05-13T08:50:30.764Z</time>
      </trkpt>
      <trkpt lat="40.850337" lon="0.330231">
        <ele>1008</ele>
        <time>2018-05-13T08:50:33.764Z</time>
      </trkpt>
      <trkpt lat="40.850427" lon="0.330158">
        <ele>1007.56825616124</ele>
        <time>2018-05-13T08:50:37.764Z</time>
      </trkpt>
      <trkpt lat="40.850515" lon="0.330104">
        <ele>1006.50536</ele>
        <time>2018-05-13T08:50:41.764Z</time>
      </trkpt>
      <trkpt lat="40.850619" lon="0.330077">
        <ele>1005</ele>
        <time>2018-05-13T08:50:45.764Z</time>
      </trkpt>
      <trkpt lat="40.850722" lon="0.329989">
        <ele>1003.49556263511</ele>
        <time>2018-05-13T08:50:49.764Z</time>
      </trkpt>
      <trkpt lat="40.850812" lon="0.329904">
        <ele>1003</ele>
        <time>2018-05-13T08:50:52.764Z</time>
      </trkpt>
      <trkpt lat="40.8509" lon="0.329818">
        <ele>1003.61524943864</ele>
        <time>2018-05-13T08:50:56.764Z</time>
      </trkpt>
      <trkpt lat="40.851002" lon="0.329766">
        <ele>1001.75162062843</ele>
        <time>2018-05-13T08:50:59.764Z</time>
      </trkpt>
      <trkpt lat="40.851087" lon="0.329684">
        <ele>1003</ele>
        <time>2018-05-13T08:51:03.764Z</time>
      </trkpt>
      <trkpt lat="40.851146" lon="0.329581">
        <ele>1002</ele>
        <time>2018-05-13T08:51:07.764Z</time>
      </trkpt>
      <trkpt lat="40.851221" lon="0.329512">
        <ele>1001</ele>
        <time>2018-05-13T08:51:15.753Z</time>
      </trkpt>
      <trkpt lat="40.851312" lon="0.329503">
        <ele>1001</ele>
        <time>2018-05-13T08:51:21.764Z</time>
      </trkpt>
      <trkpt lat="40.851368" lon="0.329406">
        <ele>1001</ele>
        <time>2018-05-13T08:51:25.764Z</time>
      </trkpt>
      <trkpt lat="40.851419" lon="0.32928">
        <ele>993.491750531372</ele>
        <time>2018-05-13T08:51:31.764Z</time>
      </trkpt>
      <trkpt lat="40.851522" lon="0.329148">
        <ele>991.532689230769</ele>
        <time>2018-05-13T08:51:35.764Z</time>
      </trkpt>
      <trkpt lat="40.851596" lon="0.329072">
        <ele>993.5479936</ele>
        <time>2018-05-13T08:51:37.764Z</time>
      </trkpt>
      <trkpt lat="40.851684" lon="0.329017">
        <ele>995.506807272727</ele>
        <time>2018-05-13T08:51:40.764Z</time>
      </trkpt>
      <trkpt lat="40.851776" lon="0.328964">
        <ele>994.474474719828</ele>
        <time>2018-05-13T08:51:45.764Z</time>
      </trkpt>
      <trkpt lat="40.85188" lon="0.328932">
        <ele>994.509735956774</ele>
        <time>2018-05-13T08:51:53.764Z</time>
      </trkpt>
      <trkpt lat="40.851972" lon="0.328917">
        <ele>993</ele>
        <time>2018-05-13T08:51:58.764Z</time>
      </trkpt>
      <trkpt lat="40.852089" lon="0.328877">
        <ele>998</ele>
        <time>2018-05-13T08:52:24.764Z</time>
      </trkpt>
      <trkpt lat="40.852174" lon="0.328942">
        <ele>1000</ele>
        <time>2018-05-13T08:52:31.753Z</time>
      </trkpt>
      <trkpt lat="40.852185" lon="0.329062">
        <ele>999</ele>
        <time>2018-05-13T08:52:36.764Z</time>
      </trkpt>
      <trkpt lat="40.852235" lon="0.329207">
        <ele>999.5449984</ele>
        <time>2018-05-13T08:52:41.755Z</time>
      </trkpt>
      <trkpt lat="40.852264" lon="0.329327">
        <ele>999</ele>
        <time>2018-05-13T08:52:47.764Z</time>
      </trkpt>
      <trkpt lat="40.852291" lon="0.329461">
        <ele>1001</ele>
        <time>2018-05-13T08:52:51.764Z</time>
      </trkpt>
      <trkpt lat="40.852332" lon="0.329569">
        <ele>999.4279936</ele>
        <time>2018-05-13T08:52:54.782Z</time>
      </trkpt>
      <trkpt lat="40.852406" lon="0.329711">
        <ele>997.467298461538</ele>
        <time>2018-05-13T08:52:58.764Z</time>
      </trkpt>
      <trkpt lat="40.852452" lon="0.329847">
        <ele>995.084992</ele>
        <time>2018-05-13T08:53:02.793Z</time>
      </trkpt>
      <trkpt lat="40.852488" lon="0.329968">
        <ele>990.497798658096</ele>
        <time>2018-05-13T08:53:06.753Z</time>
      </trkpt>
      <trkpt lat="40.852567" lon="0.330065">
        <ele>988.325879243749</ele>
        <time>2018-05-13T08:53:11.764Z</time>
      </trkpt>
      <trkpt lat="40.85267" lon="0.33021">
        <ele>990</ele>
        <time>2018-05-13T08:53:17.764Z</time>
      </trkpt>
      <trkpt lat="40.852719" lon="0.330334">
        <ele>995.1079936</ele>
        <time>2018-05-13T08:53:21.764Z</time>
      </trkpt>
      <trkpt lat="40.852802" lon="0.330456">
        <ele>995.474474719828</ele>
        <time>2018-05-13T08:53:25.764Z</time>
      </trkpt>
      <trkpt lat="40.852875" lon="0.330585">
        <ele>992.316576335403</ele>
        <time>2018-05-13T08:53:30.764Z</time>
      </trkpt>
      <trkpt lat="40.852945" lon="0.330668">
        <ele>993.544904783052</ele>
        <time>2018-05-13T08:53:34.764Z</time>
      </trkpt>
      <trkpt lat="40.853042" lon="0.330645">
        <ele>992.48736924186</ele>
        <time>2018-05-13T08:53:38.764Z</time>
      </trkpt>
      <trkpt lat="40.853129" lon="0.330548">
        <ele>992.45147390566</ele>
        <time>2018-05-13T08:53:42.764Z</time>
      </trkpt>
      <trkpt lat="40.853233" lon="0.330546">
        <ele>990</ele>
        <time>2018-05-13T08:53:46.764Z</time>
      </trkpt>
      <trkpt lat="40.853323" lon="0.330572">
        <ele>988</ele>
        <time>2018-05-13T08:53:50.764Z</time>
      </trkpt>
      <trkpt lat="40.853416" lon="0.330579">
        <ele>989</ele>
        <time>2018-05-13T08:53:55.764Z</time>
      </trkpt>
      <trkpt lat="40.853517" lon="0.330608">
        <ele>987.549493173355</ele>
        <time>2018-05-13T08:54:01.764Z</time>
      </trkpt>
      <trkpt lat="40.853611" lon="0.330548">
        <ele>988</ele>
        <time>2018-05-13T08:54:07.764Z</time>
      </trkpt>
      <trkpt lat="40.85371" lon="0.330531">
        <ele>990</ele>
        <time>2018-05-13T08:54:10.764Z</time>
      </trkpt>
      <trkpt lat="40.853821" lon="0.330565">
        <ele>991</ele>
        <time>2018-05-13T08:54:14.764Z</time>
      </trkpt>
      <trkpt lat="40.853914" lon="0.33062">
        <ele>992</ele>
        <time>2018-05-13T08:54:18.764Z</time>
      </trkpt>
      <trkpt lat="40.854012" lon="0.330675">
        <ele>992.543143258709</ele>
        <time>2018-05-13T08:54:22.764Z</time>
      </trkpt>
      <trkpt lat="40.854108" lon="0.330754">
        <ele>992</ele>
        <time>2018-05-13T08:54:27.754Z</time>
      </trkpt>
      <trkpt lat="40.854189" lon="0.330849">
        <ele>992</ele>
        <time>2018-05-13T08:54:33.764Z</time>
      </trkpt>
      <trkpt lat="40.854296" lon="0.330844">
        <ele>995.477190303493</ele>
        <time>2018-05-13T08:54:41.764Z</time>
      </trkpt>
      <trkpt lat="40.85434" lon="0.330731">
        <ele>995.572440762354</ele>
        <time>2018-05-13T08:54:46.753Z</time>
      </trkpt>
      <trkpt lat="40.85437" lon="0.33061">
        <ele>997.530518203131</ele>
        <time>2018-05-13T08:54:51.764Z</time>
      </trkpt>
      <trkpt lat="40.854375" lon="0.330477">
        <ele>1002.53785929985</ele>
        <time>2018-05-13T08:55:03.764Z</time>
      </trkpt>
      <trkpt lat="40.854379" lon="0.330343">
        <ele>1002</ele>
        <time>2018-05-13T08:55:09.764Z</time>
      </trkpt>
      <trkpt lat="40.854447" lon="0.330263">
        <ele>1002</ele>
        <time>2018-05-13T08:55:15.763Z</time>
      </trkpt>
      <trkpt lat="40.85455" lon="0.330209">
        <ele>1001</ele>
        <time>2018-05-13T08:55:19.764Z</time>
      </trkpt>
      <trkpt lat="40.854615" lon="0.33012">
        <ele>1000.03538660203</ele>
        <time>2018-05-13T08:55:22.765Z</time>
      </trkpt>
      <trkpt lat="40.854672" lon="0.330011">
        <ele>995.4459904</ele>
        <time>2018-05-13T08:55:26.764Z</time>
      </trkpt>
      <trkpt lat="40.854709" lon="0.329891">
        <ele>996.149997419355</ele>
        <time>2018-05-13T08:55:29.767Z</time>
      </trkpt>
      <trkpt lat="40.85475" lon="0.329721">
        <ele>997.5539968</ele>
        <time>2018-05-13T08:55:33.764Z</time>
      </trkpt>
      <trkpt lat="40.854805" lon="0.329609">
        <ele>1000.92529763741</ele>
        <time>2018-05-13T08:55:39.764Z</time>
      </trkpt>
      <trkpt lat="40.854851" lon="0.329506">
        <ele>1003</ele>
        <time>2018-05-13T08:55:44.764Z</time>
      </trkpt>
      <trkpt lat="40.85488" lon="0.329391">
        <ele>1004</ele>
        <time>2018-05-13T08:55:48.764Z</time>
      </trkpt>
      <trkpt lat="40.854918" lon="0.329279">
        <ele>1003.69452</ele>
        <time>2018-05-13T08:55:52.767Z</time>
      </trkpt>
      <trkpt lat="40.854961" lon="0.329169">
        <ele>1002.54020136974</ele>
        <time>2018-05-13T08:55:57.764Z</time>
      </trkpt>
      <trkpt lat="40.854946" lon="0.329051">
        <ele>1007</ele>
        <time>2018-05-13T08:56:11.764Z</time>
      </trkpt>
      <trkpt lat="40.854882" lon="0.328951">
        <ele>1009.54852609434</ele>
        <time>2018-05-13T08:56:20.764Z</time>
      </trkpt>
      <trkpt lat="40.854883" lon="0.328831">
        <ele>1010.47446110271</ele>
        <time>2018-05-13T08:56:30.764Z</time>
      </trkpt>
      <trkpt lat="40.854831" lon="0.328732">
        <ele>1011.22559801753</ele>
        <time>2018-05-13T08:56:41.762Z</time>
      </trkpt>
      <trkpt lat="40.854769" lon="0.328632">
        <ele>1010</ele>
        <time>2018-05-13T08:56:48.764Z</time>
      </trkpt>
      <trkpt lat="40.854858" lon="0.328594">
        <ele>1003.47238239202</ele>
        <time>2018-05-13T08:56:55.764Z</time>
      </trkpt>
      <trkpt lat="40.854963" lon="0.328573">
        <ele>1005</ele>
        <time>2018-05-13T08:57:01.764Z</time>
      </trkpt>
      <trkpt lat="40.855074" lon="0.328531">
        <ele>1002.05485891641</ele>
        <time>2018-05-13T08:57:08.764Z</time>
      </trkpt>
      <trkpt lat="40.85516" lon="0.328486">
        <ele>996.630426071858</ele>
        <time>2018-05-13T08:57:14.765Z</time>
      </trkpt>
      <trkpt lat="40.855158" lon="0.328359">
        <ele>997.456856741291</ele>
        <time>2018-05-13T08:57:22.764Z</time>
      </trkpt>
      <trkpt lat="40.855057" lon="0.328266">
        <ele>998</ele>
        <time>2018-05-13T08:57:26.764Z</time>
      </trkpt>
      <trkpt lat="40.855002" lon="0.328142">
        <ele>1000</ele>
        <time>2018-05-13T08:57:29.764Z</time>
      </trkpt>
      <trkpt lat="40.854978" lon="0.328009">
        <ele>1001.49888538925</ele>
        <time>2018-05-13T08:57:32.764Z</time>
      </trkpt>
      <trkpt lat="40.854911" lon="0.327923">
        <ele>1001.57710271242</ele>
        <time>2018-05-13T08:57:35.764Z</time>
      </trkpt>
      <trkpt lat="40.854789" lon="0.327789">
        <ele>1004.78027366637</ele>
        <time>2018-05-13T08:57:37.764Z</time>
      </trkpt>
      <trkpt lat="40.854732" lon="0.327688">
        <ele>1006.51455135739</ele>
        <time>2018-05-13T08:57:39.764Z</time>
      </trkpt>
      <trkpt lat="40.854697" lon="0.327541">
        <ele>1001.22189686311</ele>
        <time>2018-05-13T08:57:42.764Z</time>
      </trkpt>
      <trkpt lat="40.854702" lon="0.327417">
        <ele>993.850797972307</ele>
        <time>2018-05-13T08:57:46.766Z</time>
      </trkpt>
      <trkpt lat="40.854614" lon="0.32734">
        <ele>995.928676372379</ele>
        <time>2018-05-13T08:57:49.764Z</time>
      </trkpt>
      <trkpt lat="40.854528" lon="0.327226">
        <ele>995</ele>
        <time>2018-05-13T08:57:53.764Z</time>
      </trkpt>
      <trkpt lat="40.854465" lon="0.327129">
        <ele>992.256122070894</ele>
        <time>2018-05-13T08:57:56.764Z</time>
      </trkpt>
      <trkpt lat="40.854381" lon="0.327012">
        <ele>984</ele>
        <time>2018-05-13T08:58:00.766Z</time>
      </trkpt>
      <trkpt lat="40.854297" lon="0.326918">
        <ele>985</ele>
        <time>2018-05-13T08:58:04.764Z</time>
      </trkpt>
      <trkpt lat="40.854279" lon="0.326769">
        <ele>980.3379712</ele>
        <time>2018-05-13T08:58:08.764Z</time>
      </trkpt>
      <trkpt lat="40.854247" lon="0.326644">
        <ele>977</ele>
        <time>2018-05-13T08:58:12.764Z</time>
      </trkpt>
      <trkpt lat="40.854163" lon="0.326438">
        <ele>973</ele>
        <time>2018-05-13T08:58:18.764Z</time>
      </trkpt>
      <trkpt lat="40.854092" lon="0.326334">
        <ele>975</ele>
        <time>2018-05-13T08:58:22.765Z</time>
      </trkpt>
      <trkpt lat="40.854051" lon="0.326223">
        <ele>973.506821818182</ele>
        <time>2018-05-13T08:58:25.764Z</time>
      </trkpt>
      <trkpt lat="40.854027" lon="0.3261">
        <ele>972</ele>
        <time>2018-05-13T08:58:29.764Z</time>
      </trkpt>
      <trkpt lat="40.85413" lon="0.326066">
        <ele>970.4589952</ele>
        <time>2018-05-13T08:58:33.751Z</time>
      </trkpt>
      <trkpt lat="40.85421" lon="0.325994">
        <ele>968</ele>
        <time>2018-05-13T08:58:44.750Z</time>
      </trkpt>
      <trkpt lat="40.854207" lon="0.325854">
        <ele>965</ele>
        <time>2018-05-13T08:58:57.764Z</time>
      </trkpt>
      <trkpt lat="40.854208" lon="0.325719">
        <ele>963</ele>
        <time>2018-05-13T08:59:02.754Z</time>
      </trkpt>
      <trkpt lat="40.85426" lon="0.325621">
        <ele>961.493634946124</ele>
        <time>2018-05-13T08:59:09.753Z</time>
      </trkpt>
      <trkpt lat="40.854317" lon="0.325513">
        <ele>961</ele>
        <time>2018-05-13T08:59:17.751Z</time>
      </trkpt>
      <trkpt lat="40.85426" lon="0.325407">
        <ele>961</ele>
        <time>2018-05-13T08:59:24.753Z</time>
      </trkpt>
      <trkpt lat="40.854193" lon="0.325293">
        <ele>961</ele>
        <time>2018-05-13T08:59:29.751Z</time>
      </trkpt>
      <trkpt lat="40.854164" lon="0.325161">
        <ele>959.553410909091</ele>
        <time>2018-05-13T08:59:34.723Z</time>
      </trkpt>
      <trkpt lat="40.854143" lon="0.325031">
        <ele>959</ele>
        <time>2018-05-13T08:59:38.751Z</time>
      </trkpt>
      <trkpt lat="40.854095" lon="0.324922">
        <ele>959</ele>
        <time>2018-05-13T08:59:42.750Z</time>
      </trkpt>
      <trkpt lat="40.854074" lon="0.324791">
        <ele>958</ele>
        <time>2018-05-13T08:59:46.751Z</time>
      </trkpt>
      <trkpt lat="40.853989" lon="0.32469">
        <ele>958</ele>
        <time>2018-05-13T08:59:49.751Z</time>
      </trkpt>
      <trkpt lat="40.853938" lon="0.324553">
        <ele>958</ele>
        <time>2018-05-13T08:59:54.755Z</time>
      </trkpt>
      <trkpt lat="40.853909" lon="0.324396">
        <ele>958.379462857143</ele>
        <time>2018-05-13T08:59:59.755Z</time>
      </trkpt>
      <trkpt lat="40.853973" lon="0.32429">
        <ele>957</ele>
        <time>2018-05-13T09:00:05.766Z</time>
      </trkpt>
      <trkpt lat="40.854033" lon="0.324187">
        <ele>955.782533168085</ele>
        <time>2018-05-13T09:00:10.764Z</time>
      </trkpt>
      <trkpt lat="40.854125" lon="0.324215">
        <ele>952.522996115819</ele>
        <time>2018-05-13T09:00:19.755Z</time>
      </trkpt>
      <trkpt lat="40.854209" lon="0.324266">
        <ele>950</ele>
        <time>2018-05-13T09:00:43.751Z</time>
      </trkpt>
      <trkpt lat="40.854171" lon="0.324151">
        <ele>943</ele>
        <time>2018-05-13T09:01:39.763Z</time>
      </trkpt>
      <trkpt lat="40.854267" lon="0.324097">
        <ele>942</ele>
        <time>2018-05-13T09:01:44.763Z</time>
      </trkpt>
      <trkpt lat="40.854355" lon="0.324059">
        <ele>942</ele>
        <time>2018-05-13T09:01:47.753Z</time>
      </trkpt>
      <trkpt lat="40.8544" lon="0.323949">
        <ele>931</ele>
        <time>2018-05-13T09:02:36.764Z</time>
      </trkpt>
      <trkpt lat="40.854498" lon="0.323924">
        <ele>929.45147390566</ele>
        <time>2018-05-13T09:02:40.764Z</time>
      </trkpt>
      <trkpt lat="40.854622" lon="0.323876">
        <ele>929</ele>
        <time>2018-05-13T09:02:43.764Z</time>
      </trkpt>
      <trkpt lat="40.854741" lon="0.323796">
        <ele>929</ele>
        <time>2018-05-13T09:02:46.764Z</time>
      </trkpt>
      <trkpt lat="40.854818" lon="0.323734">
        <ele>930</ele>
        <time>2018-05-13T09:02:48.764Z</time>
      </trkpt>
      <trkpt lat="40.854946" lon="0.323703">
        <ele>930</ele>
        <time>2018-05-13T09:02:51.764Z</time>
      </trkpt>
      <trkpt lat="40.855047" lon="0.323713">
        <ele>930</ele>
        <time>2018-05-13T09:02:54.764Z</time>
      </trkpt>
      <trkpt lat="40.855145" lon="0.323727">
        <ele>930</ele>
        <time>2018-05-13T09:02:58.764Z</time>
      </trkpt>
      <trkpt lat="40.8552" lon="0.323604">
        <ele>931</ele>
        <time>2018-05-13T09:03:05.764Z</time>
      </trkpt>
      <trkpt lat="40.855152" lon="0.323479">
        <ele>931</ele>
        <time>2018-05-13T09:03:08.764Z</time>
      </trkpt>
      <trkpt lat="40.8551" lon="0.323379">
        <ele>931.494651428571</ele>
        <time>2018-05-13T09:03:10.764Z</time>
      </trkpt>
      <trkpt lat="40.855053" lon="0.323231">
        <ele>932</ele>
        <time>2018-05-13T09:03:13.764Z</time>
      </trkpt>
      <trkpt lat="40.855115" lon="0.323086">
        <ele>932</ele>
        <time>2018-05-13T09:03:16.764Z</time>
      </trkpt>
      <trkpt lat="40.855158" lon="0.322977">
        <ele>932</ele>
        <time>2018-05-13T09:03:19.764Z</time>
      </trkpt>
      <trkpt lat="40.855171" lon="0.322846">
        <ele>931</ele>
        <time>2018-05-13T09:03:22.764Z</time>
      </trkpt>
      <trkpt lat="40.855181" lon="0.32271">
        <ele>929.495548412789</ele>
        <time>2018-05-13T09:03:26.764Z</time>
      </trkpt>
      <trkpt lat="40.855188" lon="0.322582">
        <ele>928</ele>
        <time>2018-05-13T09:03:30.764Z</time>
      </trkpt>
      <trkpt lat="40.855177" lon="0.322462">
        <ele>927.490111683124</ele>
        <time>2018-05-13T09:03:33.764Z</time>
      </trkpt>
      <trkpt lat="40.855214" lon="0.322353">
        <ele>926</ele>
        <time>2018-05-13T09:03:36.764Z</time>
      </trkpt>
      <trkpt lat="40.855192" lon="0.322204">
        <ele>925</ele>
        <time>2018-05-13T09:03:40.779Z</time>
      </trkpt>
      <trkpt lat="40.855127" lon="0.322092">
        <ele>924</ele>
        <time>2018-05-13T09:03:43.766Z</time>
      </trkpt>
      <trkpt lat="40.855127" lon="0.321948">
        <ele>922.509011865912</ele>
        <time>2018-05-13T09:03:47.755Z</time>
      </trkpt>
      <trkpt lat="40.855149" lon="0.321832">
        <ele>921.460395914126</ele>
        <time>2018-05-13T09:03:50.755Z</time>
      </trkpt>
      <trkpt lat="40.855197" lon="0.321721">
        <ele>920.222217359911</ele>
        <time>2018-05-13T09:03:53.765Z</time>
      </trkpt>
      <trkpt lat="40.855218" lon="0.321594">
        <ele>918</ele>
        <time>2018-05-13T09:03:56.755Z</time>
      </trkpt>
      <trkpt lat="40.855303" lon="0.321543">
        <ele>915</ele>
        <time>2018-05-13T09:04:00.753Z</time>
      </trkpt>
      <trkpt lat="40.855396" lon="0.321599">
        <ele>913</ele>
        <time>2018-05-13T09:04:04.750Z</time>
      </trkpt>
      <trkpt lat="40.855476" lon="0.321657">
        <ele>909</ele>
        <time>2018-05-13T09:04:16.754Z</time>
      </trkpt>
      <trkpt lat="40.855519" lon="0.321777">
        <ele>905</ele>
        <time>2018-05-13T09:04:26.753Z</time>
      </trkpt>
      <trkpt lat="40.855563" lon="0.321896">
        <ele>904</ele>
        <time>2018-05-13T09:04:30.753Z</time>
      </trkpt>
      <trkpt lat="40.855608" lon="0.322015">
        <ele>902.469075361898</ele>
        <time>2018-05-13T09:04:34.755Z</time>
      </trkpt>
      <trkpt lat="40.855699" lon="0.322051">
        <ele>901.46227041648</ele>
        <time>2018-05-13T09:04:37.780Z</time>
      </trkpt>
      <trkpt lat="40.855812" lon="0.322055">
        <ele>901</ele>
        <time>2018-05-13T09:04:40.764Z</time>
      </trkpt>
      <trkpt lat="40.855907" lon="0.322051">
        <ele>900</ele>
        <time>2018-05-13T09:04:44.755Z</time>
      </trkpt>
      <trkpt lat="40.855988" lon="0.322121">
        <ele>899</ele>
        <time>2018-05-13T09:04:47.755Z</time>
      </trkpt>
      <trkpt lat="40.856082" lon="0.322206">
        <ele>897.495371851852</ele>
        <time>2018-05-13T09:04:51.755Z</time>
      </trkpt>
      <trkpt lat="40.856167" lon="0.322285">
        <ele>897</ele>
        <time>2018-05-13T09:04:54.753Z</time>
      </trkpt>
      <trkpt lat="40.856245" lon="0.322402">
        <ele>895.4470016</ele>
        <time>2018-05-13T09:04:58.763Z</time>
      </trkpt>
      <trkpt lat="40.856274" lon="0.322527">
        <ele>895</ele>
        <time>2018-05-13T09:05:01.753Z</time>
      </trkpt>
      <trkpt lat="40.856347" lon="0.322653">
        <ele>894</ele>
        <time>2018-05-13T09:05:04.751Z</time>
      </trkpt>
      <trkpt lat="40.856417" lon="0.322738">
        <ele>893.47113392539</ele>
        <time>2018-05-13T09:05:07.753Z</time>
      </trkpt>
      <trkpt lat="40.856498" lon="0.322843">
        <ele>892</ele>
        <time>2018-05-13T09:05:12.750Z</time>
      </trkpt>
      <trkpt lat="40.856569" lon="0.322918">
        <ele>890.550598359139</ele>
        <time>2018-05-13T09:05:15.753Z</time>
      </trkpt>
      <trkpt lat="40.856653" lon="0.322979">
        <ele>890</ele>
        <time>2018-05-13T09:05:19.764Z</time>
      </trkpt>
      <trkpt lat="40.856732" lon="0.323035">
        <ele>889</ele>
        <time>2018-05-13T09:05:22.765Z</time>
      </trkpt>
      <trkpt lat="40.856814" lon="0.323099">
        <ele>889</ele>
        <time>2018-05-13T09:05:25.750Z</time>
      </trkpt>
      <trkpt lat="40.856932" lon="0.323167">
        <ele>888</ele>
        <time>2018-05-13T09:05:28.864Z</time>
      </trkpt>
      <trkpt lat="40.85703" lon="0.323176">
        <ele>887.455108278258</ele>
        <time>2018-05-13T09:05:31.764Z</time>
      </trkpt>
      <trkpt lat="40.857148" lon="0.323199">
        <ele>886</ele>
        <time>2018-05-13T09:05:35.720Z</time>
      </trkpt>
      <trkpt lat="40.857234" lon="0.323292">
        <ele>884.456</ele>
        <time>2018-05-13T09:05:39.754Z</time>
      </trkpt>
      <trkpt lat="40.857283" lon="0.323405">
        <ele>883.473339672323</ele>
        <time>2018-05-13T09:05:42.763Z</time>
      </trkpt>
      <trkpt lat="40.857318" lon="0.323531">
        <ele>882</ele>
        <time>2018-05-13T09:05:45.753Z</time>
      </trkpt>
      <trkpt lat="40.857355" lon="0.323691">
        <ele>881.574799181608</ele>
        <time>2018-05-13T09:05:48.750Z</time>
      </trkpt>
      <trkpt lat="40.857379" lon="0.323848">
        <ele>881</ele>
        <time>2018-05-13T09:05:51.752Z</time>
      </trkpt>
      <trkpt lat="40.857368" lon="0.324001">
        <ele>880</ele>
        <time>2018-05-13T09:05:55.750Z</time>
      </trkpt>
      <trkpt lat="40.857345" lon="0.324133">
        <ele>880</ele>
        <time>2018-05-13T09:05:58.755Z</time>
      </trkpt>
      <trkpt lat="40.8573" lon="0.324279">
        <ele>880</ele>
        <time>2018-05-13T09:06:01.750Z</time>
      </trkpt>
      <trkpt lat="40.857279" lon="0.324416">
        <ele>880</ele>
        <time>2018-05-13T09:06:04.755Z</time>
      </trkpt>
      <trkpt lat="40.857273" lon="0.324613">
        <ele>880</ele>
        <time>2018-05-13T09:06:10.764Z</time>
      </trkpt>
      <trkpt lat="40.857292" lon="0.324732">
        <ele>880</ele>
        <time>2018-05-13T09:06:13.764Z</time>
      </trkpt>
      <trkpt lat="40.857323" lon="0.324864">
        <ele>879</ele>
        <time>2018-05-13T09:06:17.754Z</time>
      </trkpt>
      <trkpt lat="40.857361" lon="0.324992">
        <ele>877</ele>
        <time>2018-05-13T09:06:21.754Z</time>
      </trkpt>
      <trkpt lat="40.857391" lon="0.325119">
        <ele>875.4459904</ele>
        <time>2018-05-13T09:06:24.764Z</time>
      </trkpt>
      <trkpt lat="40.857372" lon="0.32526">
        <ele>872.508112409045</ele>
        <time>2018-05-13T09:06:27.762Z</time>
      </trkpt>
      <trkpt lat="40.857369" lon="0.325395">
        <ele>870</ele>
        <time>2018-05-13T09:06:30.752Z</time>
      </trkpt>
      <trkpt lat="40.857348" lon="0.32552">
        <ele>867.492220389123</ele>
        <time>2018-05-13T09:06:32.767Z</time>
      </trkpt>
      <trkpt lat="40.857367" lon="0.325685">
        <ele>868</ele>
        <time>2018-05-13T09:06:35.753Z</time>
      </trkpt>
      <trkpt lat="40.857382" lon="0.325818">
        <ele>865.53708417828</ele>
        <time>2018-05-13T09:06:38.754Z</time>
      </trkpt>
      <trkpt lat="40.857428" lon="0.325947">
        <ele>861.9179904</ele>
        <time>2018-05-13T09:06:41.751Z</time>
      </trkpt>
      <trkpt lat="40.85752" lon="0.326079">
        <ele>858.50536</ele>
        <time>2018-05-13T09:06:45.764Z</time>
      </trkpt>
      <trkpt lat="40.857606" lon="0.326166">
        <ele>853</ele>
        <time>2018-05-13T09:06:50.750Z</time>
      </trkpt>
      <trkpt lat="40.857703" lon="0.326253">
        <ele>851.4459904</ele>
        <time>2018-05-13T09:06:54.764Z</time>
      </trkpt>
      <trkpt lat="40.857795" lon="0.326325">
        <ele>844</ele>
        <time>2018-05-13T09:06:59.750Z</time>
      </trkpt>
      <trkpt lat="40.857899" lon="0.326388">
        <ele>843.560685294182</ele>
        <time>2018-05-13T09:07:03.764Z</time>
      </trkpt>
      <trkpt lat="40.858003" lon="0.32644">
        <ele>842</ele>
        <time>2018-05-13T09:07:06.764Z</time>
      </trkpt>
      <trkpt lat="40.858094" lon="0.326491">
        <ele>841.601442068623</ele>
        <time>2018-05-13T09:07:09.764Z</time>
      </trkpt>
      <trkpt lat="40.858209" lon="0.326542">
        <ele>841</ele>
        <time>2018-05-13T09:07:12.765Z</time>
      </trkpt>
      <trkpt lat="40.858311" lon="0.326642">
        <ele>843.494514305005</ele>
        <time>2018-05-13T09:07:15.750Z</time>
      </trkpt>
      <trkpt lat="40.858344" lon="0.326764">
        <ele>844.4589952</ele>
        <time>2018-05-13T09:07:18.751Z</time>
      </trkpt>
      <trkpt lat="40.858296" lon="0.326894">
        <ele>845</ele>
        <time>2018-05-13T09:07:22.765Z</time>
      </trkpt>
      <trkpt lat="40.858231" lon="0.326978">
        <ele>845</ele>
        <time>2018-05-13T09:07:25.755Z</time>
      </trkpt>
      <trkpt lat="40.858176" lon="0.327074">
        <ele>845</ele>
        <time>2018-05-13T09:07:29.750Z</time>
      </trkpt>
      <trkpt lat="40.858261" lon="0.327126">
        <ele>845.527184381563</ele>
        <time>2018-05-13T09:07:33.753Z</time>
      </trkpt>
      <trkpt lat="40.858352" lon="0.327036">
        <ele>846</ele>
        <time>2018-05-13T09:07:37.767Z</time>
      </trkpt>
      <trkpt lat="40.858465" lon="0.326978">
        <ele>846</ele>
        <time>2018-05-13T09:07:41.755Z</time>
      </trkpt>
      <trkpt lat="40.858537" lon="0.326904">
        <ele>846</ele>
        <time>2018-05-13T09:07:44.764Z</time>
      </trkpt>
      <trkpt lat="40.858584" lon="0.326782">
        <ele>846</ele>
        <time>2018-05-13T09:07:47.764Z</time>
      </trkpt>
      <trkpt lat="40.858649" lon="0.326676">
        <ele>845</ele>
        <time>2018-05-13T09:07:50.755Z</time>
      </trkpt>
      <trkpt lat="40.858703" lon="0.326568">
        <ele>845</ele>
        <time>2018-05-13T09:07:53.760Z</time>
      </trkpt>
      <trkpt lat="40.858765" lon="0.326456">
        <ele>844.570868482851</ele>
        <time>2018-05-13T09:07:57.755Z</time>
      </trkpt>
      <trkpt lat="40.858806" lon="0.326346">
        <ele>844</ele>
        <time>2018-05-13T09:08:05.755Z</time>
      </trkpt>
      <trkpt lat="40.858705" lon="0.326315">
        <ele>842</ele>
        <time>2018-05-13T09:08:14.753Z</time>
      </trkpt>
      <trkpt lat="40.858608" lon="0.326268">
        <ele>841.480369404503</ele>
        <time>2018-05-13T09:08:18.766Z</time>
      </trkpt>
      <trkpt lat="40.858491" lon="0.326214">
        <ele>840.3459968</ele>
        <time>2018-05-13T09:08:22.864Z</time>
      </trkpt>
      <trkpt lat="40.858384" lon="0.326198">
        <ele>840</ele>
        <time>2018-05-13T09:08:25.764Z</time>
      </trkpt>
      <trkpt lat="40.858271" lon="0.326143">
        <ele>840</ele>
        <time>2018-05-13T09:08:28.753Z</time>
      </trkpt>
      <trkpt lat="40.858169" lon="0.326127">
        <ele>840</ele>
        <time>2018-05-13T09:08:32.763Z</time>
      </trkpt>
      <trkpt lat="40.858075" lon="0.326088">
        <ele>840</ele>
        <time>2018-05-13T09:08:35.753Z</time>
      </trkpt>
      <trkpt lat="40.858003" lon="0.325995">
        <ele>839</ele>
        <time>2018-05-13T09:08:39.764Z</time>
      </trkpt>
      <trkpt lat="40.857936" lon="0.325887">
        <ele>839.077189565217</ele>
        <time>2018-05-13T09:08:43.763Z</time>
      </trkpt>
      <trkpt lat="40.857869" lon="0.325718">
        <ele>835.509730182823</ele>
        <time>2018-05-13T09:08:48.764Z</time>
      </trkpt>
      <trkpt lat="40.857945" lon="0.325628">
        <ele>837</ele>
        <time>2018-05-13T09:08:55.865Z</time>
      </trkpt>
      <trkpt lat="40.858006" lon="0.3255">
        <ele>837</ele>
        <time>2018-05-13T09:08:59.763Z</time>
      </trkpt>
      <trkpt lat="40.858092" lon="0.325413">
        <ele>833</ele>
        <time>2018-05-13T09:09:03.755Z</time>
      </trkpt>
      <trkpt lat="40.85816" lon="0.325329">
        <ele>831.529123016317</ele>
        <time>2018-05-13T09:09:06.755Z</time>
      </trkpt>
      <trkpt lat="40.858141" lon="0.325201">
        <ele>829</ele>
        <time>2018-05-13T09:09:09.765Z</time>
      </trkpt>
      <trkpt lat="40.858098" lon="0.325096">
        <ele>828.459785434344</ele>
        <time>2018-05-13T09:09:14.764Z</time>
      </trkpt>
      <trkpt lat="40.858069" lon="0.324973">
        <ele>826.53255838183</ele>
        <time>2018-05-13T09:09:18.752Z</time>
      </trkpt>
      <trkpt lat="40.858022" lon="0.324871">
        <ele>826.205686158201</ele>
        <time>2018-05-13T09:09:21.753Z</time>
      </trkpt>
      <trkpt lat="40.857966" lon="0.32475">
        <ele>827</ele>
        <time>2018-05-13T09:09:24.864Z</time>
      </trkpt>
      <trkpt lat="40.857985" lon="0.324594">
        <ele>827</ele>
        <time>2018-05-13T09:09:27.764Z</time>
      </trkpt>
      <trkpt lat="40.858078" lon="0.324492">
        <ele>827</ele>
        <time>2018-05-13T09:09:31.764Z</time>
      </trkpt>
      <trkpt lat="40.858168" lon="0.324476">
        <ele>827</ele>
        <time>2018-05-13T09:09:33.764Z</time>
      </trkpt>
      <trkpt lat="40.858269" lon="0.324417">
        <ele>824.011345454545</ele>
        <time>2018-05-13T09:09:36.765Z</time>
      </trkpt>
      <trkpt lat="40.858374" lon="0.324344">
        <ele>820.570868482851</ele>
        <time>2018-05-13T09:09:39.755Z</time>
      </trkpt>
      <trkpt lat="40.858447" lon="0.32424">
        <ele>819</ele>
        <time>2018-05-13T09:09:42.753Z</time>
      </trkpt>
      <trkpt lat="40.85848" lon="0.324129">
        <ele>816.485853670318</ele>
        <time>2018-05-13T09:09:45.755Z</time>
      </trkpt>
      <trkpt lat="40.858446" lon="0.324013">
        <ele>813</ele>
        <time>2018-05-13T09:09:48.754Z</time>
      </trkpt>
      <trkpt lat="40.858372" lon="0.32391">
        <ele>812</ele>
        <time>2018-05-13T09:09:51.759Z</time>
      </trkpt>
      <trkpt lat="40.858309" lon="0.323812">
        <ele>811</ele>
        <time>2018-05-13T09:09:54.753Z</time>
      </trkpt>
      <trkpt lat="40.858256" lon="0.323667">
        <ele>811.616952498725</ele>
        <time>2018-05-13T09:09:58.752Z</time>
      </trkpt>
      <trkpt lat="40.858255" lon="0.323536">
        <ele>810.448</ele>
        <time>2018-05-13T09:10:01.762Z</time>
      </trkpt>
      <trkpt lat="40.85825" lon="0.323366">
        <ele>810</ele>
        <time>2018-05-13T09:10:05.764Z</time>
      </trkpt>
      <trkpt lat="40.858312" lon="0.323254">
        <ele>810</ele>
        <time>2018-05-13T09:10:08.764Z</time>
      </trkpt>
      <trkpt lat="40.858384" lon="0.32312">
        <ele>809</ele>
        <time>2018-05-13T09:10:11.765Z</time>
      </trkpt>
      <trkpt lat="40.85844" lon="0.32301">
        <ele>809</ele>
        <time>2018-05-13T09:10:14.753Z</time>
      </trkpt>
      <trkpt lat="40.85851" lon="0.322904">
        <ele>808</ele>
        <time>2018-05-13T09:10:17.755Z</time>
      </trkpt>
      <trkpt lat="40.858636" lon="0.322782">
        <ele>808</ele>
        <time>2018-05-13T09:10:22.764Z</time>
      </trkpt>
      <trkpt lat="40.858717" lon="0.322717">
        <ele>807.4460032</ele>
        <time>2018-05-13T09:10:25.764Z</time>
      </trkpt>
      <trkpt lat="40.858816" lon="0.322658">
        <ele>803.484047550962</ele>
        <time>2018-05-13T09:10:28.755Z</time>
      </trkpt>
      <trkpt lat="40.858861" lon="0.322541">
        <ele>800.9100032</ele>
        <time>2018-05-13T09:10:31.755Z</time>
      </trkpt>
      <trkpt lat="40.858922" lon="0.322428">
        <ele>797.583971703275</ele>
        <time>2018-05-13T09:10:34.755Z</time>
      </trkpt>
      <trkpt lat="40.858969" lon="0.322322">
        <ele>793.698923695221</ele>
        <time>2018-05-13T09:10:37.760Z</time>
      </trkpt>
      <trkpt lat="40.85904" lon="0.322218">
        <ele>790.4569984</ele>
        <time>2018-05-13T09:10:41.753Z</time>
      </trkpt>
      <trkpt lat="40.859146" lon="0.322158">
        <ele>786.490111683124</ele>
        <time>2018-05-13T09:10:45.764Z</time>
      </trkpt>
      <trkpt lat="40.859242" lon="0.322164">
        <ele>784</ele>
        <time>2018-05-13T09:10:48.753Z</time>
      </trkpt>
      <trkpt lat="40.859348" lon="0.322206">
        <ele>782.597777546009</ele>
        <time>2018-05-13T09:10:51.753Z</time>
      </trkpt>
      <trkpt lat="40.859443" lon="0.322277">
        <ele>782</ele>
        <time>2018-05-13T09:10:54.753Z</time>
      </trkpt>
      <trkpt lat="40.859529" lon="0.322336">
        <ele>781.538554068225</ele>
        <time>2018-05-13T09:10:57.763Z</time>
      </trkpt>
      <trkpt lat="40.859657" lon="0.32238">
        <ele>782</ele>
        <time>2018-05-13T09:11:01.764Z</time>
      </trkpt>
      <trkpt lat="40.859774" lon="0.322378">
        <ele>780.580295757576</ele>
        <time>2018-05-13T09:11:04.764Z</time>
      </trkpt>
      <trkpt lat="40.859892" lon="0.32242">
        <ele>779</ele>
        <time>2018-05-13T09:11:07.755Z</time>
      </trkpt>
      <trkpt lat="40.859991" lon="0.322476">
        <ele>777</ele>
        <time>2018-05-13T09:11:10.763Z</time>
      </trkpt>
      <trkpt lat="40.860062" lon="0.322561">
        <ele>777.4569984</ele>
        <time>2018-05-13T09:11:13.753Z</time>
      </trkpt>
      <trkpt lat="40.860139" lon="0.322636">
        <ele>775</ele>
        <time>2018-05-13T09:11:16.752Z</time>
      </trkpt>
      <trkpt lat="40.860224" lon="0.322687">
        <ele>774.562986927907</ele>
        <time>2018-05-13T09:11:20.765Z</time>
      </trkpt>
      <trkpt lat="40.860313" lon="0.322693">
        <ele>770.425986958143</ele>
        <time>2018-05-13T09:11:33.751Z</time>
      </trkpt>
      <trkpt lat="40.860427" lon="0.322721">
        <ele>770</ele>
        <time>2018-05-13T09:11:37.754Z</time>
      </trkpt>
      <trkpt lat="40.860543" lon="0.32267">
        <ele>769</ele>
        <time>2018-05-13T09:11:40.763Z</time>
      </trkpt>
      <trkpt lat="40.86065" lon="0.322612">
        <ele>769</ele>
        <time>2018-05-13T09:11:43.764Z</time>
      </trkpt>
      <trkpt lat="40.860749" lon="0.322566">
        <ele>769</ele>
        <time>2018-05-13T09:11:46.763Z</time>
      </trkpt>
      <trkpt lat="40.860856" lon="0.322527">
        <ele>769</ele>
        <time>2018-05-13T09:11:50.764Z</time>
      </trkpt>
      <trkpt lat="40.860944" lon="0.322476">
        <ele>768</ele>
        <time>2018-05-13T09:11:53.763Z</time>
      </trkpt>
      <trkpt lat="40.861014" lon="0.322384">
        <ele>767</ele>
        <time>2018-05-13T09:11:57.755Z</time>
      </trkpt>
      <trkpt lat="40.861035" lon="0.322264">
        <ele>764.626667551603</ele>
        <time>2018-05-13T09:12:06.754Z</time>
      </trkpt>
      <trkpt lat="40.861032" lon="0.322124">
        <ele>761</ele>
        <time>2018-05-13T09:12:15.753Z</time>
      </trkpt>
      <trkpt lat="40.860956" lon="0.32204">
        <ele>760</ele>
        <time>2018-05-13T09:12:20.754Z</time>
      </trkpt>
      <trkpt lat="40.860849" lon="0.322016">
        <ele>759</ele>
        <time>2018-05-13T09:12:24.751Z</time>
      </trkpt>
      <trkpt lat="40.86075" lon="0.32199">
        <ele>758</ele>
        <time>2018-05-13T09:12:28.762Z</time>
      </trkpt>
      <trkpt lat="40.860652" lon="0.321939">
        <ele>757</ele>
        <time>2018-05-13T09:12:32.753Z</time>
      </trkpt>
      <trkpt lat="40.860574" lon="0.32185">
        <ele>755.4579968</ele>
        <time>2018-05-13T09:12:36.752Z</time>
      </trkpt>
      <trkpt lat="40.860525" lon="0.321718">
        <ele>754</ele>
        <time>2018-05-13T09:12:39.753Z</time>
      </trkpt>
      <trkpt lat="40.860514" lon="0.321556">
        <ele>753</ele>
        <time>2018-05-13T09:12:43.792Z</time>
      </trkpt>
      <trkpt lat="40.860492" lon="0.321422">
        <ele>752</ele>
        <time>2018-05-13T09:12:46.753Z</time>
      </trkpt>
      <trkpt lat="40.860461" lon="0.321284">
        <ele>751</ele>
        <time>2018-05-13T09:12:50.754Z</time>
      </trkpt>
      <trkpt lat="40.860411" lon="0.321151">
        <ele>750</ele>
        <time>2018-05-13T09:12:55.752Z</time>
      </trkpt>
      <trkpt lat="40.860358" lon="0.32103">
        <ele>749.462128273</ele>
        <time>2018-05-13T09:12:58.764Z</time>
      </trkpt>
      <trkpt lat="40.860299" lon="0.320907">
        <ele>749</ele>
        <time>2018-05-13T09:13:01.752Z</time>
      </trkpt>
      <trkpt lat="40.860238" lon="0.320787">
        <ele>748</ele>
        <time>2018-05-13T09:13:04.764Z</time>
      </trkpt>
      <trkpt lat="40.860178" lon="0.320653">
        <ele>746.563429862519</ele>
        <time>2018-05-13T09:13:08.764Z</time>
      </trkpt>
      <trkpt lat="40.860098" lon="0.320542">
        <ele>745</ele>
        <time>2018-05-13T09:13:12.764Z</time>
      </trkpt>
      <trkpt lat="40.860027" lon="0.320444">
        <ele>744</ele>
        <time>2018-05-13T09:13:15.764Z</time>
      </trkpt>
      <trkpt lat="40.860007" lon="0.320324">
        <ele>742</ele>
        <time>2018-05-13T09:13:19.764Z</time>
      </trkpt>
      <trkpt lat="40.860098" lon="0.320352">
        <ele>740</ele>
        <time>2018-05-13T09:13:23.764Z</time>
      </trkpt>
      <trkpt lat="40.860175" lon="0.320445">
        <ele>739</ele>
        <time>2018-05-13T09:13:26.764Z</time>
      </trkpt>
      <trkpt lat="40.860241" lon="0.32053">
        <ele>737.530956190476</ele>
        <time>2018-05-13T09:13:29.764Z</time>
      </trkpt>
      <trkpt lat="40.860301" lon="0.320635">
        <ele>736</ele>
        <time>2018-05-13T09:13:33.764Z</time>
      </trkpt>
      <trkpt lat="40.860398" lon="0.320714">
        <ele>729</ele>
        <time>2018-05-13T09:13:59.764Z</time>
      </trkpt>
      <trkpt lat="40.860482" lon="0.320814">
        <ele>728</ele>
        <time>2018-05-13T09:14:03.764Z</time>
      </trkpt>
      <trkpt lat="40.860546" lon="0.320922">
        <ele>727.675749583026</ele>
        <time>2018-05-13T09:14:06.764Z</time>
      </trkpt>
      <trkpt lat="40.860614" lon="0.321005">
        <ele>726.481903182943</ele>
        <time>2018-05-13T09:14:09.754Z</time>
      </trkpt>
      <trkpt lat="40.860667" lon="0.321143">
        <ele>726</ele>
        <time>2018-05-13T09:14:13.860Z</time>
      </trkpt>
      <trkpt lat="40.860717" lon="0.321242">
        <ele>725</ele>
        <time>2018-05-13T09:14:17.764Z</time>
      </trkpt>
      <trkpt lat="40.86081" lon="0.32128">
        <ele>724</ele>
        <time>2018-05-13T09:14:20.754Z</time>
      </trkpt>
      <trkpt lat="40.860926" lon="0.321295">
        <ele>723</ele>
        <time>2018-05-13T09:14:23.763Z</time>
      </trkpt>
      <trkpt lat="40.861027" lon="0.321324">
        <ele>723</ele>
        <time>2018-05-13T09:14:26.764Z</time>
      </trkpt>
      <trkpt lat="40.861147" lon="0.321362">
        <ele>717.347309988008</ele>
        <time>2018-05-13T09:14:30.764Z</time>
      </trkpt>
      <trkpt lat="40.861259" lon="0.321387">
        <ele>711.571317618342</ele>
        <time>2018-05-13T09:14:33.754Z</time>
      </trkpt>
      <trkpt lat="40.861376" lon="0.321401">
        <ele>708.507779610877</ele>
        <time>2018-05-13T09:14:36.753Z</time>
      </trkpt>
      <trkpt lat="40.861472" lon="0.32142">
        <ele>705.4569984</ele>
        <time>2018-05-13T09:14:39.753Z</time>
      </trkpt>
      <trkpt lat="40.861566" lon="0.321409">
        <ele>700.251729655172</ele>
        <time>2018-05-13T09:14:43.754Z</time>
      </trkpt>
      <trkpt lat="40.861484" lon="0.321347">
        <ele>696.4569984</ele>
        <time>2018-05-13T09:14:47.753Z</time>
      </trkpt>
      <trkpt lat="40.861384" lon="0.321337">
        <ele>695</ele>
        <time>2018-05-13T09:14:50.763Z</time>
      </trkpt>
      <trkpt lat="40.861278" lon="0.321317">
        <ele>694</ele>
        <time>2018-05-13T09:14:54.754Z</time>
      </trkpt>
      <trkpt lat="40.86118" lon="0.321292">
        <ele>693.544</ele>
        <time>2018-05-13T09:14:57.754Z</time>
      </trkpt>
      <trkpt lat="40.861076" lon="0.321218">
        <ele>695.5540096</ele>
        <time>2018-05-13T09:15:00.764Z</time>
      </trkpt>
      <trkpt lat="40.860987" lon="0.321112">
        <ele>695.610965965878</ele>
        <time>2018-05-13T09:15:03.764Z</time>
      </trkpt>
      <trkpt lat="40.860898" lon="0.320952">
        <ele>695</ele>
        <time>2018-05-13T09:15:07.764Z</time>
      </trkpt>
      <trkpt lat="40.86085" lon="0.320844">
        <ele>696</ele>
        <time>2018-05-13T09:15:09.764Z</time>
      </trkpt>
      <trkpt lat="40.860785" lon="0.320734">
        <ele>696</ele>
        <time>2018-05-13T09:15:12.764Z</time>
      </trkpt>
      <trkpt lat="40.860711" lon="0.320626">
        <ele>693.4569984</ele>
        <time>2018-05-13T09:15:16.753Z</time>
      </trkpt>
      <trkpt lat="40.860672" lon="0.320482">
        <ele>689.651282051282</ele>
        <time>2018-05-13T09:15:21.754Z</time>
      </trkpt>
      <trkpt lat="40.860742" lon="0.320392">
        <ele>687</ele>
        <time>2018-05-13T09:15:25.754Z</time>
      </trkpt>
      <trkpt lat="40.860797" lon="0.320497">
        <ele>682.991096825577</ele>
        <time>2018-05-13T09:15:28.764Z</time>
      </trkpt>
      <trkpt lat="40.860834" lon="0.320614">
        <ele>679.456</ele>
        <time>2018-05-13T09:15:31.754Z</time>
      </trkpt>
      <trkpt lat="40.860919" lon="0.320738">
        <ele>677</ele>
        <time>2018-05-13T09:15:35.754Z</time>
      </trkpt>
      <trkpt lat="40.860993" lon="0.320806">
        <ele>677.564569286125</ele>
        <time>2018-05-13T09:15:38.763Z</time>
      </trkpt>
      <trkpt lat="40.8611" lon="0.320882">
        <ele>677</ele>
        <time>2018-05-13T09:15:42.784Z</time>
      </trkpt>
      <trkpt lat="40.861192" lon="0.32091">
        <ele>677</ele>
        <time>2018-05-13T09:15:45.753Z</time>
      </trkpt>
      <trkpt lat="40.861295" lon="0.320926">
        <ele>676</ele>
        <time>2018-05-13T09:15:48.765Z</time>
      </trkpt>
      <trkpt lat="40.861391" lon="0.320944">
        <ele>675</ele>
        <time>2018-05-13T09:15:51.754Z</time>
      </trkpt>
      <trkpt lat="40.861477" lon="0.320994">
        <ele>675</ele>
        <time>2018-05-13T09:15:54.753Z</time>
      </trkpt>
      <trkpt lat="40.861569" lon="0.321042">
        <ele>676</ele>
        <time>2018-05-13T09:15:57.749Z</time>
      </trkpt>
      <trkpt lat="40.861688" lon="0.32105">
        <ele>675</ele>
        <time>2018-05-13T09:16:01.764Z</time>
      </trkpt>
      <trkpt lat="40.861796" lon="0.320997">
        <ele>675</ele>
        <time>2018-05-13T09:16:04.764Z</time>
      </trkpt>
      <trkpt lat="40.861913" lon="0.320972">
        <ele>675</ele>
        <time>2018-05-13T09:16:08.764Z</time>
      </trkpt>
      <trkpt lat="40.862008" lon="0.32095">
        <ele>674.501097138999</ele>
        <time>2018-05-13T09:16:11.754Z</time>
      </trkpt>
      <trkpt lat="40.862106" lon="0.320941">
        <ele>673.4569984</ele>
        <time>2018-05-13T09:16:14.753Z</time>
      </trkpt>
      <trkpt lat="40.862191" lon="0.320885">
        <ele>672</ele>
        <time>2018-05-13T09:16:17.754Z</time>
      </trkpt>
      <trkpt lat="40.862282" lon="0.320804">
        <ele>671.524696563564</ele>
        <time>2018-05-13T09:16:20.764Z</time>
      </trkpt>
      <trkpt lat="40.862374" lon="0.320726">
        <ele>670</ele>
        <time>2018-05-13T09:16:24.764Z</time>
      </trkpt>
      <trkpt lat="40.862456" lon="0.320654">
        <ele>669</ele>
        <time>2018-05-13T09:16:27.765Z</time>
      </trkpt>
      <trkpt lat="40.86256" lon="0.32064">
        <ele>668.44949122739</ele>
        <time>2018-05-13T09:16:30.765Z</time>
      </trkpt>
      <trkpt lat="40.862643" lon="0.320714">
        <ele>667</ele>
        <time>2018-05-13T09:16:33.755Z</time>
      </trkpt>
      <trkpt lat="40.862687" lon="0.320835">
        <ele>666</ele>
        <time>2018-05-13T09:16:36.752Z</time>
      </trkpt>
      <trkpt lat="40.862696" lon="0.320975">
        <ele>665</ele>
        <time>2018-05-13T09:16:39.752Z</time>
      </trkpt>
      <trkpt lat="40.862659" lon="0.321123">
        <ele>663.4579968</ele>
        <time>2018-05-13T09:16:43.752Z</time>
      </trkpt>
      <trkpt lat="40.86264" lon="0.321247">
        <ele>663</ele>
        <time>2018-05-13T09:16:46.752Z</time>
      </trkpt>
      <trkpt lat="40.862656" lon="0.321383">
        <ele>662.4429952</ele>
        <time>2018-05-13T09:16:50.767Z</time>
      </trkpt>
      <trkpt lat="40.862707" lon="0.321278">
        <ele>661</ele>
        <time>2018-05-13T09:16:55.765Z</time>
      </trkpt>
      <trkpt lat="40.862741" lon="0.321127">
        <ele>659.572440762354</ele>
        <time>2018-05-13T09:16:59.753Z</time>
      </trkpt>
      <trkpt lat="40.86278" lon="0.320983">
        <ele>659</ele>
        <time>2018-05-13T09:17:03.755Z</time>
      </trkpt>
      <trkpt lat="40.862859" lon="0.320899">
        <ele>657</ele>
        <time>2018-05-13T09:17:07.753Z</time>
      </trkpt>
      <trkpt lat="40.862853" lon="0.321036">
        <ele>656</ele>
        <time>2018-05-13T09:17:12.752Z</time>
      </trkpt>
      <trkpt lat="40.862806" lon="0.321144">
        <ele>655</ele>
        <time>2018-05-13T09:17:15.764Z</time>
      </trkpt>
      <trkpt lat="40.86279" lon="0.321264">
        <ele>654.476340563753</ele>
        <time>2018-05-13T09:17:18.767Z</time>
      </trkpt>
      <trkpt lat="40.862798" lon="0.321406">
        <ele>654</ele>
        <time>2018-05-13T09:17:21.752Z</time>
      </trkpt>
      <trkpt lat="40.862812" lon="0.321531">
        <ele>654</ele>
        <time>2018-05-13T09:17:24.752Z</time>
      </trkpt>
      <trkpt lat="40.862814" lon="0.321656">
        <ele>654</ele>
        <time>2018-05-13T09:17:27.752Z</time>
      </trkpt>
      <trkpt lat="40.862826" lon="0.321779">
        <ele>653</ele>
        <time>2018-05-13T09:17:30.752Z</time>
      </trkpt>
      <trkpt lat="40.862832" lon="0.321907">
        <ele>653</ele>
        <time>2018-05-13T09:17:33.767Z</time>
      </trkpt>
      <trkpt lat="40.862855" lon="0.322032">
        <ele>653</ele>
        <time>2018-05-13T09:17:36.752Z</time>
      </trkpt>
      <trkpt lat="40.862928" lon="0.321949">
        <ele>651</ele>
        <time>2018-05-13T09:17:42.751Z</time>
      </trkpt>
      <trkpt lat="40.862948" lon="0.32183">
        <ele>650</ele>
        <time>2018-05-13T09:17:45.753Z</time>
      </trkpt>
      <trkpt lat="40.862994" lon="0.321685">
        <ele>650</ele>
        <time>2018-05-13T09:17:49.753Z</time>
      </trkpt>
      <trkpt lat="40.862983" lon="0.321557">
        <ele>649</ele>
        <time>2018-05-13T09:17:52.753Z</time>
      </trkpt>
      <trkpt lat="40.863054" lon="0.321457">
        <ele>649</ele>
        <time>2018-05-13T09:17:56.763Z</time>
      </trkpt>
      <trkpt lat="40.863109" lon="0.321338">
        <ele>648</ele>
        <time>2018-05-13T09:18:00.861Z</time>
      </trkpt>
      <trkpt lat="40.863089" lon="0.321457">
        <ele>646.460395914126</ele>
        <time>2018-05-13T09:18:06.755Z</time>
      </trkpt>
      <trkpt lat="40.86308" lon="0.321626">
        <ele>646</ele>
        <time>2018-05-13T09:18:10.764Z</time>
      </trkpt>
      <trkpt lat="40.863056" lon="0.321866">
        <ele>639.257369528299</ele>
        <time>2018-05-13T09:18:16.764Z</time>
      </trkpt>
      <trkpt lat="40.863061" lon="0.321987">
        <ele>628.779968</ele>
        <time>2018-05-13T09:18:20.765Z</time>
      </trkpt>
      <trkpt lat="40.863077" lon="0.322136">
        <ele>625.467648830439</ele>
        <time>2018-05-13T09:18:23.753Z</time>
      </trkpt>
      <trkpt lat="40.863031" lon="0.322258">
        <ele>620.394165333333</ele>
        <time>2018-05-13T09:18:26.753Z</time>
      </trkpt>
      <trkpt lat="40.862962" lon="0.322337">
        <ele>619.498902861001</ele>
        <time>2018-05-13T09:18:29.754Z</time>
      </trkpt>
      <trkpt lat="40.862925" lon="0.322461">
        <ele>619.472413488701</ele>
        <time>2018-05-13T09:18:33.751Z</time>
      </trkpt>
      <trkpt lat="40.863053" lon="0.322706">
        <ele>625.663507692308</ele>
        <time>2018-05-13T09:18:40.764Z</time>
      </trkpt>
      <trkpt lat="40.863132" lon="0.322768">
        <ele>629.243540645161</ele>
        <time>2018-05-13T09:18:41.764Z</time>
      </trkpt>
      <trkpt lat="40.863253" lon="0.322848">
        <ele>633.98928</ele>
        <time>2018-05-13T09:18:43.764Z</time>
      </trkpt>
      <trkpt lat="40.863349" lon="0.322806">
        <ele>636</ele>
        <time>2018-05-13T09:18:47.753Z</time>
      </trkpt>
      <trkpt lat="40.863484" lon="0.322843">
        <ele>636</ele>
        <time>2018-05-13T09:18:50.753Z</time>
      </trkpt>
      <trkpt lat="40.863503" lon="0.322647">
        <ele>630.246247083</ele>
        <time>2018-05-13T09:18:56.764Z</time>
      </trkpt>
      <trkpt lat="40.863424" lon="0.322478">
        <ele>625.379356303031</ele>
        <time>2018-05-13T09:18:58.764Z</time>
      </trkpt>
      <trkpt lat="40.863407" lon="0.322358">
        <ele>621.486956521739</ele>
        <time>2018-05-13T09:19:00.762Z</time>
      </trkpt>
      <trkpt lat="40.863391" lon="0.322202">
        <ele>618.374493874246</ele>
        <time>2018-05-13T09:19:05.761Z</time>
      </trkpt>
      <trkpt lat="40.863357" lon="0.322066">
        <ele>614.611428571429</ele>
        <time>2018-05-13T09:19:08.754Z</time>
      </trkpt>
      <trkpt lat="40.863333" lon="0.321937">
        <ele>615</ele>
        <time>2018-05-13T09:19:11.719Z</time>
      </trkpt>
      <trkpt lat="40.86339" lon="0.321819">
        <ele>614</ele>
        <time>2018-05-13T09:19:15.764Z</time>
      </trkpt>
      <trkpt lat="40.863447" lon="0.321695">
        <ele>614</ele>
        <time>2018-05-13T09:19:19.751Z</time>
      </trkpt>
      <trkpt lat="40.863532" lon="0.321603">
        <ele>613.455108278258</ele>
        <time>2018-05-13T09:19:23.764Z</time>
      </trkpt>
      <trkpt lat="40.863669" lon="0.321485">
        <ele>613</ele>
        <time>2018-05-13T09:19:28.764Z</time>
      </trkpt>
      <trkpt lat="40.863795" lon="0.321358">
        <ele>611.456856741291</ele>
        <time>2018-05-13T09:19:34.764Z</time>
      </trkpt>
      <trkpt lat="40.863855" lon="0.321247">
        <ele>607</ele>
        <time>2018-05-13T09:19:38.764Z</time>
      </trkpt>
      <trkpt lat="40.863924" lon="0.321151">
        <ele>606</ele>
        <time>2018-05-13T09:19:42.754Z</time>
      </trkpt>
      <trkpt lat="40.864028" lon="0.321107">
        <ele>606.563773067658</ele>
        <time>2018-05-13T09:19:46.764Z</time>
      </trkpt>
      <trkpt lat="40.864102" lon="0.321011">
        <ele>606</ele>
        <time>2018-05-13T09:19:49.754Z</time>
      </trkpt>
      <trkpt lat="40.864186" lon="0.320925">
        <ele>605.469481796869</ele>
        <time>2018-05-13T09:19:53.764Z</time>
      </trkpt>
      <trkpt lat="40.864168" lon="0.320796">
        <ele>600.7880064</ele>
        <time>2018-05-13T09:19:56.763Z</time>
      </trkpt>
      <trkpt lat="40.864113" lon="0.320692">
        <ele>599</ele>
        <time>2018-05-13T09:19:59.865Z</time>
      </trkpt>
      <trkpt lat="40.864025" lon="0.320606">
        <ele>600</ele>
        <time>2018-05-13T09:20:02.764Z</time>
      </trkpt>
      <trkpt lat="40.863958" lon="0.320487">
        <ele>597.563773067658</ele>
        <time>2018-05-13T09:20:06.764Z</time>
      </trkpt>
      <trkpt lat="40.863914" lon="0.32038">
        <ele>593.0820096</ele>
        <time>2018-05-13T09:20:14.751Z</time>
      </trkpt>
      <trkpt lat="40.863849" lon="0.320271">
        <ele>597</ele>
        <time>2018-05-13T09:20:18.763Z</time>
      </trkpt>
      <trkpt lat="40.863803" lon="0.320157">
        <ele>599.42422</ele>
        <time>2018-05-13T09:20:21.753Z</time>
      </trkpt>
      <trkpt lat="40.863811" lon="0.320021">
        <ele>599</ele>
        <time>2018-05-13T09:20:25.753Z</time>
      </trkpt>
      <trkpt lat="40.863833" lon="0.319885">
        <ele>599</ele>
        <time>2018-05-13T09:20:29.755Z</time>
      </trkpt>
      <trkpt lat="40.863893" lon="0.319761">
        <ele>599</ele>
        <time>2018-05-13T09:20:33.763Z</time>
      </trkpt>
      <trkpt lat="40.863939" lon="0.319648">
        <ele>598</ele>
        <time>2018-05-13T09:20:36.752Z</time>
      </trkpt>
      <trkpt lat="40.863992" lon="0.319538">
        <ele>597</ele>
        <time>2018-05-13T09:20:39.754Z</time>
      </trkpt>
      <trkpt lat="40.864054" lon="0.319434">
        <ele>595.524136003178</ele>
        <time>2018-05-13T09:20:42.754Z</time>
      </trkpt>
      <trkpt lat="40.864106" lon="0.319296">
        <ele>595</ele>
        <time>2018-05-13T09:20:46.753Z</time>
      </trkpt>
      <trkpt lat="40.864144" lon="0.319181">
        <ele>595</ele>
        <time>2018-05-13T09:20:49.753Z</time>
      </trkpt>
      <trkpt lat="40.864182" lon="0.31904">
        <ele>594</ele>
        <time>2018-05-13T09:20:52.753Z</time>
      </trkpt>
      <trkpt lat="40.864239" lon="0.318941">
        <ele>591.640005342653</ele>
        <time>2018-05-13T09:20:55.754Z</time>
      </trkpt>
      <trkpt lat="40.864315" lon="0.318875">
        <ele>590.50225079461</ele>
        <time>2018-05-13T09:20:58.763Z</time>
      </trkpt>
      <trkpt lat="40.864404" lon="0.318818">
        <ele>590</ele>
        <time>2018-05-13T09:21:01.754Z</time>
      </trkpt>
      <trkpt lat="40.864478" lon="0.318734">
        <ele>588.7</ele>
        <time>2018-05-13T09:21:04.754Z</time>
      </trkpt>
      <trkpt lat="40.864554" lon="0.318621">
        <ele>587.4599936</ele>
        <time>2018-05-13T09:21:07.750Z</time>
      </trkpt>
      <trkpt lat="40.864619" lon="0.318525">
        <ele>587</ele>
        <time>2018-05-13T09:21:10.753Z</time>
      </trkpt>
      <trkpt lat="40.864697" lon="0.318452">
        <ele>586.496671976334</ele>
        <time>2018-05-13T09:21:13.763Z</time>
      </trkpt>
      <trkpt lat="40.864774" lon="0.318369">
        <ele>586.456</ele>
        <time>2018-05-13T09:21:16.754Z</time>
      </trkpt>
      <trkpt lat="40.864874" lon="0.318295">
        <ele>585.518181818182</ele>
        <time>2018-05-13T09:21:20.754Z</time>
      </trkpt>
      <trkpt lat="40.86495" lon="0.318228">
        <ele>584</ele>
        <time>2018-05-13T09:21:24.754Z</time>
      </trkpt>
      <trkpt lat="40.865026" lon="0.318153">
        <ele>584</ele>
        <time>2018-05-13T09:21:28.764Z</time>
      </trkpt>
      <trkpt lat="40.865088" lon="0.318064">
        <ele>584</ele>
        <time>2018-05-13T09:21:31.753Z</time>
      </trkpt>
      <trkpt lat="40.865184" lon="0.31798">
        <ele>583</ele>
        <time>2018-05-13T09:21:35.753Z</time>
      </trkpt>
      <trkpt lat="40.865265" lon="0.317906">
        <ele>583</ele>
        <time>2018-05-13T09:21:39.754Z</time>
      </trkpt>
      <trkpt lat="40.865332" lon="0.317813">
        <ele>583</ele>
        <time>2018-05-13T09:21:42.755Z</time>
      </trkpt>
      <trkpt lat="40.865422" lon="0.317712">
        <ele>583</ele>
        <time>2018-05-13T09:21:46.752Z</time>
      </trkpt>
      <trkpt lat="40.86549" lon="0.317633">
        <ele>583</ele>
        <time>2018-05-13T09:21:49.754Z</time>
      </trkpt>
      <trkpt lat="40.865561" lon="0.317499">
        <ele>583</ele>
        <time>2018-05-13T09:21:52.764Z</time>
      </trkpt>
      <trkpt lat="40.865626" lon="0.317366">
        <ele>583</ele>
        <time>2018-05-13T09:21:55.764Z</time>
      </trkpt>
      <trkpt lat="40.865688" lon="0.317251">
        <ele>582.43282</ele>
        <time>2018-05-13T09:21:58.764Z</time>
      </trkpt>
      <trkpt lat="40.865776" lon="0.317139">
        <ele>581.705378771196</ele>
        <time>2018-05-13T09:22:01.764Z</time>
      </trkpt>
      <trkpt lat="40.865837" lon="0.317014">
        <ele>578.4460032</ele>
        <time>2018-05-13T09:22:05.764Z</time>
      </trkpt>
      <trkpt lat="40.865846" lon="0.316877">
        <ele>576.506365053876</ele>
        <time>2018-05-13T09:22:08.753Z</time>
      </trkpt>
      <trkpt lat="40.865899" lon="0.316738">
        <ele>577</ele>
        <time>2018-05-13T09:22:12.763Z</time>
      </trkpt>
      <trkpt lat="40.865921" lon="0.3166">
        <ele>576</ele>
        <time>2018-05-13T09:22:16.753Z</time>
      </trkpt>
      <trkpt lat="40.865942" lon="0.316469">
        <ele>574.629914885237</ele>
        <time>2018-05-13T09:22:19.753Z</time>
      </trkpt>
      <trkpt lat="40.865942" lon="0.316332">
        <ele>575</ele>
        <time>2018-05-13T09:22:22.763Z</time>
      </trkpt>
      <trkpt lat="40.865915" lon="0.316201">
        <ele>575</ele>
        <time>2018-05-13T09:22:25.764Z</time>
      </trkpt>
      <trkpt lat="40.865898" lon="0.316063">
        <ele>575</ele>
        <time>2018-05-13T09:22:28.763Z</time>
      </trkpt>
      <trkpt lat="40.865906" lon="0.315907">
        <ele>576</ele>
        <time>2018-05-13T09:22:32.754Z</time>
      </trkpt>
      <trkpt lat="40.865921" lon="0.315757">
        <ele>575</ele>
        <time>2018-05-13T09:22:36.753Z</time>
      </trkpt>
      <trkpt lat="40.865961" lon="0.31563">
        <ele>574</ele>
        <time>2018-05-13T09:22:39.754Z</time>
      </trkpt>
      <trkpt lat="40.866034" lon="0.315539">
        <ele>574</ele>
        <time>2018-05-13T09:22:42.754Z</time>
      </trkpt>
      <trkpt lat="40.866123" lon="0.315442">
        <ele>573</ele>
        <time>2018-05-13T09:22:45.764Z</time>
      </trkpt>
      <trkpt lat="40.866197" lon="0.315353">
        <ele>573</ele>
        <time>2018-05-13T09:22:48.764Z</time>
      </trkpt>
      <trkpt lat="40.866268" lon="0.315272">
        <ele>573</ele>
        <time>2018-05-13T09:22:51.754Z</time>
      </trkpt>
      <trkpt lat="40.866325" lon="0.315172">
        <ele>573</ele>
        <time>2018-05-13T09:22:54.764Z</time>
      </trkpt>
      <trkpt lat="40.866352" lon="0.315052">
        <ele>573</ele>
        <time>2018-05-13T09:22:57.764Z</time>
      </trkpt>
      <trkpt lat="40.866398" lon="0.314912">
        <ele>573</ele>
        <time>2018-05-13T09:23:01.764Z</time>
      </trkpt>
      <trkpt lat="40.866453" lon="0.31477">
        <ele>573.5449984</ele>
        <time>2018-05-13T09:23:05.755Z</time>
      </trkpt>
      <trkpt lat="40.866529" lon="0.314701">
        <ele>574</ele>
        <time>2018-05-13T09:23:08.754Z</time>
      </trkpt>
      <trkpt lat="40.866611" lon="0.31461">
        <ele>574</ele>
        <time>2018-05-13T09:23:12.754Z</time>
      </trkpt>
      <trkpt lat="40.866698" lon="0.314562">
        <ele>574</ele>
        <time>2018-05-13T09:23:14.764Z</time>
      </trkpt>
      <trkpt lat="40.866793" lon="0.314534">
        <ele>575</ele>
        <time>2018-05-13T09:23:17.764Z</time>
      </trkpt>
      <trkpt lat="40.866877" lon="0.314447">
        <ele>574</ele>
        <time>2018-05-13T09:23:21.764Z</time>
      </trkpt>
      <trkpt lat="40.866966" lon="0.314425">
        <ele>572.473333252063</ele>
        <time>2018-05-13T09:23:25.763Z</time>
      </trkpt>
      <trkpt lat="40.867051" lon="0.314473">
        <ele>573</ele>
        <time>2018-05-13T09:23:28.754Z</time>
      </trkpt>
      <trkpt lat="40.86707" lon="0.314595">
        <ele>573</ele>
        <time>2018-05-13T09:23:38.764Z</time>
      </trkpt>
      <trkpt lat="40.8671" lon="0.314714">
        <ele>574</ele>
        <time>2018-05-13T09:23:47.764Z</time>
      </trkpt>
      <trkpt lat="40.86716" lon="0.314824">
        <ele>575.5539968</ele>
        <time>2018-05-13T09:23:57.764Z</time>
      </trkpt>
      <trkpt lat="40.867227" lon="0.314928">
        <ele>577</ele>
        <time>2018-05-13T09:24:03.764Z</time>
      </trkpt>
      <trkpt lat="40.867275" lon="0.315035">
        <ele>578</ele>
        <time>2018-05-13T09:24:08.764Z</time>
      </trkpt>
      <trkpt lat="40.867349" lon="0.315135">
        <ele>580</ele>
        <time>2018-05-13T09:24:14.764Z</time>
      </trkpt>
      <trkpt lat="40.867434" lon="0.315191">
        <ele>580</ele>
        <time>2018-05-13T09:24:17.764Z</time>
      </trkpt>
      <trkpt lat="40.867501" lon="0.315287">
        <ele>582</ele>
        <time>2018-05-13T09:24:22.764Z</time>
      </trkpt>
      <trkpt lat="40.86752" lon="0.315409">
        <ele>582</ele>
        <time>2018-05-13T09:24:26.764Z</time>
      </trkpt>
      <trkpt lat="40.86753" lon="0.315543">
        <ele>579</ele>
        <time>2018-05-13T09:24:30.764Z</time>
      </trkpt>
      <trkpt lat="40.86759" lon="0.315441">
        <ele>580</ele>
        <time>2018-05-13T09:24:54.764Z</time>
      </trkpt>
      <trkpt lat="40.867623" lon="0.315565">
        <ele>584</ele>
        <time>2018-05-13T09:25:20.764Z</time>
      </trkpt>
      <trkpt lat="40.8676" lon="0.315684">
        <ele>586</ele>
        <time>2018-05-13T09:25:37.764Z</time>
      </trkpt>
      <trkpt lat="40.867658" lon="0.315776">
        <ele>584</ele>
        <time>2018-05-13T09:25:46.752Z</time>
      </trkpt>
      <trkpt lat="40.867669" lon="0.315907">
        <ele>583</ele>
        <time>2018-05-13T09:25:52.753Z</time>
      </trkpt>
      <trkpt lat="40.86763" lon="0.316017">
        <ele>583</ele>
        <time>2018-05-13T09:25:59.754Z</time>
      </trkpt>
      <trkpt lat="40.867569" lon="0.316121">
        <ele>582</ele>
        <time>2018-05-13T09:26:07.752Z</time>
      </trkpt>
      <trkpt lat="40.867497" lon="0.316195">
        <ele>582</ele>
        <time>2018-05-13T09:26:12.750Z</time>
      </trkpt>
      <trkpt lat="40.867435" lon="0.316293">
        <ele>582</ele>
        <time>2018-05-13T09:26:21.753Z</time>
      </trkpt>
      <trkpt lat="40.867376" lon="0.316384">
        <ele>582</ele>
        <time>2018-05-13T09:26:27.754Z</time>
      </trkpt>
      <trkpt lat="40.867339" lon="0.316505">
        <ele>582</ele>
        <time>2018-05-13T09:26:35.764Z</time>
      </trkpt>
      <trkpt lat="40.867317" lon="0.316646">
        <ele>582</ele>
        <time>2018-05-13T09:26:43.764Z</time>
      </trkpt>
      <trkpt lat="40.867333" lon="0.316769">
        <ele>582</ele>
        <time>2018-05-13T09:26:52.750Z</time>
      </trkpt>
      <trkpt lat="40.867362" lon="0.316886">
        <ele>582</ele>
        <time>2018-05-13T09:26:58.764Z</time>
      </trkpt>
      <trkpt lat="40.867397" lon="0.317">
        <ele>582</ele>
        <time>2018-05-13T09:27:17.764Z</time>
      </trkpt>
      <trkpt lat="40.867475" lon="0.317068">
        <ele>582</ele>
        <time>2018-05-13T09:27:25.764Z</time>
      </trkpt>
      <trkpt lat="40.867527" lon="0.317207">
        <ele>587</ele>
        <time>2018-05-13T09:27:46.764Z</time>
      </trkpt>
      <trkpt lat="40.867576" lon="0.317323">
        <ele>587</ele>
        <time>2018-05-13T09:27:58.764Z</time>
      </trkpt>
      <trkpt lat="40.86766" lon="0.31739">
        <ele>584</ele>
        <time>2018-05-13T09:28:08.754Z</time>
      </trkpt>
      <trkpt lat="40.867739" lon="0.317449">
        <ele>584</ele>
        <time>2018-05-13T09:28:15.764Z</time>
      </trkpt>
      <trkpt lat="40.867756" lon="0.317567">
        <ele>587</ele>
        <time>2018-05-13T09:28:24.762Z</time>
      </trkpt>
      <trkpt lat="40.86784" lon="0.317655">
        <ele>588</ele>
        <time>2018-05-13T09:28:33.751Z</time>
      </trkpt>
      <trkpt lat="40.867834" lon="0.317794">
        <ele>586</ele>
        <time>2018-05-13T09:28:45.754Z</time>
      </trkpt>
      <trkpt lat="40.867814" lon="0.317933">
        <ele>586</ele>
        <time>2018-05-13T09:28:51.751Z</time>
      </trkpt>
      <trkpt lat="40.867882" lon="0.31807">
        <ele>585</ele>
        <time>2018-05-13T09:29:00.778Z</time>
      </trkpt>
      <trkpt lat="40.867898" lon="0.318194">
        <ele>586.43711484409</ele>
        <time>2018-05-13T09:29:10.754Z</time>
      </trkpt>
      <trkpt lat="40.867909" lon="0.318319">
        <ele>584.694615723409</ele>
        <time>2018-05-13T09:29:18.764Z</time>
      </trkpt>
      <trkpt lat="40.867919" lon="0.318445">
        <ele>581</ele>
        <time>2018-05-13T09:29:30.751Z</time>
      </trkpt>
      <trkpt lat="40.86785" lon="0.318528">
        <ele>581</ele>
        <time>2018-05-13T09:29:37.868Z</time>
      </trkpt>
      <trkpt lat="40.867828" lon="0.318657">
        <ele>581</ele>
        <time>2018-05-13T09:29:42.763Z</time>
      </trkpt>
      <trkpt lat="40.867783" lon="0.318786">
        <ele>581</ele>
        <time>2018-05-13T09:29:49.751Z</time>
      </trkpt>
      <trkpt lat="40.867771" lon="0.318911">
        <ele>581</ele>
        <time>2018-05-13T09:29:58.753Z</time>
      </trkpt>
      <trkpt lat="40.867742" lon="0.319035">
        <ele>581</ele>
        <time>2018-05-13T09:30:04.754Z</time>
      </trkpt>
      <trkpt lat="40.867708" lon="0.319152">
        <ele>582</ele>
        <time>2018-05-13T09:30:09.754Z</time>
      </trkpt>
      <trkpt lat="40.867705" lon="0.319281">
        <ele>583</ele>
        <time>2018-05-13T09:30:16.754Z</time>
      </trkpt>
      <trkpt lat="40.867618" lon="0.319338">
        <ele>583</ele>
        <time>2018-05-13T09:30:20.764Z</time>
      </trkpt>
      <trkpt lat="40.867525" lon="0.319389">
        <ele>585</ele>
        <time>2018-05-13T09:30:26.764Z</time>
      </trkpt>
      <trkpt lat="40.867438" lon="0.319456">
        <ele>583.595081468425</ele>
        <time>2018-05-13T09:30:40.754Z</time>
      </trkpt>
      <trkpt lat="40.867413" lon="0.319574">
        <ele>582</ele>
        <time>2018-05-13T09:30:51.751Z</time>
      </trkpt>
      <trkpt lat="40.867403" lon="0.319701">
        <ele>583</ele>
        <time>2018-05-13T09:31:01.764Z</time>
      </trkpt>
      <trkpt lat="40.867337" lon="0.3198">
        <ele>583</ele>
        <time>2018-05-13T09:31:10.754Z</time>
      </trkpt>
      <trkpt lat="40.867269" lon="0.319912">
        <ele>582.439320839761</ele>
        <time>2018-05-13T09:31:18.764Z</time>
      </trkpt>
      <trkpt lat="40.86726" lon="0.32004">
        <ele>580.42266</ele>
        <time>2018-05-13T09:31:24.751Z</time>
      </trkpt>
      <trkpt lat="40.867232" lon="0.320163">
        <ele>580.527617607978</ele>
        <time>2018-05-13T09:31:29.764Z</time>
      </trkpt>
      <trkpt lat="40.867276" lon="0.320275">
        <ele>585</ele>
        <time>2018-05-13T09:31:38.754Z</time>
      </trkpt>
      <trkpt lat="40.867285" lon="0.32041">
        <ele>586</ele>
        <time>2018-05-13T09:31:44.764Z</time>
      </trkpt>
      <trkpt lat="40.867281" lon="0.320538">
        <ele>583</ele>
        <time>2018-05-13T09:31:51.764Z</time>
      </trkpt>
      <trkpt lat="40.867258" lon="0.320675">
        <ele>581.408268187155</ele>
        <time>2018-05-13T09:31:58.764Z</time>
      </trkpt>
      <trkpt lat="40.867258" lon="0.3208">
        <ele>581.580305454546</ele>
        <time>2018-05-13T09:32:03.764Z</time>
      </trkpt>
      <trkpt lat="40.867251" lon="0.320927">
        <ele>580.470532754857</ele>
        <time>2018-05-13T09:32:07.763Z</time>
      </trkpt>
      <trkpt lat="40.86723" lon="0.321065">
        <ele>580</ele>
        <time>2018-05-13T09:32:10.764Z</time>
      </trkpt>
      <trkpt lat="40.867218" lon="0.321216">
        <ele>581</ele>
        <time>2018-05-13T09:32:14.764Z</time>
      </trkpt>
      <trkpt lat="40.86717" lon="0.321355">
        <ele>580</ele>
        <time>2018-05-13T09:32:18.764Z</time>
      </trkpt>
      <trkpt lat="40.8671" lon="0.32146">
        <ele>577.4459904</ele>
        <time>2018-05-13T09:32:22.764Z</time>
      </trkpt>
      <trkpt lat="40.867029" lon="0.321539">
        <ele>576</ele>
        <time>2018-05-13T09:32:26.764Z</time>
      </trkpt>
      <trkpt lat="40.866948" lon="0.321603">
        <ele>576</ele>
        <time>2018-05-13T09:32:30.764Z</time>
      </trkpt>
      <trkpt lat="40.86685" lon="0.321597">
        <ele>577.537871727</ele>
        <time>2018-05-13T09:32:36.764Z</time>
      </trkpt>
      <trkpt lat="40.866756" lon="0.321562">
        <ele>578</ele>
        <time>2018-05-13T09:32:42.764Z</time>
      </trkpt>
      <trkpt lat="40.866663" lon="0.321595">
        <ele>577.557488</ele>
        <time>2018-05-13T09:32:48.764Z</time>
      </trkpt>
      <trkpt lat="40.866556" lon="0.32157">
        <ele>577</ele>
        <time>2018-05-13T09:32:54.764Z</time>
      </trkpt>
      <trkpt lat="40.866456" lon="0.321501">
        <ele>578</ele>
        <time>2018-05-13T09:33:00.764Z</time>
      </trkpt>
      <trkpt lat="40.866373" lon="0.321426">
        <ele>579</ele>
        <time>2018-05-13T09:33:04.764Z</time>
      </trkpt>
      <trkpt lat="40.866268" lon="0.321392">
        <ele>579</ele>
        <time>2018-05-13T09:33:08.863Z</time>
      </trkpt>
      <trkpt lat="40.866168" lon="0.321446">
        <ele>579.5430016</ele>
        <time>2018-05-13T09:33:14.753Z</time>
      </trkpt>
      <trkpt lat="40.866086" lon="0.321522">
        <ele>580</ele>
        <time>2018-05-13T09:33:20.753Z</time>
      </trkpt>
      <trkpt lat="40.865989" lon="0.321624">
        <ele>580</ele>
        <time>2018-05-13T09:33:26.783Z</time>
      </trkpt>
      <trkpt lat="40.865922" lon="0.321717">
        <ele>579.564569286125</ele>
        <time>2018-05-13T09:33:33.763Z</time>
      </trkpt>
      <trkpt lat="40.865836" lon="0.321772">
        <ele>580</ele>
        <time>2018-05-13T09:33:37.868Z</time>
      </trkpt>
      <trkpt lat="40.86575" lon="0.321811">
        <ele>580</ele>
        <time>2018-05-13T09:33:42.768Z</time>
      </trkpt>
      <trkpt lat="40.865671" lon="0.321881">
        <ele>582.462352799446</ele>
        <time>2018-05-13T09:33:45.753Z</time>
      </trkpt>
      <trkpt lat="40.865583" lon="0.321968">
        <ele>585</ele>
        <time>2018-05-13T09:33:51.755Z</time>
      </trkpt>
      <trkpt lat="40.865528" lon="0.322072">
        <ele>586.417070784856</ele>
        <time>2018-05-13T09:33:57.763Z</time>
      </trkpt>
      <trkpt lat="40.865473" lon="0.322168">
        <ele>588</ele>
        <time>2018-05-13T09:34:03.755Z</time>
      </trkpt>
      <trkpt lat="40.865422" lon="0.322274">
        <ele>589</ele>
        <time>2018-05-13T09:34:08.764Z</time>
      </trkpt>
      <trkpt lat="40.865366" lon="0.322374">
        <ele>589.5539968</ele>
        <time>2018-05-13T09:34:13.764Z</time>
      </trkpt>
      <trkpt lat="40.865314" lon="0.322478">
        <ele>590.509895489007</ele>
        <time>2018-05-13T09:34:18.764Z</time>
      </trkpt>
      <trkpt lat="40.865279" lon="0.322592">
        <ele>591</ele>
        <time>2018-05-13T09:34:24.764Z</time>
      </trkpt>
      <trkpt lat="40.865259" lon="0.322718">
        <ele>592</ele>
        <time>2018-05-13T09:34:31.764Z</time>
      </trkpt>
      <trkpt lat="40.865268" lon="0.322846">
        <ele>593</ele>
        <time>2018-05-13T09:34:38.764Z</time>
      </trkpt>
      <trkpt lat="40.865294" lon="0.322966">
        <ele>596</ele>
        <time>2018-05-13T09:34:48.764Z</time>
      </trkpt>
      <trkpt lat="40.865263" lon="0.323086">
        <ele>602</ele>
        <time>2018-05-13T09:35:22.764Z</time>
      </trkpt>
      <trkpt lat="40.865289" lon="0.323208">
        <ele>602.0860032</ele>
        <time>2018-05-13T09:35:34.753Z</time>
      </trkpt>
      <trkpt lat="40.865321" lon="0.323389">
        <ele>603</ele>
        <time>2018-05-13T09:35:41.764Z</time>
      </trkpt>
      <trkpt lat="40.86535" lon="0.323517">
        <ele>601.51696</ele>
        <time>2018-05-13T09:35:46.751Z</time>
      </trkpt>
      <trkpt lat="40.865375" lon="0.323658">
        <ele>605.506251428571</ele>
        <time>2018-05-13T09:35:52.763Z</time>
      </trkpt>
      <trkpt lat="40.865379" lon="0.323786">
        <ele>601</ele>
        <time>2018-05-13T09:35:58.753Z</time>
      </trkpt>
      <trkpt lat="40.865399" lon="0.323925">
        <ele>602.817886652653</ele>
        <time>2018-05-13T09:36:03.753Z</time>
      </trkpt>
      <trkpt lat="40.86536" lon="0.324035">
        <ele>601</ele>
        <time>2018-05-13T09:36:09.764Z</time>
      </trkpt>
      <trkpt lat="40.865368" lon="0.324155">
        <ele>603</ele>
        <time>2018-05-13T09:36:15.764Z</time>
      </trkpt>
      <trkpt lat="40.865371" lon="0.324282">
        <ele>605.527617607978</ele>
        <time>2018-05-13T09:36:21.764Z</time>
      </trkpt>
      <trkpt lat="40.865366" lon="0.324408">
        <ele>607.520438780004</ele>
        <time>2018-05-13T09:36:28.764Z</time>
      </trkpt>
      <trkpt lat="40.865344" lon="0.324524">
        <ele>608</ele>
        <time>2018-05-13T09:36:34.766Z</time>
      </trkpt>
      <trkpt lat="40.865291" lon="0.324637">
        <ele>609</ele>
        <time>2018-05-13T09:36:41.751Z</time>
      </trkpt>
      <trkpt lat="40.865259" lon="0.324762">
        <ele>608</ele>
        <time>2018-05-13T09:36:49.753Z</time>
      </trkpt>
      <trkpt lat="40.865192" lon="0.324857">
        <ele>609</ele>
        <time>2018-05-13T09:36:58.764Z</time>
      </trkpt>
      <trkpt lat="40.865157" lon="0.324971">
        <ele>610</ele>
        <time>2018-05-13T09:37:03.764Z</time>
      </trkpt>
      <trkpt lat="40.865122" lon="0.325092">
        <ele>611</ele>
        <time>2018-05-13T09:37:11.764Z</time>
      </trkpt>
      <trkpt lat="40.865037" lon="0.325148">
        <ele>615</ele>
        <time>2018-05-13T09:37:18.764Z</time>
      </trkpt>
      <trkpt lat="40.864945" lon="0.32523">
        <ele>615</ele>
        <time>2018-05-13T09:37:28.764Z</time>
      </trkpt>
      <trkpt lat="40.864931" lon="0.325364">
        <ele>616</ele>
        <time>2018-05-13T09:37:36.754Z</time>
      </trkpt>
      <trkpt lat="40.864922" lon="0.325484">
        <ele>615.48595937707</ele>
        <time>2018-05-13T09:37:43.764Z</time>
      </trkpt>
      <trkpt lat="40.864914" lon="0.325604">
        <ele>615</ele>
        <time>2018-05-13T09:37:54.864Z</time>
      </trkpt>
      <trkpt lat="40.86491" lon="0.325725">
        <ele>617</ele>
        <time>2018-05-13T09:38:02.754Z</time>
      </trkpt>
      <trkpt lat="40.864926" lon="0.325859">
        <ele>620</ele>
        <time>2018-05-13T09:38:09.751Z</time>
      </trkpt>
      <trkpt lat="40.864941" lon="0.325978">
        <ele>625.5539968</ele>
        <time>2018-05-13T09:38:17.764Z</time>
      </trkpt>
      <trkpt lat="40.864984" lon="0.326087">
        <ele>631</ele>
        <time>2018-05-13T09:38:23.764Z</time>
      </trkpt>
      <trkpt lat="40.86507" lon="0.326148">
        <ele>637.872453864683</ele>
        <time>2018-05-13T09:38:28.764Z</time>
      </trkpt>
      <trkpt lat="40.865181" lon="0.326149">
        <ele>647.872433707254</ele>
        <time>2018-05-13T09:38:33.764Z</time>
      </trkpt>
      <trkpt lat="40.86529" lon="0.326155">
        <ele>653.5539968</ele>
        <time>2018-05-13T09:38:37.764Z</time>
      </trkpt>
      <trkpt lat="40.865393" lon="0.326184">
        <ele>654</ele>
        <time>2018-05-13T09:38:41.764Z</time>
      </trkpt>
      <trkpt lat="40.865501" lon="0.326201">
        <ele>652</ele>
        <time>2018-05-13T09:38:45.764Z</time>
      </trkpt>
      <trkpt lat="40.865594" lon="0.326182">
        <ele>647.4459904</ele>
        <time>2018-05-13T09:38:50.764Z</time>
      </trkpt>
      <trkpt lat="40.865688" lon="0.326175">
        <ele>647.601442068623</ele>
        <time>2018-05-13T09:38:55.764Z</time>
      </trkpt>
      <trkpt lat="40.865799" lon="0.326106">
        <ele>648</ele>
        <time>2018-05-13T09:38:59.764Z</time>
      </trkpt>
      <trkpt lat="40.865882" lon="0.326057">
        <ele>650.5539968</ele>
        <time>2018-05-13T09:39:03.764Z</time>
      </trkpt>
      <trkpt lat="40.865936" lon="0.32596">
        <ele>668.5540096</ele>
        <time>2018-05-13T09:39:16.764Z</time>
      </trkpt>
      <trkpt lat="40.866019" lon="0.326034">
        <ele>669.68386643911</ele>
        <time>2018-05-13T09:39:26.764Z</time>
      </trkpt>
      <trkpt lat="40.866102" lon="0.326086">
        <ele>669</ele>
        <time>2018-05-13T09:39:31.764Z</time>
      </trkpt>
      <trkpt lat="40.866192" lon="0.326112">
        <ele>668.456856741291</ele>
        <time>2018-05-13T09:39:36.764Z</time>
      </trkpt>
      <trkpt lat="40.866286" lon="0.326143">
        <ele>668</ele>
        <time>2018-05-13T09:39:41.764Z</time>
      </trkpt>
      <trkpt lat="40.866371" lon="0.326215">
        <ele>664</ele>
        <time>2018-05-13T09:39:47.753Z</time>
      </trkpt>
      <trkpt lat="40.866458" lon="0.326253">
        <ele>665</ele>
        <time>2018-05-13T09:39:52.764Z</time>
      </trkpt>
      <trkpt lat="40.866555" lon="0.326301">
        <ele>666</ele>
        <time>2018-05-13T09:39:57.764Z</time>
      </trkpt>
      <trkpt lat="40.866638" lon="0.326369">
        <ele>665</ele>
        <time>2018-05-13T09:40:07.764Z</time>
      </trkpt>
      <trkpt lat="40.86668" lon="0.326497">
        <ele>665</ele>
        <time>2018-05-13T09:40:12.761Z</time>
      </trkpt>
      <trkpt lat="40.866732" lon="0.326629">
        <ele>664</ele>
        <time>2018-05-13T09:40:17.764Z</time>
      </trkpt>
      <trkpt lat="40.86678" lon="0.326778">
        <ele>664</ele>
        <time>2018-05-13T09:40:23.764Z</time>
      </trkpt>
      <trkpt lat="40.866838" lon="0.326888">
        <ele>662</ele>
        <time>2018-05-13T09:40:28.754Z</time>
      </trkpt>
      <trkpt lat="40.866784" lon="0.327004">
        <ele>661.505348571429</ele>
        <time>2018-05-13T09:40:34.764Z</time>
      </trkpt>
      <trkpt lat="40.866798" lon="0.327136">
        <ele>660.002184347826</ele>
        <time>2018-05-13T09:40:40.751Z</time>
      </trkpt>
      <trkpt lat="40.86683" lon="0.327263">
        <ele>657</ele>
        <time>2018-05-13T09:40:47.764Z</time>
      </trkpt>
      <trkpt lat="40.86686" lon="0.32738">
        <ele>655.527184381563</ele>
        <time>2018-05-13T09:40:53.753Z</time>
      </trkpt>
      <trkpt lat="40.866824" lon="0.327547">
        <ele>653.892011127419</ele>
        <time>2018-05-13T09:40:59.764Z</time>
      </trkpt>
      <trkpt lat="40.866785" lon="0.327682">
        <ele>647.4460032</ele>
        <time>2018-05-13T09:41:03.764Z</time>
      </trkpt>
      <trkpt lat="40.866709" lon="0.327767">
        <ele>646</ele>
        <time>2018-05-13T09:41:07.764Z</time>
      </trkpt>
      <trkpt lat="40.866626" lon="0.327827">
        <ele>645</ele>
        <time>2018-05-13T09:41:12.764Z</time>
      </trkpt>
      <trkpt lat="40.866614" lon="0.327952">
        <ele>647</ele>
        <time>2018-05-13T09:41:19.764Z</time>
      </trkpt>
      <trkpt lat="40.866639" lon="0.32807">
        <ele>649</ele>
        <time>2018-05-13T09:41:27.764Z</time>
      </trkpt>
      <trkpt lat="40.866682" lon="0.328181">
        <ele>648.929146666667</ele>
        <time>2018-05-13T09:41:34.764Z</time>
      </trkpt>
      <trkpt lat="40.866639" lon="0.328307">
        <ele>646.470792129677</ele>
        <time>2018-05-13T09:41:41.764Z</time>
      </trkpt>
      <trkpt lat="40.866613" lon="0.328427">
        <ele>655.561275049549</ele>
        <time>2018-05-13T09:41:47.764Z</time>
      </trkpt>
      <trkpt lat="40.86653" lon="0.328505">
        <ele>655.56719</ele>
        <time>2018-05-13T09:41:59.764Z</time>
      </trkpt>
      <trkpt lat="40.866449" lon="0.328577">
        <ele>654</ele>
        <time>2018-05-13T09:42:06.753Z</time>
      </trkpt>
      <trkpt lat="40.866361" lon="0.328631">
        <ele>649.470190769231</ele>
        <time>2018-05-13T09:42:13.761Z</time>
      </trkpt>
      <trkpt lat="40.866266" lon="0.328621">
        <ele>648</ele>
        <time>2018-05-13T09:42:18.764Z</time>
      </trkpt>
      <trkpt lat="40.86618" lon="0.328589">
        <ele>647.075743454001</ele>
        <time>2018-05-13T09:42:22.764Z</time>
      </trkpt>
      <trkpt lat="40.866081" lon="0.328628">
        <ele>649.088</ele>
        <time>2018-05-13T09:42:27.754Z</time>
      </trkpt>
      <trkpt lat="40.865982" lon="0.328687">
        <ele>650.80983706315</ele>
        <time>2018-05-13T09:42:30.754Z</time>
      </trkpt>
      <trkpt lat="40.865883" lon="0.328745">
        <ele>655.088</ele>
        <time>2018-05-13T09:42:34.754Z</time>
      </trkpt>
      <trkpt lat="40.865814" lon="0.328832">
        <ele>653.4569984</ele>
        <time>2018-05-13T09:42:39.753Z</time>
      </trkpt>
      <trkpt lat="40.865755" lon="0.328945">
        <ele>654.523076923077</ele>
        <time>2018-05-13T09:42:45.754Z</time>
      </trkpt>
      <trkpt lat="40.865751" lon="0.329087">
        <ele>656</ele>
        <time>2018-05-13T09:42:53.766Z</time>
      </trkpt>
      <trkpt lat="40.865763" lon="0.329222">
        <ele>657.516188804369</ele>
        <time>2018-05-13T09:43:00.752Z</time>
      </trkpt>
      <trkpt lat="40.865815" lon="0.329341">
        <ele>657</ele>
        <time>2018-05-13T09:43:06.753Z</time>
      </trkpt>
      <trkpt lat="40.865881" lon="0.329426">
        <ele>657</ele>
        <time>2018-05-13T09:43:11.751Z</time>
      </trkpt>
      <trkpt lat="40.865928" lon="0.329528">
        <ele>657</ele>
        <time>2018-05-13T09:43:18.766Z</time>
      </trkpt>
      <trkpt lat="40.865978" lon="0.329647">
        <ele>657.427559237646</ele>
        <time>2018-05-13T09:43:25.753Z</time>
      </trkpt>
      <trkpt lat="40.865948" lon="0.329765">
        <ele>659</ele>
        <time>2018-05-13T09:43:30.754Z</time>
      </trkpt>
      <trkpt lat="40.865953" lon="0.329888">
        <ele>659.5410048</ele>
        <time>2018-05-13T09:43:35.751Z</time>
      </trkpt>
      <trkpt lat="40.865976" lon="0.330014">
        <ele>660</ele>
        <time>2018-05-13T09:43:40.753Z</time>
      </trkpt>
      <trkpt lat="40.866055" lon="0.330116">
        <ele>661</ele>
        <time>2018-05-13T09:43:45.764Z</time>
      </trkpt>
      <trkpt lat="40.86605" lon="0.330255">
        <ele>659</ele>
        <time>2018-05-13T09:43:51.764Z</time>
      </trkpt>
      <trkpt lat="40.866109" lon="0.330374">
        <ele>662.956829090909</ele>
        <time>2018-05-13T09:43:55.751Z</time>
      </trkpt>
      <trkpt lat="40.866111" lon="0.330511">
        <ele>661.514890314147</ele>
        <time>2018-05-13T09:44:00.754Z</time>
      </trkpt>
      <trkpt lat="40.866157" lon="0.330633">
        <ele>663.525437050178</ele>
        <time>2018-05-13T09:44:04.751Z</time>
      </trkpt>
      <trkpt lat="40.866122" lon="0.330749">
        <ele>661.988779098978</ele>
        <time>2018-05-13T09:44:09.751Z</time>
      </trkpt>
      <trkpt lat="40.866162" lon="0.330862">
        <ele>657</ele>
        <time>2018-05-13T09:44:15.753Z</time>
      </trkpt>
      <trkpt lat="40.866172" lon="0.330987">
        <ele>660</ele>
        <time>2018-05-13T09:44:21.753Z</time>
      </trkpt>
      <trkpt lat="40.866208" lon="0.331098">
        <ele>662</ele>
        <time>2018-05-13T09:44:26.750Z</time>
      </trkpt>
      <trkpt lat="40.86621" lon="0.331222">
        <ele>665.5430016</ele>
        <time>2018-05-13T09:44:34.753Z</time>
      </trkpt>
      <trkpt lat="40.866238" lon="0.331347">
        <ele>665.4460032</ele>
        <time>2018-05-13T09:44:43.764Z</time>
      </trkpt>
      <trkpt lat="40.866212" lon="0.331462">
        <ele>665</ele>
        <time>2018-05-13T09:44:48.754Z</time>
      </trkpt>
      <trkpt lat="40.866165" lon="0.331567">
        <ele>665</ele>
        <time>2018-05-13T09:44:54.764Z</time>
      </trkpt>
      <trkpt lat="40.866097" lon="0.331742">
        <ele>665</ele>
        <time>2018-05-13T09:45:05.764Z</time>
      </trkpt>
      <trkpt lat="40.866116" lon="0.331878">
        <ele>669.481402652299</ele>
        <time>2018-05-13T09:45:16.764Z</time>
      </trkpt>
      <trkpt lat="40.866129" lon="0.332">
        <ele>669.5540096</ele>
        <time>2018-05-13T09:45:22.764Z</time>
      </trkpt>
      <trkpt lat="40.866124" lon="0.33213">
        <ele>678.195495534366</ele>
        <time>2018-05-13T09:45:27.764Z</time>
      </trkpt>
      <trkpt lat="40.866068" lon="0.332228">
        <ele>686</ele>
        <time>2018-05-13T09:45:33.764Z</time>
      </trkpt>
      <trkpt lat="40.865987" lon="0.332293">
        <ele>683</ele>
        <time>2018-05-13T09:45:45.763Z</time>
      </trkpt>
      <trkpt lat="40.86593" lon="0.332394">
        <ele>685.436226932342</ele>
        <time>2018-05-13T09:46:04.764Z</time>
      </trkpt>
      <trkpt lat="40.865896" lon="0.332506">
        <ele>687.0820096</ele>
        <time>2018-05-13T09:46:33.751Z</time>
      </trkpt>
      <trkpt lat="40.865889" lon="0.332648">
        <ele>678.387858285714</ele>
        <time>2018-05-13T09:46:50.753Z</time>
      </trkpt>
      <trkpt lat="40.865855" lon="0.332765">
        <ele>676.474754253191</ele>
        <time>2018-05-13T09:47:05.751Z</time>
      </trkpt>
      <trkpt lat="40.865847" lon="0.332885">
        <ele>679.4460032</ele>
        <time>2018-05-13T09:47:17.764Z</time>
      </trkpt>
      <trkpt lat="40.865906" lon="0.33299">
        <ele>680</ele>
        <time>2018-05-13T09:47:26.764Z</time>
      </trkpt>
      <trkpt lat="40.865901" lon="0.333114">
        <ele>679.010697142857</ele>
        <time>2018-05-13T09:47:34.764Z</time>
      </trkpt>
      <trkpt lat="40.865941" lon="0.333226">
        <ele>686</ele>
        <time>2018-05-13T09:47:46.764Z</time>
      </trkpt>
      <trkpt lat="40.866008" lon="0.333319">
        <ele>697</ele>
        <time>2018-05-13T09:47:57.764Z</time>
      </trkpt>
      <trkpt lat="40.866058" lon="0.333431">
        <ele>698</ele>
        <time>2018-05-13T09:48:06.764Z</time>
      </trkpt>
      <trkpt lat="40.866072" lon="0.33356">
        <ele>699.4460032</ele>
        <time>2018-05-13T09:48:13.764Z</time>
      </trkpt>
      <trkpt lat="40.866086" lon="0.333698">
        <ele>701.375812304836</ele>
        <time>2018-05-13T09:48:18.764Z</time>
      </trkpt>
      <trkpt lat="40.86603" lon="0.333821">
        <ele>706.6620288</ele>
        <time>2018-05-13T09:48:26.764Z</time>
      </trkpt>
      <trkpt lat="40.86603" lon="0.33398">
        <ele>715.014753634514</ele>
        <time>2018-05-13T09:48:37.764Z</time>
      </trkpt>
      <trkpt lat="40.866015" lon="0.334106">
        <ele>707</ele>
        <time>2018-05-13T09:48:48.753Z</time>
      </trkpt>
      <trkpt lat="40.86604" lon="0.334264">
        <ele>705.26876</ele>
        <time>2018-05-13T09:48:55.764Z</time>
      </trkpt>
      <trkpt lat="40.866003" lon="0.334373">
        <ele>692.456</ele>
        <time>2018-05-13T09:49:04.754Z</time>
      </trkpt>
      <trkpt lat="40.865949" lon="0.334472">
        <ele>692.43282</ele>
        <time>2018-05-13T09:49:18.764Z</time>
      </trkpt>
      <trkpt lat="40.865862" lon="0.334536">
        <ele>701.5539968</ele>
        <time>2018-05-13T09:49:29.764Z</time>
      </trkpt>
      <trkpt lat="40.865817" lon="0.33466">
        <ele>711.1079936</ele>
        <time>2018-05-13T09:49:37.764Z</time>
      </trkpt>
      <trkpt lat="40.865797" lon="0.334802">
        <ele>719.5539968</ele>
        <time>2018-05-13T09:49:45.764Z</time>
      </trkpt>
      <trkpt lat="40.865726" lon="0.334891">
        <ele>729</ele>
        <time>2018-05-13T09:49:59.764Z</time>
      </trkpt>
      <trkpt lat="40.865636" lon="0.334924">
        <ele>734.355126153846</ele>
        <time>2018-05-13T09:50:11.764Z</time>
      </trkpt>
      <trkpt lat="40.865557" lon="0.334859">
        <ele>735</ele>
        <time>2018-05-13T09:50:19.764Z</time>
      </trkpt>
      <trkpt lat="40.865479" lon="0.334799">
        <ele>732</ele>
        <time>2018-05-13T09:50:38.759Z</time>
      </trkpt>
      <trkpt lat="40.865372" lon="0.334874">
        <ele>727.989302857143</ele>
        <time>2018-05-13T09:50:58.764Z</time>
      </trkpt>
      <trkpt lat="40.865338" lon="0.334984">
        <ele>732.089809566103</ele>
        <time>2018-05-13T09:51:06.764Z</time>
      </trkpt>
      <trkpt lat="40.865291" lon="0.335112">
        <ele>744.678816969697</ele>
        <time>2018-05-13T09:51:10.764Z</time>
      </trkpt>
      <trkpt lat="40.865262" lon="0.33523">
        <ele>767.530518203131</ele>
        <time>2018-05-13T09:51:23.764Z</time>
      </trkpt>
      <trkpt lat="40.865164" lon="0.335215">
        <ele>757</ele>
        <time>2018-05-13T09:51:39.764Z</time>
      </trkpt>
      <trkpt lat="40.865073" lon="0.335236">
        <ele>756</ele>
        <time>2018-05-13T09:51:47.764Z</time>
      </trkpt>
      <trkpt lat="40.864983" lon="0.335226">
        <ele>753</ele>
        <time>2018-05-13T09:51:56.764Z</time>
      </trkpt>
      <trkpt lat="40.86491" lon="0.335304">
        <ele>752</ele>
        <time>2018-05-13T09:52:08.764Z</time>
      </trkpt>
      <trkpt lat="40.864836" lon="0.335372">
        <ele>751</ele>
        <time>2018-05-13T09:52:16.764Z</time>
      </trkpt>
      <trkpt lat="40.86478" lon="0.335472">
        <ele>750</ele>
        <time>2018-05-13T09:52:24.764Z</time>
      </trkpt>
      <trkpt lat="40.864746" lon="0.335589">
        <ele>749</ele>
        <time>2018-05-13T09:52:35.764Z</time>
      </trkpt>
      <trkpt lat="40.86465" lon="0.335594">
        <ele>749</ele>
        <time>2018-05-13T09:52:43.764Z</time>
      </trkpt>
      <trkpt lat="40.864582" lon="0.335686">
        <ele>751.5540096</ele>
        <time>2018-05-13T09:52:58.764Z</time>
      </trkpt>
      <trkpt lat="40.864483" lon="0.335723">
        <ele>755.839408484848</ele>
        <time>2018-05-13T09:53:04.764Z</time>
      </trkpt>
      <trkpt lat="40.86441" lon="0.335799">
        <ele>765.493192727273</ele>
        <time>2018-05-13T09:53:12.764Z</time>
      </trkpt>
      <trkpt lat="40.864328" lon="0.335888">
        <ele>770.4459904</ele>
        <time>2018-05-13T09:53:20.764Z</time>
      </trkpt>
      <trkpt lat="40.864232" lon="0.33594">
        <ele>773.544891721742</ele>
        <time>2018-05-13T09:53:31.764Z</time>
      </trkpt>
      <trkpt lat="40.864135" lon="0.335981">
        <ele>778</ele>
        <time>2018-05-13T09:53:38.764Z</time>
      </trkpt>
      <trkpt lat="40.864117" lon="0.336103">
        <ele>779</ele>
        <time>2018-05-13T09:53:45.764Z</time>
      </trkpt>
      <trkpt lat="40.864116" lon="0.336232">
        <ele>775.938963593737</ele>
        <time>2018-05-13T09:53:53.764Z</time>
      </trkpt>
      <trkpt lat="40.86413" lon="0.336376">
        <ele>769.569240531256</ele>
        <time>2018-05-13T09:54:03.764Z</time>
      </trkpt>
      <trkpt lat="40.864107" lon="0.336498">
        <ele>767.537859299855</ele>
        <time>2018-05-13T09:54:11.764Z</time>
      </trkpt>
      <trkpt lat="40.86408" lon="0.336613">
        <ele>770</ele>
        <time>2018-05-13T09:54:18.764Z</time>
      </trkpt>
      <trkpt lat="40.864103" lon="0.336738">
        <ele>773</ele>
        <time>2018-05-13T09:54:28.764Z</time>
      </trkpt>
      <trkpt lat="40.864161" lon="0.336859">
        <ele>775</ele>
        <time>2018-05-13T09:54:36.764Z</time>
      </trkpt>
      <trkpt lat="40.86421" lon="0.337056">
        <ele>775.451493530359</ele>
        <time>2018-05-13T09:54:43.764Z</time>
      </trkpt>
      <trkpt lat="40.864284" lon="0.337135">
        <ele>774.5540096</ele>
        <time>2018-05-13T09:54:48.764Z</time>
      </trkpt>
      <trkpt lat="40.86439" lon="0.337178">
        <ele>777.577092941452</ele>
        <time>2018-05-13T09:54:54.764Z</time>
      </trkpt>
      <trkpt lat="40.864484" lon="0.337215">
        <ele>774.454093355576</ele>
        <time>2018-05-13T09:54:59.764Z</time>
      </trkpt>
      <trkpt lat="40.864545" lon="0.337338">
        <ele>772.487028148148</ele>
        <time>2018-05-13T09:55:06.764Z</time>
      </trkpt>
      <trkpt lat="40.864628" lon="0.337414">
        <ele>772.3410048</ele>
        <time>2018-05-13T09:55:10.763Z</time>
      </trkpt>
      <trkpt lat="40.864621" lon="0.337554">
        <ele>769.686142454855</ele>
        <time>2018-05-13T09:55:16.764Z</time>
      </trkpt>
      <trkpt lat="40.864663" lon="0.337684">
        <ele>766.723349333333</ele>
        <time>2018-05-13T09:55:22.764Z</time>
      </trkpt>
      <trkpt lat="40.864766" lon="0.337776">
        <ele>777.648500833948</ele>
        <time>2018-05-13T09:55:26.764Z</time>
      </trkpt>
      <trkpt lat="40.864803" lon="0.337915">
        <ele>794.54852609434</ele>
        <time>2018-05-13T09:55:32.764Z</time>
      </trkpt>
      <trkpt lat="40.864809" lon="0.338034">
        <ele>795.69688</ele>
        <time>2018-05-13T09:55:35.764Z</time>
      </trkpt>
      <trkpt lat="40.864848" lon="0.33817">
        <ele>792</ele>
        <time>2018-05-13T09:55:39.764Z</time>
      </trkpt>
      <trkpt lat="40.864855" lon="0.338295">
        <ele>789.599991873057</ele>
        <time>2018-05-13T09:55:44.764Z</time>
      </trkpt>
      <trkpt lat="40.864853" lon="0.338415">
        <ele>787</ele>
        <time>2018-05-13T09:55:48.764Z</time>
      </trkpt>
      <trkpt lat="40.864861" lon="0.338557">
        <ele>786.422897287579</ele>
        <time>2018-05-13T09:55:53.764Z</time>
      </trkpt>
      <trkpt lat="40.86489" lon="0.338672">
        <ele>788.530538002398</ele>
        <time>2018-05-13T09:55:58.764Z</time>
      </trkpt>
      <trkpt lat="40.864901" lon="0.338791">
        <ele>788</ele>
        <time>2018-05-13T09:56:04.764Z</time>
      </trkpt>
      <trkpt lat="40.864906" lon="0.338933">
        <ele>788</ele>
        <time>2018-05-13T09:56:10.764Z</time>
      </trkpt>
      <trkpt lat="40.864929" lon="0.339065">
        <ele>788</ele>
        <time>2018-05-13T09:56:15.764Z</time>
      </trkpt>
      <trkpt lat="40.86499" lon="0.339165">
        <ele>789</ele>
        <time>2018-05-13T09:56:21.764Z</time>
      </trkpt>
      <trkpt lat="40.865027" lon="0.339275">
        <ele>789</ele>
        <time>2018-05-13T09:56:26.764Z</time>
      </trkpt>
      <trkpt lat="40.865042" lon="0.33942">
        <ele>790</ele>
        <time>2018-05-13T09:56:30.764Z</time>
      </trkpt>
      <trkpt lat="40.865084" lon="0.339532">
        <ele>791</ele>
        <time>2018-05-13T09:56:34.764Z</time>
      </trkpt>
      <trkpt lat="40.865125" lon="0.339671">
        <ele>790.4460032</ele>
        <time>2018-05-13T09:56:41.764Z</time>
      </trkpt>
      <trkpt lat="40.865116" lon="0.339815">
        <ele>791.4429952</ele>
        <time>2018-05-13T09:56:45.767Z</time>
      </trkpt>
      <trkpt lat="40.865147" lon="0.339942">
        <ele>789.768979519774</ele>
        <time>2018-05-13T09:56:51.764Z</time>
      </trkpt>
      <trkpt lat="40.865182" lon="0.340068">
        <ele>787</ele>
        <time>2018-05-13T09:56:55.764Z</time>
      </trkpt>
      <trkpt lat="40.86521" lon="0.340199">
        <ele>787</ele>
        <time>2018-05-13T09:56:59.765Z</time>
      </trkpt>
      <trkpt lat="40.865266" lon="0.340296">
        <ele>786.452475096951</ele>
        <time>2018-05-13T09:57:04.763Z</time>
      </trkpt>
      <trkpt lat="40.865327" lon="0.340401">
        <ele>795.422897287579</ele>
        <time>2018-05-13T09:57:09.764Z</time>
      </trkpt>
      <trkpt lat="40.865359" lon="0.340523">
        <ele>801.499094777384</ele>
        <time>2018-05-13T09:57:15.764Z</time>
      </trkpt>
      <trkpt lat="40.86539" lon="0.340635">
        <ele>802</ele>
        <time>2018-05-13T09:57:21.764Z</time>
      </trkpt>
      <trkpt lat="40.865442" lon="0.340812">
        <ele>803.33988252293</ele>
        <time>2018-05-13T09:57:28.764Z</time>
      </trkpt>
      <trkpt lat="40.8654" lon="0.340986">
        <ele>803.964471134292</ele>
        <time>2018-05-13T09:57:34.764Z</time>
      </trkpt>
      <trkpt lat="40.865398" lon="0.34115">
        <ele>799.583464059207</ele>
        <time>2018-05-13T09:57:41.764Z</time>
      </trkpt>
      <trkpt lat="40.865382" lon="0.341271">
        <ele>798.1080192</ele>
        <time>2018-05-13T09:57:44.764Z</time>
      </trkpt>
      <trkpt lat="40.865348" lon="0.341407">
        <ele>804.38740948272</ele>
        <time>2018-05-13T09:57:49.764Z</time>
      </trkpt>
      <trkpt lat="40.865307" lon="0.341529">
        <ele>803.535413333333</ele>
        <time>2018-05-13T09:57:55.764Z</time>
      </trkpt>
      <trkpt lat="40.865246" lon="0.341646">
        <ele>794.932655886732</ele>
        <time>2018-05-13T09:58:00.753Z</time>
      </trkpt>
      <trkpt lat="40.865189" lon="0.341751">
        <ele>798</ele>
        <time>2018-05-13T09:58:05.764Z</time>
      </trkpt>
      <trkpt lat="40.865116" lon="0.341838">
        <ele>797.993887307019</ele>
        <time>2018-05-13T09:58:09.723Z</time>
      </trkpt>
      <trkpt lat="40.865025" lon="0.341932">
        <ele>797.320250659631</ele>
        <time>2018-05-13T09:58:15.764Z</time>
      </trkpt>
      <trkpt lat="40.865036" lon="0.342055">
        <ele>793</ele>
        <time>2018-05-13T09:58:22.764Z</time>
      </trkpt>
      <trkpt lat="40.865106" lon="0.342166">
        <ele>795.697072941176</ele>
        <time>2018-05-13T09:58:26.767Z</time>
      </trkpt>
      <trkpt lat="40.865154" lon="0.342291">
        <ele>800.515227826087</ele>
        <time>2018-05-13T09:58:32.764Z</time>
      </trkpt>
      <trkpt lat="40.86522" lon="0.342403">
        <ele>803</ele>
        <time>2018-05-13T09:58:37.764Z</time>
      </trkpt>
      <trkpt lat="40.865297" lon="0.34249">
        <ele>810.070826666667</ele>
        <time>2018-05-13T09:58:43.764Z</time>
      </trkpt>
      <trkpt lat="40.865371" lon="0.342594">
        <ele>812.548506469641</ele>
        <time>2018-05-13T09:58:49.764Z</time>
      </trkpt>
      <trkpt lat="40.865424" lon="0.342718">
        <ele>808.509735956774</ele>
        <time>2018-05-13T09:58:55.764Z</time>
      </trkpt>
      <trkpt lat="40.865459" lon="0.34284">
        <ele>807.517764432854</ele>
        <time>2018-05-13T09:59:00.764Z</time>
      </trkpt>
      <trkpt lat="40.86552" lon="0.342948">
        <ele>805.593792480725</ele>
        <time>2018-05-13T09:59:06.764Z</time>
      </trkpt>
      <trkpt lat="40.86553" lon="0.343084">
        <ele>808</ele>
        <time>2018-05-13T09:59:13.764Z</time>
      </trkpt>
      <trkpt lat="40.86556" lon="0.343204">
        <ele>807.080429131313</ele>
        <time>2018-05-13T09:59:18.764Z</time>
      </trkpt>
      <trkpt lat="40.865586" lon="0.343348">
        <ele>811</ele>
        <time>2018-05-13T09:59:26.764Z</time>
      </trkpt>
      <trkpt lat="40.865609" lon="0.343482">
        <ele>815</ele>
        <time>2018-05-13T09:59:30.762Z</time>
      </trkpt>
      <trkpt lat="40.865674" lon="0.343584">
        <ele>815.422897287579</ele>
        <time>2018-05-13T09:59:35.764Z</time>
      </trkpt>
      <trkpt lat="40.865738" lon="0.34368">
        <ele>816</ele>
        <time>2018-05-13T09:59:40.764Z</time>
      </trkpt>
      <trkpt lat="40.865803" lon="0.343812">
        <ele>814.467298461538</ele>
        <time>2018-05-13T09:59:46.764Z</time>
      </trkpt>
      <trkpt lat="40.865848" lon="0.343955">
        <ele>820.5540096</ele>
        <time>2018-05-13T09:59:50.764Z</time>
      </trkpt>
      <trkpt lat="40.865895" lon="0.34408">
        <ele>820.511710236511</ele>
        <time>2018-05-13T09:59:55.752Z</time>
      </trkpt>
      <trkpt lat="40.86594" lon="0.344213">
        <ele>816.2329984</ele>
        <time>2018-05-13T10:00:01.753Z</time>
      </trkpt>
      <trkpt lat="40.865967" lon="0.344327">
        <ele>811.472815618437</ele>
        <time>2018-05-13T10:00:06.753Z</time>
      </trkpt>
      <trkpt lat="40.866025" lon="0.344446">
        <ele>810.4460032</ele>
        <time>2018-05-13T10:00:11.764Z</time>
      </trkpt>
      <trkpt lat="40.86607" lon="0.344557">
        <ele>812</ele>
        <time>2018-05-13T10:00:15.752Z</time>
      </trkpt>
      <trkpt lat="40.866097" lon="0.3447">
        <ele>813</ele>
        <time>2018-05-13T10:00:20.752Z</time>
      </trkpt>
      <trkpt lat="40.866129" lon="0.344831">
        <ele>813</ele>
        <time>2018-05-13T10:00:24.752Z</time>
      </trkpt>
      <trkpt lat="40.866148" lon="0.344977">
        <ele>813.42614928665</ele>
        <time>2018-05-13T10:00:29.764Z</time>
      </trkpt>
      <trkpt lat="40.866188" lon="0.345087">
        <ele>819</ele>
        <time>2018-05-13T10:00:34.864Z</time>
      </trkpt>
      <trkpt lat="40.866272" lon="0.34514">
        <ele>825.87605124245</ele>
        <time>2018-05-13T10:00:38.764Z</time>
      </trkpt>
      <trkpt lat="40.866317" lon="0.345271">
        <ele>830.606522404534</ele>
        <time>2018-05-13T10:00:42.753Z</time>
      </trkpt>
      <trkpt lat="40.866314" lon="0.345423">
        <ele>827.544904783052</ele>
        <time>2018-05-13T10:00:46.764Z</time>
      </trkpt>
      <trkpt lat="40.866342" lon="0.345558">
        <ele>827.393326980786</ele>
        <time>2018-05-13T10:00:51.764Z</time>
      </trkpt>
      <trkpt lat="40.866387" lon="0.345666">
        <ele>831.90942</ele>
        <time>2018-05-13T10:00:58.764Z</time>
      </trkpt>
      <trkpt lat="40.866384" lon="0.345804">
        <ele>830</ele>
        <time>2018-05-13T10:01:09.764Z</time>
      </trkpt>
      <trkpt lat="40.866392" lon="0.345923">
        <ele>830.408412940083</ele>
        <time>2018-05-13T10:01:17.764Z</time>
      </trkpt>
      <trkpt lat="40.866404" lon="0.346059">
        <ele>838.95208</ele>
        <time>2018-05-13T10:01:23.753Z</time>
      </trkpt>
      <trkpt lat="40.866358" lon="0.346175">
        <ele>837</ele>
        <time>2018-05-13T10:01:27.754Z</time>
      </trkpt>
      <trkpt lat="40.866313" lon="0.346279">
        <ele>833.544122076097</ele>
        <time>2018-05-13T10:01:39.765Z</time>
      </trkpt>
      <trkpt lat="40.866242" lon="0.34637">
        <ele>837</ele>
        <time>2018-05-13T10:01:46.751Z</time>
      </trkpt>
      <trkpt lat="40.866162" lon="0.34643">
        <ele>833.590147878788</ele>
        <time>2018-05-13T10:01:52.751Z</time>
      </trkpt>
      <trkpt lat="40.866082" lon="0.34651">
        <ele>832.5430016</ele>
        <time>2018-05-13T10:01:56.753Z</time>
      </trkpt>
      <trkpt lat="40.866021" lon="0.346598">
        <ele>832</ele>
        <time>2018-05-13T10:02:02.753Z</time>
      </trkpt>
      <trkpt lat="40.866029" lon="0.346733">
        <ele>832</ele>
        <time>2018-05-13T10:02:08.753Z</time>
      </trkpt>
      <trkpt lat="40.866003" lon="0.346864">
        <ele>832</ele>
        <time>2018-05-13T10:02:14.763Z</time>
      </trkpt>
      <trkpt lat="40.865915" lon="0.346897">
        <ele>832.38472</ele>
        <time>2018-05-13T10:02:17.764Z</time>
      </trkpt>
      <trkpt lat="40.86584" lon="0.346965">
        <ele>838.016534360468</ele>
        <time>2018-05-13T10:02:20.764Z</time>
      </trkpt>
      <trkpt lat="40.865796" lon="0.34707">
        <ele>833.048926290562</ele>
        <time>2018-05-13T10:02:26.763Z</time>
      </trkpt>
      <trkpt lat="40.865777" lon="0.347199">
        <ele>833</ele>
        <time>2018-05-13T10:02:31.764Z</time>
      </trkpt>
      <trkpt lat="40.865745" lon="0.347318">
        <ele>833</ele>
        <time>2018-05-13T10:02:36.764Z</time>
      </trkpt>
      <trkpt lat="40.865751" lon="0.34745">
        <ele>835.1079936</ele>
        <time>2018-05-13T10:02:39.764Z</time>
      </trkpt>
      <trkpt lat="40.865831" lon="0.347515">
        <ele>845.204335284242</ele>
        <time>2018-05-13T10:02:47.764Z</time>
      </trkpt>
      <trkpt lat="40.865913" lon="0.347566">
        <ele>864.6619904</ele>
        <time>2018-05-13T10:02:53.764Z</time>
      </trkpt>
      <trkpt lat="40.86599" lon="0.347645">
        <ele>877.098986346711</ele>
        <time>2018-05-13T10:03:01.764Z</time>
      </trkpt>
      <trkpt lat="40.866071" lon="0.347715">
        <ele>892.035504940546</ele>
        <time>2018-05-13T10:03:09.764Z</time>
      </trkpt>
      <trkpt lat="40.866124" lon="0.347813">
        <ele>892.6760192</ele>
        <time>2018-05-13T10:03:13.764Z</time>
      </trkpt>
      <trkpt lat="40.866188" lon="0.3479">
        <ele>884.630837333333</ele>
        <time>2018-05-13T10:03:17.763Z</time>
      </trkpt>
      <trkpt lat="40.866277" lon="0.347965">
        <ele>876.544904783052</ele>
        <time>2018-05-13T10:03:22.764Z</time>
      </trkpt>
      <trkpt lat="40.866275" lon="0.348101">
        <ele>878.456856741291</ele>
        <time>2018-05-13T10:03:28.764Z</time>
      </trkpt>
      <trkpt lat="40.866117" lon="0.348127">
        <ele>877.798298357517</ele>
        <time>2018-05-13T10:03:38.764Z</time>
      </trkpt>
      <trkpt lat="40.866042" lon="0.348197">
        <ele>875</ele>
        <time>2018-05-13T10:03:43.764Z</time>
      </trkpt>
      <trkpt lat="40.866002" lon="0.348305">
        <ele>879</ele>
        <time>2018-05-13T10:03:58.764Z</time>
      </trkpt>
      <trkpt lat="40.865916" lon="0.348386">
        <ele>881</ele>
        <time>2018-05-13T10:04:07.764Z</time>
      </trkpt>
      <trkpt lat="40.865947" lon="0.348498">
        <ele>871.90294781132</ele>
        <time>2018-05-13T10:04:24.764Z</time>
      </trkpt>
      <trkpt lat="40.86599" lon="0.34863">
        <ele>863.989302857143</ele>
        <time>2018-05-13T10:04:32.764Z</time>
      </trkpt>
      <trkpt lat="40.866048" lon="0.348756">
        <ele>860.382067601804</ele>
        <time>2018-05-13T10:04:39.764Z</time>
      </trkpt>
      <trkpt lat="40.866139" lon="0.348804">
        <ele>859</ele>
        <time>2018-05-13T10:04:43.763Z</time>
      </trkpt>
      <trkpt lat="40.866249" lon="0.348866">
        <ele>861.537871727</ele>
        <time>2018-05-13T10:04:54.764Z</time>
      </trkpt>
      <trkpt lat="40.866343" lon="0.34892">
        <ele>871.493456468168</ele>
        <time>2018-05-13T10:05:01.752Z</time>
      </trkpt>
      <trkpt lat="40.866357" lon="0.349062">
        <ele>872</ele>
        <time>2018-05-13T10:05:07.723Z</time>
      </trkpt>
      <trkpt lat="40.866343" lon="0.349184">
        <ele>873.232</ele>
        <time>2018-05-13T10:05:12.752Z</time>
      </trkpt>
      <trkpt lat="40.866337" lon="0.349304">
        <ele>873.062744704347</ele>
        <time>2018-05-13T10:05:17.752Z</time>
      </trkpt>
      <trkpt lat="40.866337" lon="0.349425">
        <ele>876.6260096</ele>
        <time>2018-05-13T10:05:22.752Z</time>
      </trkpt>
      <trkpt lat="40.866397" lon="0.349528">
        <ele>878</ele>
        <time>2018-05-13T10:05:26.752Z</time>
      </trkpt>
      <trkpt lat="40.866466" lon="0.349616">
        <ele>876.497822608696</ele>
        <time>2018-05-13T10:05:30.752Z</time>
      </trkpt>
      <trkpt lat="40.866501" lon="0.349736">
        <ele>874</ele>
        <time>2018-05-13T10:05:36.752Z</time>
      </trkpt>
      <trkpt lat="40.866529" lon="0.349857">
        <ele>874.663766556598</ele>
        <time>2018-05-13T10:05:43.752Z</time>
      </trkpt>
      <trkpt lat="40.866526" lon="0.349992">
        <ele>875.520438780004</ele>
        <time>2018-05-13T10:05:48.764Z</time>
      </trkpt>
      <trkpt lat="40.866594" lon="0.35012">
        <ele>878</ele>
        <time>2018-05-13T10:05:53.764Z</time>
      </trkpt>
      <trkpt lat="40.866581" lon="0.35026">
        <ele>879.027601224105</ele>
        <time>2018-05-13T10:05:57.763Z</time>
      </trkpt>
      <trkpt lat="40.866544" lon="0.350412">
        <ele>878</ele>
        <time>2018-05-13T10:06:02.764Z</time>
      </trkpt>
      <trkpt lat="40.866556" lon="0.350538">
        <ele>878</ele>
        <time>2018-05-13T10:06:09.752Z</time>
      </trkpt>
      <trkpt lat="40.866584" lon="0.350663">
        <ele>881.231020480226</ele>
        <time>2018-05-13T10:06:21.764Z</time>
      </trkpt>
      <trkpt lat="40.866527" lon="0.350758">
        <ele>886</ele>
        <time>2018-05-13T10:06:30.752Z</time>
      </trkpt>
      <trkpt lat="40.866541" lon="0.350877">
        <ele>889</ele>
        <time>2018-05-13T10:06:44.764Z</time>
      </trkpt>
      <trkpt lat="40.866627" lon="0.350968">
        <ele>892.403328</ele>
        <time>2018-05-13T10:06:53.764Z</time>
      </trkpt>
      <trkpt lat="40.866709" lon="0.351063">
        <ele>893.436226932342</ele>
        <time>2018-05-13T10:06:58.764Z</time>
      </trkpt>
      <trkpt lat="40.866781" lon="0.351152">
        <ele>895</ele>
        <time>2018-05-13T10:07:03.764Z</time>
      </trkpt>
      <trkpt lat="40.866851" lon="0.351242">
        <ele>896</ele>
        <time>2018-05-13T10:07:08.764Z</time>
      </trkpt>
      <trkpt lat="40.866946" lon="0.351274">
        <ele>899</ele>
        <time>2018-05-13T10:07:16.764Z</time>
      </trkpt>
      <trkpt lat="40.867052" lon="0.351296">
        <ele>899</ele>
        <time>2018-05-13T10:07:21.764Z</time>
      </trkpt>
      <trkpt lat="40.86713" lon="0.351388">
        <ele>898</ele>
        <time>2018-05-13T10:07:25.764Z</time>
      </trkpt>
      <trkpt lat="40.867225" lon="0.351458">
        <ele>899.5430016</ele>
        <time>2018-05-13T10:07:31.753Z</time>
      </trkpt>
      <trkpt lat="40.867309" lon="0.351534">
        <ele>901</ele>
        <time>2018-05-13T10:07:37.762Z</time>
      </trkpt>
      <trkpt lat="40.867394" lon="0.351606">
        <ele>901.5529984</ele>
        <time>2018-05-13T10:07:42.763Z</time>
      </trkpt>
      <trkpt lat="40.867466" lon="0.35169">
        <ele>902.597079350842</ele>
        <time>2018-05-13T10:07:47.762Z</time>
      </trkpt>
      <trkpt lat="40.867497" lon="0.351836">
        <ele>903</ele>
        <time>2018-05-13T10:07:52.763Z</time>
      </trkpt>
      <trkpt lat="40.867524" lon="0.351958">
        <ele>904</ele>
        <time>2018-05-13T10:07:59.752Z</time>
      </trkpt>
      <trkpt lat="40.867509" lon="0.352089">
        <ele>903</ele>
        <time>2018-05-13T10:08:06.752Z</time>
      </trkpt>
      <trkpt lat="40.867535" lon="0.352223">
        <ele>905</ele>
        <time>2018-05-13T10:08:22.762Z</time>
      </trkpt>
      <trkpt lat="40.867573" lon="0.352344">
        <ele>905.308680797025</ele>
        <time>2018-05-13T10:08:32.764Z</time>
      </trkpt>
      <trkpt lat="40.867614" lon="0.352456">
        <ele>911.448</ele>
        <time>2018-05-13T10:08:41.762Z</time>
      </trkpt>
      <trkpt lat="40.867584" lon="0.352585">
        <ele>916</ele>
        <time>2018-05-13T10:08:50.764Z</time>
      </trkpt>
      <trkpt lat="40.86761" lon="0.352703">
        <ele>924.5430016</ele>
        <time>2018-05-13T10:08:57.753Z</time>
      </trkpt>
      <trkpt lat="40.867629" lon="0.352835">
        <ele>925</ele>
        <time>2018-05-13T10:09:04.753Z</time>
      </trkpt>
      <trkpt lat="40.867586" lon="0.352951">
        <ele>925</ele>
        <time>2018-05-13T10:09:09.753Z</time>
      </trkpt>
      <trkpt lat="40.867572" lon="0.353068">
        <ele>926</ele>
        <time>2018-05-13T10:09:15.753Z</time>
      </trkpt>
      <trkpt lat="40.867654" lon="0.353148">
        <ele>927</ele>
        <time>2018-05-13T10:09:24.753Z</time>
      </trkpt>
      <trkpt lat="40.867741" lon="0.353208">
        <ele>929.309090909091</ele>
        <time>2018-05-13T10:09:31.752Z</time>
      </trkpt>
      <trkpt lat="40.867817" lon="0.353301">
        <ele>930.517893233447</ele>
        <time>2018-05-13T10:09:37.752Z</time>
      </trkpt>
      <trkpt lat="40.867897" lon="0.353387">
        <ele>933</ele>
        <time>2018-05-13T10:09:44.752Z</time>
      </trkpt>
      <trkpt lat="40.867933" lon="0.353506">
        <ele>935.46744161817</ele>
        <time>2018-05-13T10:09:51.752Z</time>
      </trkpt>
      <trkpt lat="40.867954" lon="0.353626">
        <ele>936</ele>
        <time>2018-05-13T10:10:00.752Z</time>
      </trkpt>
      <trkpt lat="40.867953" lon="0.353753">
        <ele>936.493178181818</ele>
        <time>2018-05-13T10:10:05.764Z</time>
      </trkpt>
      <trkpt lat="40.868008" lon="0.353854">
        <ele>938.511710236511</ele>
        <time>2018-05-13T10:10:16.752Z</time>
      </trkpt>
      <trkpt lat="40.868044" lon="0.353967">
        <ele>942.425986958143</ele>
        <time>2018-05-13T10:10:26.751Z</time>
      </trkpt>
      <trkpt lat="40.868053" lon="0.354087">
        <ele>944</ele>
        <time>2018-05-13T10:10:32.763Z</time>
      </trkpt>
      <trkpt lat="40.868096" lon="0.354204">
        <ele>946</ele>
        <time>2018-05-13T10:10:37.767Z</time>
      </trkpt>
      <trkpt lat="40.868153" lon="0.354302">
        <ele>948.314436875116</ele>
        <time>2018-05-13T10:10:47.763Z</time>
      </trkpt>
      <trkpt lat="40.868215" lon="0.354394">
        <ele>949.527617607978</ele>
        <time>2018-05-13T10:10:53.764Z</time>
      </trkpt>
      <trkpt lat="40.868267" lon="0.354495">
        <ele>951</ele>
        <time>2018-05-13T10:10:59.763Z</time>
      </trkpt>
      <trkpt lat="40.868306" lon="0.354617">
        <ele>953</ele>
        <time>2018-05-13T10:11:06.752Z</time>
      </trkpt>
      <trkpt lat="40.868339" lon="0.354733">
        <ele>957</ele>
        <time>2018-05-13T10:11:16.753Z</time>
      </trkpt>
      <trkpt lat="40.868361" lon="0.35486">
        <ele>959.507476613154</ele>
        <time>2018-05-13T10:11:23.753Z</time>
      </trkpt>
      <trkpt lat="40.868403" lon="0.354974">
        <ele>960</ele>
        <time>2018-05-13T10:11:31.753Z</time>
      </trkpt>
      <trkpt lat="40.86849" lon="0.354938">
        <ele>963.565430381947</ele>
        <time>2018-05-13T10:11:45.752Z</time>
      </trkpt>
      <trkpt lat="40.868562" lon="0.355026">
        <ele>965</ele>
        <time>2018-05-13T10:11:53.752Z</time>
      </trkpt>
      <trkpt lat="40.868632" lon="0.355103">
        <ele>965.478306546074</ele>
        <time>2018-05-13T10:12:04.763Z</time>
      </trkpt>
      <trkpt lat="40.868622" lon="0.35523">
        <ele>965.484822857143</ele>
        <time>2018-05-13T10:12:13.753Z</time>
      </trkpt>
      <trkpt lat="40.868594" lon="0.355371">
        <ele>966</ele>
        <time>2018-05-13T10:12:19.763Z</time>
      </trkpt>
      <trkpt lat="40.868574" lon="0.355491">
        <ele>966</ele>
        <time>2018-05-13T10:12:24.763Z</time>
      </trkpt>
      <trkpt lat="40.86855" lon="0.355621">
        <ele>967</ele>
        <time>2018-05-13T10:12:34.763Z</time>
      </trkpt>
      <trkpt lat="40.868622" lon="0.355711">
        <ele>968</ele>
        <time>2018-05-13T10:12:42.752Z</time>
      </trkpt>
      <trkpt lat="40.868698" lon="0.355788">
        <ele>971</ele>
        <time>2018-05-13T10:12:52.752Z</time>
      </trkpt>
      <trkpt lat="40.868787" lon="0.355849">
        <ele>974</ele>
        <time>2018-05-13T10:13:03.752Z</time>
      </trkpt>
      <trkpt lat="40.868855" lon="0.355928">
        <ele>977</ele>
        <time>2018-05-13T10:13:10.763Z</time>
      </trkpt>
      <trkpt lat="40.86889" lon="0.356042">
        <ele>978.371819322028</ele>
        <time>2018-05-13T10:13:16.764Z</time>
      </trkpt>
      <trkpt lat="40.868965" lon="0.35612">
        <ele>985.5539968</ele>
        <time>2018-05-13T10:13:23.764Z</time>
      </trkpt>
      <trkpt lat="40.869055" lon="0.356133">
        <ele>991.648500833948</ele>
        <time>2018-05-13T10:13:34.764Z</time>
      </trkpt>
      <trkpt lat="40.868997" lon="0.356239">
        <ele>996</ele>
        <time>2018-05-13T10:13:41.764Z</time>
      </trkpt>
      <trkpt lat="40.86894" lon="0.356358">
        <ele>1001.54852609434</ele>
        <time>2018-05-13T10:13:50.764Z</time>
      </trkpt>
      <trkpt lat="40.868843" lon="0.356385">
        <ele>1007.76833066667</ele>
        <time>2018-05-13T10:13:57.768Z</time>
      </trkpt>
      <trkpt lat="40.868937" lon="0.356399">
        <ele>1014.42755923765</ele>
        <time>2018-05-13T10:14:15.753Z</time>
      </trkpt>
      <trkpt lat="40.868991" lon="0.356291">
        <ele>1023.59155460939</ele>
        <time>2018-05-13T10:14:21.764Z</time>
      </trkpt>
      <trkpt lat="40.869079" lon="0.356425">
        <ele>1022.289984</ele>
        <time>2018-05-13T10:14:31.752Z</time>
      </trkpt>
      <trkpt lat="40.869173" lon="0.356405">
        <ele>1021.5420032</ele>
        <time>2018-05-13T10:14:42.752Z</time>
      </trkpt>
      <trkpt lat="40.869266" lon="0.356395">
        <ele>1023</ele>
        <time>2018-05-13T10:14:48.763Z</time>
      </trkpt>
      <trkpt lat="40.869341" lon="0.356463">
        <ele>1018</ele>
        <time>2018-05-13T10:15:11.752Z</time>
      </trkpt>
      <trkpt lat="40.869286" lon="0.356561">
        <ele>1018</ele>
        <time>2018-05-13T10:15:23.763Z</time>
      </trkpt>
      <trkpt lat="40.86922" lon="0.356643">
        <ele>1019</ele>
        <time>2018-05-13T10:15:35.753Z</time>
      </trkpt>
      <trkpt lat="40.869166" lon="0.356743">
        <ele>1022</ele>
        <time>2018-05-13T10:15:49.752Z</time>
      </trkpt>
      <trkpt lat="40.86911" lon="0.356835">
        <ele>1023</ele>
        <time>2018-05-13T10:15:59.764Z</time>
      </trkpt>
      <trkpt lat="40.869025" lon="0.356904">
        <ele>1024.98545463008</ele>
        <time>2018-05-13T10:16:08.752Z</time>
      </trkpt>
      <trkpt lat="40.868921" lon="0.356878">
        <ele>1035</ele>
        <time>2018-05-13T10:17:03.752Z</time>
      </trkpt>
      <trkpt lat="40.868828" lon="0.356823">
        <ele>1035</ele>
        <time>2018-05-13T10:17:10.764Z</time>
      </trkpt>
      <trkpt lat="40.868739" lon="0.356765">
        <ele>1035</ele>
        <time>2018-05-13T10:17:16.764Z</time>
      </trkpt>
      <trkpt lat="40.868652" lon="0.356689">
        <ele>1034</ele>
        <time>2018-05-13T10:17:21.764Z</time>
      </trkpt>
      <trkpt lat="40.868558" lon="0.356623">
        <ele>1034</ele>
        <time>2018-05-13T10:17:26.764Z</time>
      </trkpt>
      <trkpt lat="40.868466" lon="0.356574">
        <ele>1034</ele>
        <time>2018-05-13T10:17:30.764Z</time>
      </trkpt>
      <trkpt lat="40.868365" lon="0.356512">
        <ele>1034</ele>
        <time>2018-05-13T10:17:35.764Z</time>
      </trkpt>
      <trkpt lat="40.868288" lon="0.356431">
        <ele>1034</ele>
        <time>2018-05-13T10:17:39.764Z</time>
      </trkpt>
      <trkpt lat="40.868221" lon="0.356327">
        <ele>1034</ele>
        <time>2018-05-13T10:17:44.764Z</time>
      </trkpt>
      <trkpt lat="40.868147" lon="0.35624">
        <ele>1035</ele>
        <time>2018-05-13T10:17:49.764Z</time>
      </trkpt>
      <trkpt lat="40.868097" lon="0.356141">
        <ele>1035</ele>
        <time>2018-05-13T10:17:54.764Z</time>
      </trkpt>
      <trkpt lat="40.868054" lon="0.356018">
        <ele>1036</ele>
        <time>2018-05-13T10:17:59.764Z</time>
      </trkpt>
      <trkpt lat="40.868016" lon="0.355903">
        <ele>1036</ele>
        <time>2018-05-13T10:18:04.764Z</time>
      </trkpt>
      <trkpt lat="40.867971" lon="0.355775">
        <ele>1037</ele>
        <time>2018-05-13T10:18:10.752Z</time>
      </trkpt>
      <trkpt lat="40.867934" lon="0.355664">
        <ele>1037</ele>
        <time>2018-05-13T10:18:15.752Z</time>
      </trkpt>
      <trkpt lat="40.867875" lon="0.355536">
        <ele>1037</ele>
        <time>2018-05-13T10:18:20.752Z</time>
      </trkpt>
      <trkpt lat="40.867823" lon="0.355426">
        <ele>1037</ele>
        <time>2018-05-13T10:18:24.752Z</time>
      </trkpt>
      <trkpt lat="40.867754" lon="0.355343">
        <ele>1037</ele>
        <time>2018-05-13T10:18:29.753Z</time>
      </trkpt>
      <trkpt lat="40.867676" lon="0.355271">
        <ele>1038</ele>
        <time>2018-05-13T10:18:34.753Z</time>
      </trkpt>
      <trkpt lat="40.867581" lon="0.355282">
        <ele>1037.4429952</ele>
        <time>2018-05-13T10:18:38.767Z</time>
      </trkpt>
      <trkpt lat="40.867466" lon="0.355261">
        <ele>1036.65428712491</ele>
        <time>2018-05-13T10:18:42.752Z</time>
      </trkpt>
      <trkpt lat="40.867352" lon="0.355283">
        <ele>1035.47113392539</ele>
        <time>2018-05-13T10:18:46.753Z</time>
      </trkpt>
      <trkpt lat="40.867267" lon="0.355325">
        <ele>1035</ele>
        <time>2018-05-13T10:18:49.754Z</time>
      </trkpt>
      <trkpt lat="40.867172" lon="0.355319">
        <ele>1034.58307651408</ele>
        <time>2018-05-13T10:18:52.752Z</time>
      </trkpt>
      <trkpt lat="40.867062" lon="0.355326">
        <ele>1033.52045090909</ele>
        <time>2018-05-13T10:18:55.752Z</time>
      </trkpt>
      <trkpt lat="40.866964" lon="0.355295">
        <ele>1033</ele>
        <time>2018-05-13T10:18:58.767Z</time>
      </trkpt>
      <trkpt lat="40.866902" lon="0.355198">
        <ele>1033</ele>
        <time>2018-05-13T10:19:01.752Z</time>
      </trkpt>
      <trkpt lat="40.86688" lon="0.355052">
        <ele>1033</ele>
        <time>2018-05-13T10:19:05.752Z</time>
      </trkpt>
      <trkpt lat="40.866877" lon="0.354917">
        <ele>1033.37777607597</ele>
        <time>2018-05-13T10:19:09.752Z</time>
      </trkpt>
      <trkpt lat="40.866885" lon="0.354774">
        <ele>1034</ele>
        <time>2018-05-13T10:19:13.762Z</time>
      </trkpt>
      <trkpt lat="40.866876" lon="0.354646">
        <ele>1034</ele>
        <time>2018-05-13T10:19:17.752Z</time>
      </trkpt>
      <trkpt lat="40.866841" lon="0.354505">
        <ele>1034</ele>
        <time>2018-05-13T10:19:22.752Z</time>
      </trkpt>
      <trkpt lat="40.866811" lon="0.354389">
        <ele>1035</ele>
        <time>2018-05-13T10:19:26.752Z</time>
      </trkpt>
      <trkpt lat="40.866755" lon="0.354268">
        <ele>1035</ele>
        <time>2018-05-13T10:19:30.754Z</time>
      </trkpt>
      <trkpt lat="40.866685" lon="0.354161">
        <ele>1036</ele>
        <time>2018-05-13T10:19:35.752Z</time>
      </trkpt>
      <trkpt lat="40.866616" lon="0.354084">
        <ele>1036.31022545455</ele>
        <time>2018-05-13T10:19:39.753Z</time>
      </trkpt>
      <trkpt lat="40.866538" lon="0.354006">
        <ele>1036</ele>
        <time>2018-05-13T10:19:43.762Z</time>
      </trkpt>
      <trkpt lat="40.866463" lon="0.35393">
        <ele>1036</ele>
        <time>2018-05-13T10:19:47.752Z</time>
      </trkpt>
      <trkpt lat="40.866391" lon="0.353828">
        <ele>1035</ele>
        <time>2018-05-13T10:19:51.752Z</time>
      </trkpt>
      <trkpt lat="40.86632" lon="0.353731">
        <ele>1035</ele>
        <time>2018-05-13T10:19:55.752Z</time>
      </trkpt>
      <trkpt lat="40.866259" lon="0.353624">
        <ele>1035</ele>
        <time>2018-05-13T10:19:59.752Z</time>
      </trkpt>
      <trkpt lat="40.866176" lon="0.353532">
        <ele>1034</ele>
        <time>2018-05-13T10:20:04.752Z</time>
      </trkpt>
      <trkpt lat="40.866091" lon="0.353467">
        <ele>1034</ele>
        <time>2018-05-13T10:20:08.763Z</time>
      </trkpt>
      <trkpt lat="40.865996" lon="0.353413">
        <ele>1033.48734698682</ele>
        <time>2018-05-13T10:20:13.764Z</time>
      </trkpt>
      <trkpt lat="40.865904" lon="0.353372">
        <ele>1034</ele>
        <time>2018-05-13T10:20:17.752Z</time>
      </trkpt>
      <trkpt lat="40.86581" lon="0.353311">
        <ele>1034</ele>
        <time>2018-05-13T10:20:22.753Z</time>
      </trkpt>
      <trkpt lat="40.865707" lon="0.353271">
        <ele>1034</ele>
        <time>2018-05-13T10:20:27.752Z</time>
      </trkpt>
      <trkpt lat="40.865618" lon="0.353215">
        <ele>1033</ele>
        <time>2018-05-13T10:20:38.762Z</time>
      </trkpt>
      <trkpt lat="40.865524" lon="0.353214">
        <ele>1032</ele>
        <time>2018-05-13T10:20:44.753Z</time>
      </trkpt>
      <trkpt lat="40.86542" lon="0.353211">
        <ele>1030.4579968</ele>
        <time>2018-05-13T10:20:49.752Z</time>
      </trkpt>
      <trkpt lat="40.865317" lon="0.353192">
        <ele>1029</ele>
        <time>2018-05-13T10:20:54.753Z</time>
      </trkpt>
      <trkpt lat="40.865212" lon="0.353163">
        <ele>1027.50714285714</ele>
        <time>2018-05-13T10:20:58.762Z</time>
      </trkpt>
      <trkpt lat="40.865123" lon="0.353197">
        <ele>1027</ele>
        <time>2018-05-13T10:21:01.754Z</time>
      </trkpt>
      <trkpt lat="40.865009" lon="0.353194">
        <ele>1026</ele>
        <time>2018-05-13T10:21:05.752Z</time>
      </trkpt>
      <trkpt lat="40.864913" lon="0.353232">
        <ele>1026</ele>
        <time>2018-05-13T10:21:09.752Z</time>
      </trkpt>
      <trkpt lat="40.864797" lon="0.353221">
        <ele>1026</ele>
        <time>2018-05-13T10:21:13.763Z</time>
      </trkpt>
      <trkpt lat="40.864691" lon="0.353213">
        <ele>1025</ele>
        <time>2018-05-13T10:21:16.753Z</time>
      </trkpt>
      <trkpt lat="40.864572" lon="0.353182">
        <ele>1025.39499733333</ele>
        <time>2018-05-13T10:21:20.754Z</time>
      </trkpt>
      <trkpt lat="40.864482" lon="0.353159">
        <ele>1026</ele>
        <time>2018-05-13T10:21:22.754Z</time>
      </trkpt>
      <trkpt lat="40.864365" lon="0.353131">
        <ele>1026</ele>
        <time>2018-05-13T10:21:25.752Z</time>
      </trkpt>
      <trkpt lat="40.864282" lon="0.35307">
        <ele>1026</ele>
        <time>2018-05-13T10:21:28.767Z</time>
      </trkpt>
      <trkpt lat="40.864187" lon="0.353077">
        <ele>1026</ele>
        <time>2018-05-13T10:21:36.752Z</time>
      </trkpt>
      <trkpt lat="40.864095" lon="0.353016">
        <ele>1026.3931931301</ele>
        <time>2018-05-13T10:21:40.752Z</time>
      </trkpt>
      <trkpt lat="40.864138" lon="0.352911">
        <ele>1028</ele>
        <time>2018-05-13T10:22:52.753Z</time>
      </trkpt>
      <trkpt lat="40.864056" lon="0.352851">
        <ele>1030</ele>
        <time>2018-05-13T10:23:33.763Z</time>
      </trkpt>
      <trkpt lat="40.864021" lon="0.352742">
        <ele>1033</ele>
        <time>2018-05-13T10:23:43.763Z</time>
      </trkpt>
      <trkpt lat="40.863974" lon="0.352623">
        <ele>1036</ele>
        <time>2018-05-13T10:23:52.751Z</time>
      </trkpt>
      <trkpt lat="40.863924" lon="0.352518">
        <ele>1039.37327448276</ele>
        <time>2018-05-13T10:24:01.753Z</time>
      </trkpt>
      <trkpt lat="40.863928" lon="0.352393">
        <ele>1042</ele>
        <time>2018-05-13T10:24:09.753Z</time>
      </trkpt>
      <trkpt lat="40.863896" lon="0.352276">
        <ele>1042.52353433012</ele>
        <time>2018-05-13T10:24:17.754Z</time>
      </trkpt>
      <trkpt lat="40.863836" lon="0.352175">
        <ele>1046</ele>
        <time>2018-05-13T10:24:28.763Z</time>
      </trkpt>
      <trkpt lat="40.863792" lon="0.352063">
        <ele>1047</ele>
        <time>2018-05-13T10:24:35.753Z</time>
      </trkpt>
      <trkpt lat="40.863726" lon="0.351978">
        <ele>1048</ele>
        <time>2018-05-13T10:24:44.753Z</time>
      </trkpt>
      <trkpt lat="40.863691" lon="0.351868">
        <ele>1049</ele>
        <time>2018-05-13T10:24:50.753Z</time>
      </trkpt>
      <trkpt lat="40.863623" lon="0.351785">
        <ele>1052.48828976349</ele>
        <time>2018-05-13T10:25:00.752Z</time>
      </trkpt>
      <trkpt lat="40.863537" lon="0.351734">
        <ele>1056</ele>
        <time>2018-05-13T10:25:11.752Z</time>
      </trkpt>
      <trkpt lat="40.863454" lon="0.35168">
        <ele>1058</ele>
        <time>2018-05-13T10:25:20.754Z</time>
      </trkpt>
      <trkpt lat="40.863389" lon="0.35159">
        <ele>1059</ele>
        <time>2018-05-13T10:25:26.753Z</time>
      </trkpt>
      <trkpt lat="40.863347" lon="0.351475">
        <ele>1060</ele>
        <time>2018-05-13T10:25:32.761Z</time>
      </trkpt>
      <trkpt lat="40.863275" lon="0.351391">
        <ele>1060.48181818182</ele>
        <time>2018-05-13T10:25:37.754Z</time>
      </trkpt>
      <trkpt lat="40.863189" lon="0.351347">
        <ele>1063</ele>
        <time>2018-05-13T10:25:44.753Z</time>
      </trkpt>
      <trkpt lat="40.863128" lon="0.351253">
        <ele>1065</ele>
        <time>2018-05-13T10:25:52.753Z</time>
      </trkpt>
      <trkpt lat="40.863053" lon="0.351155">
        <ele>1067</ele>
        <time>2018-05-13T10:26:07.754Z</time>
      </trkpt>
      <trkpt lat="40.863005" lon="0.351039">
        <ele>1067</ele>
        <time>2018-05-13T10:26:11.763Z</time>
      </trkpt>
      <trkpt lat="40.862948" lon="0.350912">
        <ele>1067</ele>
        <time>2018-05-13T10:26:15.753Z</time>
      </trkpt>
      <trkpt lat="40.862902" lon="0.350807">
        <ele>1067</ele>
        <time>2018-05-13T10:26:18.754Z</time>
      </trkpt>
      <trkpt lat="40.862852" lon="0.350697">
        <ele>1066</ele>
        <time>2018-05-13T10:26:21.763Z</time>
      </trkpt>
      <trkpt lat="40.862827" lon="0.350579">
        <ele>1066</ele>
        <time>2018-05-13T10:26:24.753Z</time>
      </trkpt>
      <trkpt lat="40.862767" lon="0.350453">
        <ele>1066</ele>
        <time>2018-05-13T10:26:28.753Z</time>
      </trkpt>
      <trkpt lat="40.862689" lon="0.350336">
        <ele>1065</ele>
        <time>2018-05-13T10:26:32.753Z</time>
      </trkpt>
      <trkpt lat="40.862628" lon="0.350201">
        <ele>1065</ele>
        <time>2018-05-13T10:26:36.763Z</time>
      </trkpt>
      <trkpt lat="40.862569" lon="0.350106">
        <ele>1065</ele>
        <time>2018-05-13T10:26:39.753Z</time>
      </trkpt>
      <trkpt lat="40.862509" lon="0.349995">
        <ele>1065</ele>
        <time>2018-05-13T10:26:43.753Z</time>
      </trkpt>
      <trkpt lat="40.862456" lon="0.349889">
        <ele>1065</ele>
        <time>2018-05-13T10:26:47.753Z</time>
      </trkpt>
      <trkpt lat="40.86239" lon="0.349801">
        <ele>1064.46082791201</ele>
        <time>2018-05-13T10:26:51.763Z</time>
      </trkpt>
      <trkpt lat="40.862358" lon="0.349686">
        <ele>1065</ele>
        <time>2018-05-13T10:26:54.753Z</time>
      </trkpt>
      <trkpt lat="40.862331" lon="0.34957">
        <ele>1064</ele>
        <time>2018-05-13T10:26:57.753Z</time>
      </trkpt>
      <trkpt lat="40.862293" lon="0.349437">
        <ele>1064</ele>
        <time>2018-05-13T10:27:01.763Z</time>
      </trkpt>
      <trkpt lat="40.862255" lon="0.349323">
        <ele>1063</ele>
        <time>2018-05-13T10:27:04.753Z</time>
      </trkpt>
      <trkpt lat="40.862231" lon="0.349184">
        <ele>1063</ele>
        <time>2018-05-13T10:27:08.753Z</time>
      </trkpt>
      <trkpt lat="40.862171" lon="0.349074">
        <ele>1062</ele>
        <time>2018-05-13T10:27:13.753Z</time>
      </trkpt>
      <trkpt lat="40.8621" lon="0.348968">
        <ele>1061</ele>
        <time>2018-05-13T10:27:24.753Z</time>
      </trkpt>
      <trkpt lat="40.862059" lon="0.348861">
        <ele>1061</ele>
        <time>2018-05-13T10:27:32.754Z</time>
      </trkpt>
      <trkpt lat="40.86203" lon="0.348742">
        <ele>1061</ele>
        <time>2018-05-13T10:27:37.764Z</time>
      </trkpt>
      <trkpt lat="40.861977" lon="0.348643">
        <ele>1060</ele>
        <time>2018-05-13T10:27:46.764Z</time>
      </trkpt>
      <trkpt lat="40.861936" lon="0.348512">
        <ele>1058</ele>
        <time>2018-05-13T10:28:00.764Z</time>
      </trkpt>
      <trkpt lat="40.861903" lon="0.348396">
        <ele>1058</ele>
        <time>2018-05-13T10:28:05.753Z</time>
      </trkpt>
      <trkpt lat="40.861866" lon="0.348275">
        <ele>1058</ele>
        <time>2018-05-13T10:28:21.752Z</time>
      </trkpt>
      <trkpt lat="40.861822" lon="0.348169">
        <ele>1056</ele>
        <time>2018-05-13T10:28:31.754Z</time>
      </trkpt>
      <trkpt lat="40.861828" lon="0.348048">
        <ele>1057</ele>
        <time>2018-05-13T10:28:41.752Z</time>
      </trkpt>
      <trkpt lat="40.86184" lon="0.347923">
        <ele>1057</ele>
        <time>2018-05-13T10:28:50.753Z</time>
      </trkpt>
      <trkpt lat="40.861845" lon="0.347803">
        <ele>1058</ele>
        <time>2018-05-13T10:28:58.763Z</time>
      </trkpt>
      <trkpt lat="40.861847" lon="0.34768">
        <ele>1059</ele>
        <time>2018-05-13T10:29:17.753Z</time>
      </trkpt>
      <trkpt lat="40.861813" lon="0.347558">
        <ele>1060</ele>
        <time>2018-05-13T10:29:30.754Z</time>
      </trkpt>
      <trkpt lat="40.861814" lon="0.347432">
        <ele>1060.5284226411</ele>
        <time>2018-05-13T10:29:38.762Z</time>
      </trkpt>
      <trkpt lat="40.861816" lon="0.347313">
        <ele>1062</ele>
        <time>2018-05-13T10:29:46.753Z</time>
      </trkpt>
      <trkpt lat="40.86184" lon="0.347192">
        <ele>1064</ele>
        <time>2018-05-13T10:29:54.754Z</time>
      </trkpt>
      <trkpt lat="40.861869" lon="0.347071">
        <ele>1065</ele>
        <time>2018-05-13T10:30:01.752Z</time>
      </trkpt>
      <trkpt lat="40.861913" lon="0.346964">
        <ele>1066</ele>
        <time>2018-05-13T10:30:05.752Z</time>
      </trkpt>
      <trkpt lat="40.86191" lon="0.346817">
        <ele>1066.48763860724</ele>
        <time>2018-05-13T10:30:11.754Z</time>
      </trkpt>
      <trkpt lat="40.861892" lon="0.346699">
        <ele>1066.5430016</ele>
        <time>2018-05-13T10:30:21.753Z</time>
      </trkpt>
      <trkpt lat="40.86187" lon="0.346583">
        <ele>1068</ele>
        <time>2018-05-13T10:30:29.753Z</time>
      </trkpt>
      <trkpt lat="40.861804" lon="0.346481">
        <ele>1068.4802268296</ele>
        <time>2018-05-13T10:30:38.763Z</time>
      </trkpt>
      <trkpt lat="40.861757" lon="0.346354">
        <ele>1070</ele>
        <time>2018-05-13T10:30:44.752Z</time>
      </trkpt>
      <trkpt lat="40.861725" lon="0.34622">
        <ele>1070</ele>
        <time>2018-05-13T10:30:48.762Z</time>
      </trkpt>
      <trkpt lat="40.861667" lon="0.346128">
        <ele>1070</ele>
        <time>2018-05-13T10:30:53.763Z</time>
      </trkpt>
      <trkpt lat="40.861629" lon="0.34599">
        <ele>1071</ele>
        <time>2018-05-13T10:30:58.763Z</time>
      </trkpt>
      <trkpt lat="40.861622" lon="0.345851">
        <ele>1071</ele>
        <time>2018-05-13T10:31:03.763Z</time>
      </trkpt>
      <trkpt lat="40.861593" lon="0.345722">
        <ele>1071</ele>
        <time>2018-05-13T10:31:07.753Z</time>
      </trkpt>
      <trkpt lat="40.861534" lon="0.345606">
        <ele>1072</ele>
        <time>2018-05-13T10:31:11.753Z</time>
      </trkpt>
      <trkpt lat="40.861489" lon="0.3455">
        <ele>1072.52292</ele>
        <time>2018-05-13T10:31:15.752Z</time>
      </trkpt>
      <trkpt lat="40.861457" lon="0.345378">
        <ele>1073.544</ele>
        <time>2018-05-13T10:31:19.754Z</time>
      </trkpt>
      <trkpt lat="40.861423" lon="0.345263">
        <ele>1074</ele>
        <time>2018-05-13T10:31:23.764Z</time>
      </trkpt>
      <trkpt lat="40.861371" lon="0.345141">
        <ele>1075</ele>
        <time>2018-05-13T10:31:28.764Z</time>
      </trkpt>
      <trkpt lat="40.861335" lon="0.345015">
        <ele>1075.544</ele>
        <time>2018-05-13T10:31:32.754Z</time>
      </trkpt>
      <trkpt lat="40.861284" lon="0.344894">
        <ele>1076</ele>
        <time>2018-05-13T10:31:36.754Z</time>
      </trkpt>
      <trkpt lat="40.861238" lon="0.344786">
        <ele>1076</ele>
        <time>2018-05-13T10:31:40.754Z</time>
      </trkpt>
      <trkpt lat="40.861184" lon="0.344682">
        <ele>1077</ele>
        <time>2018-05-13T10:31:44.754Z</time>
      </trkpt>
      <trkpt lat="40.86112" lon="0.344586">
        <ele>1077</ele>
        <time>2018-05-13T10:31:52.752Z</time>
      </trkpt>
      <trkpt lat="40.861063" lon="0.344454">
        <ele>1078.5420032</ele>
        <time>2018-05-13T10:31:57.752Z</time>
      </trkpt>
      <trkpt lat="40.860964" lon="0.34444">
        <ele>1081</ele>
        <time>2018-05-13T10:32:08.763Z</time>
      </trkpt>
      <trkpt lat="40.86088" lon="0.344396">
        <ele>1082</ele>
        <time>2018-05-13T10:32:22.753Z</time>
      </trkpt>
      <trkpt lat="40.860792" lon="0.344358">
        <ele>1080</ele>
        <time>2018-05-13T10:32:34.754Z</time>
      </trkpt>
      <trkpt lat="40.860695" lon="0.344345">
        <ele>1080</ele>
        <time>2018-05-13T10:32:48.762Z</time>
      </trkpt>
      <trkpt lat="40.860601" lon="0.344316">
        <ele>1080</ele>
        <time>2018-05-13T10:33:00.753Z</time>
      </trkpt>
      <trkpt lat="40.860501" lon="0.34427">
        <ele>1079.52886607461</ele>
        <time>2018-05-13T10:33:10.753Z</time>
      </trkpt>
      <trkpt lat="40.860412" lon="0.344243">
        <ele>1078</ele>
        <time>2018-05-13T10:33:26.750Z</time>
      </trkpt>
      <trkpt lat="40.86032" lon="0.344267">
        <ele>1074.47290666667</ele>
        <time>2018-05-13T10:33:41.756Z</time>
      </trkpt>
      <trkpt lat="40.860229" lon="0.34433">
        <ele>1073</ele>
        <time>2018-05-13T10:33:47.754Z</time>
      </trkpt>
      <trkpt lat="40.860226" lon="0.344471">
        <ele>1072</ele>
        <time>2018-05-13T10:34:00.754Z</time>
      </trkpt>
      <trkpt lat="40.860226" lon="0.344597">
        <ele>1071.48190949873</ele>
        <time>2018-05-13T10:34:06.754Z</time>
      </trkpt>
      <trkpt lat="40.860188" lon="0.34471">
        <ele>1071</ele>
        <time>2018-05-13T10:34:12.754Z</time>
      </trkpt>
      <trkpt lat="40.860254" lon="0.344792">
        <ele>1067</ele>
        <time>2018-05-13T10:34:33.754Z</time>
      </trkpt>
      <trkpt lat="40.860264" lon="0.344913">
        <ele>1058</ele>
        <time>2018-05-13T10:34:58.764Z</time>
      </trkpt>
      <trkpt lat="40.860306" lon="0.345026">
        <ele>1055.77217176439</ele>
        <time>2018-05-13T10:35:12.752Z</time>
      </trkpt>
      <trkpt lat="40.860402" lon="0.34503">
        <ele>1047</ele>
        <time>2018-05-13T10:36:12.762Z</time>
      </trkpt>
      <trkpt lat="40.860424" lon="0.345173">
        <ele>1042.47158371285</ele>
        <time>2018-05-13T10:36:47.762Z</time>
      </trkpt>
      <trkpt lat="40.860402" lon="0.345332">
        <ele>1041</ele>
        <time>2018-05-13T10:36:50.754Z</time>
      </trkpt>
      <trkpt lat="40.860376" lon="0.345498">
        <ele>1039.58939151515</ele>
        <time>2018-05-13T10:36:53.752Z</time>
      </trkpt>
      <trkpt lat="40.860346" lon="0.345646">
        <ele>1037.4579968</ele>
        <time>2018-05-13T10:36:56.752Z</time>
      </trkpt>
      <trkpt lat="40.860329" lon="0.345767">
        <ele>1033</ele>
        <time>2018-05-13T10:37:09.754Z</time>
      </trkpt>
      <trkpt lat="40.860335" lon="0.345895">
        <ele>1031.50909090909</ele>
        <time>2018-05-13T10:37:12.762Z</time>
      </trkpt>
      <trkpt lat="40.860377" lon="0.346">
        <ele>1026</ele>
        <time>2018-05-13T10:37:26.752Z</time>
      </trkpt>
      <trkpt lat="40.860416" lon="0.346135">
        <ele>1021</ele>
        <time>2018-05-13T10:37:38.752Z</time>
      </trkpt>
      <trkpt lat="40.860409" lon="0.346262">
        <ele>1019.67726545455</ele>
        <time>2018-05-13T10:37:42.764Z</time>
      </trkpt>
      <trkpt lat="40.860378" lon="0.346383">
        <ele>1017</ele>
        <time>2018-05-13T10:37:46.753Z</time>
      </trkpt>
      <trkpt lat="40.860329" lon="0.346503">
        <ele>1015</ele>
        <time>2018-05-13T10:37:49.754Z</time>
      </trkpt>
      <trkpt lat="40.86028" lon="0.346613">
        <ele>1013</ele>
        <time>2018-05-13T10:37:52.764Z</time>
      </trkpt>
      <trkpt lat="40.86021" lon="0.346718">
        <ele>1010.59837865401</ele>
        <time>2018-05-13T10:37:55.754Z</time>
      </trkpt>
      <trkpt lat="40.860124" lon="0.346804">
        <ele>1007.456</ele>
        <time>2018-05-13T10:37:59.754Z</time>
      </trkpt>
      <trkpt lat="40.86009" lon="0.346914">
        <ele>994.4579968</ele>
        <time>2018-05-13T10:38:18.752Z</time>
      </trkpt>
      <trkpt lat="40.860082" lon="0.34704">
        <ele>990</ele>
        <time>2018-05-13T10:38:27.763Z</time>
      </trkpt>
      <trkpt lat="40.860032" lon="0.347156">
        <ele>983.509911322778</ele>
        <time>2018-05-13T10:38:35.754Z</time>
      </trkpt>
      <trkpt lat="40.859948" lon="0.347226">
        <ele>982</ele>
        <time>2018-05-13T10:38:40.753Z</time>
      </trkpt>
      <trkpt lat="40.859862" lon="0.347278">
        <ele>979.4579968</ele>
        <time>2018-05-13T10:38:44.752Z</time>
      </trkpt>
      <trkpt lat="40.859769" lon="0.34732">
        <ele>978</ele>
        <time>2018-05-13T10:38:49.752Z</time>
      </trkpt>
      <trkpt lat="40.859822" lon="0.347212">
        <ele>914.9159936</ele>
        <time>2018-05-13T10:39:41.752Z</time>
      </trkpt>
      <trkpt lat="40.859752" lon="0.34729">
        <ele>917</ele>
        <time>2018-05-13T10:39:52.754Z</time>
      </trkpt>
      <trkpt lat="40.859685" lon="0.347376">
        <ele>916</ele>
        <time>2018-05-13T10:39:57.755Z</time>
      </trkpt>
      <trkpt lat="40.859648" lon="0.347492">
        <ele>918.544</ele>
        <time>2018-05-13T10:40:09.754Z</time>
      </trkpt>
      <trkpt lat="40.859638" lon="0.347614">
        <ele>910</ele>
        <time>2018-05-13T10:40:55.752Z</time>
      </trkpt>
      <trkpt lat="40.85958" lon="0.34776">
        <ele>909</ele>
        <time>2018-05-13T10:41:06.764Z</time>
      </trkpt>
      <trkpt lat="40.859605" lon="0.347893">
        <ele>912</ele>
        <time>2018-05-13T10:41:09.764Z</time>
      </trkpt>
      <trkpt lat="40.859561" lon="0.34802">
        <ele>913</ele>
        <time>2018-05-13T10:41:15.763Z</time>
      </trkpt>
      <trkpt lat="40.859481" lon="0.348104">
        <ele>901.019471913549</ele>
        <time>2018-05-13T10:41:31.764Z</time>
      </trkpt>
      <trkpt lat="40.859394" lon="0.348152">
        <ele>895</ele>
        <time>2018-05-13T10:41:42.752Z</time>
      </trkpt>
      <trkpt lat="40.859325" lon="0.348234">
        <ele>891</ele>
        <time>2018-05-13T10:41:51.751Z</time>
      </trkpt>
      <trkpt lat="40.859243" lon="0.348302">
        <ele>889.51236139276</ele>
        <time>2018-05-13T10:41:57.754Z</time>
      </trkpt>
      <trkpt lat="40.859147" lon="0.348349">
        <ele>887</ele>
        <time>2018-05-13T10:42:07.754Z</time>
      </trkpt>
      <trkpt lat="40.859081" lon="0.348429">
        <ele>885</ele>
        <time>2018-05-13T10:42:12.754Z</time>
      </trkpt>
      <trkpt lat="40.858996" lon="0.348498">
        <ele>883</ele>
        <time>2018-05-13T10:42:17.755Z</time>
      </trkpt>
      <trkpt lat="40.858898" lon="0.348534">
        <ele>878.490657224203</ele>
        <time>2018-05-13T10:42:25.755Z</time>
      </trkpt>
      <trkpt lat="40.858807" lon="0.348572">
        <ele>877.456</ele>
        <time>2018-05-13T10:42:29.754Z</time>
      </trkpt>
      <trkpt lat="40.85871" lon="0.34862">
        <ele>874</ele>
        <time>2018-05-13T10:42:34.754Z</time>
      </trkpt>
      <trkpt lat="40.858618" lon="0.348669">
        <ele>871</ele>
        <time>2018-05-13T10:42:40.754Z</time>
      </trkpt>
      <trkpt lat="40.858656" lon="0.348784">
        <ele>868</ele>
        <time>2018-05-13T10:42:52.755Z</time>
      </trkpt>
      <trkpt lat="40.858738" lon="0.348734">
        <ele>865</ele>
        <time>2018-05-13T10:43:04.753Z</time>
      </trkpt>
      <trkpt lat="40.858834" lon="0.348739">
        <ele>865</ele>
        <time>2018-05-13T10:43:09.752Z</time>
      </trkpt>
      <trkpt lat="40.858785" lon="0.348847">
        <ele>865</ele>
        <time>2018-05-13T10:43:15.765Z</time>
      </trkpt>
      <trkpt lat="40.858686" lon="0.348797">
        <ele>865</ele>
        <time>2018-05-13T10:43:20.760Z</time>
      </trkpt>
      <trkpt lat="40.858601" lon="0.348739">
        <ele>862</ele>
        <time>2018-05-13T10:43:30.760Z</time>
      </trkpt>
      <trkpt lat="40.858503" lon="0.34874">
        <ele>861</ele>
        <time>2018-05-13T10:43:35.760Z</time>
      </trkpt>
      <trkpt lat="40.85843" lon="0.34882">
        <ele>860</ele>
        <time>2018-05-13T10:43:40.764Z</time>
      </trkpt>
      <trkpt lat="40.858337" lon="0.348807">
        <ele>857</ele>
        <time>2018-05-13T10:43:45.764Z</time>
      </trkpt>
      <trkpt lat="40.858281" lon="0.34871">
        <ele>857</ele>
        <time>2018-05-13T10:43:51.752Z</time>
      </trkpt>
      <trkpt lat="40.858211" lon="0.348621">
        <ele>856</ele>
        <time>2018-05-13T10:44:00.760Z</time>
      </trkpt>
      <trkpt lat="40.858149" lon="0.348524">
        <ele>857</ele>
        <time>2018-05-13T10:44:04.753Z</time>
      </trkpt>
      <trkpt lat="40.858095" lon="0.348424">
        <ele>857</ele>
        <time>2018-05-13T10:44:10.765Z</time>
      </trkpt>
      <trkpt lat="40.858032" lon="0.348327">
        <ele>857</ele>
        <time>2018-05-13T10:44:15.765Z</time>
      </trkpt>
      <trkpt lat="40.857995" lon="0.348202">
        <ele>857</ele>
        <time>2018-05-13T10:44:28.752Z</time>
      </trkpt>
      <trkpt lat="40.85794" lon="0.348097">
        <ele>856</ele>
        <time>2018-05-13T10:44:36.755Z</time>
      </trkpt>
      <trkpt lat="40.857845" lon="0.348056">
        <ele>854</ele>
        <time>2018-05-13T10:44:48.750Z</time>
      </trkpt>
      <trkpt lat="40.857799" lon="0.347945">
        <ele>854</ele>
        <time>2018-05-13T10:44:53.755Z</time>
      </trkpt>
      <trkpt lat="40.857731" lon="0.347855">
        <ele>854.522734545455</ele>
        <time>2018-05-13T10:45:00.790Z</time>
      </trkpt>
      <trkpt lat="40.857631" lon="0.347829">
        <ele>854</ele>
        <time>2018-05-13T10:45:12.753Z</time>
      </trkpt>
      <trkpt lat="40.857541" lon="0.347911">
        <ele>854</ele>
        <time>2018-05-13T10:45:18.752Z</time>
      </trkpt>
      <trkpt lat="40.85745" lon="0.347917">
        <ele>852</ele>
        <time>2018-05-13T10:45:22.755Z</time>
      </trkpt>
      <trkpt lat="40.857396" lon="0.347801">
        <ele>851</ele>
        <time>2018-05-13T10:45:26.750Z</time>
      </trkpt>
      <trkpt lat="40.85735" lon="0.347697">
        <ele>848.510810779645</ele>
        <time>2018-05-13T10:45:32.753Z</time>
      </trkpt>
      <trkpt lat="40.857291" lon="0.347587">
        <ele>846</ele>
        <time>2018-05-13T10:45:38.750Z</time>
      </trkpt>
      <trkpt lat="40.857241" lon="0.34747">
        <ele>843</ele>
        <time>2018-05-13T10:45:44.750Z</time>
      </trkpt>
      <trkpt lat="40.85715" lon="0.347398">
        <ele>841</ele>
        <time>2018-05-13T10:45:48.750Z</time>
      </trkpt>
      <trkpt lat="40.857056" lon="0.347312">
        <ele>840</ele>
        <time>2018-05-13T10:45:51.750Z</time>
      </trkpt>
      <trkpt lat="40.856956" lon="0.347235">
        <ele>838.605924849221</ele>
        <time>2018-05-13T10:45:55.765Z</time>
      </trkpt>
      <trkpt lat="40.856882" lon="0.347304">
        <ele>834</ele>
        <time>2018-05-13T10:46:07.755Z</time>
      </trkpt>
      <trkpt lat="40.856795" lon="0.347343">
        <ele>831</ele>
        <time>2018-05-13T10:46:13.754Z</time>
      </trkpt>
      <trkpt lat="40.856737" lon="0.347236">
        <ele>829</ele>
        <time>2018-05-13T10:46:21.756Z</time>
      </trkpt>
      <trkpt lat="40.85665" lon="0.347139">
        <ele>829</ele>
        <time>2018-05-13T10:46:25.765Z</time>
      </trkpt>
      <trkpt lat="40.856553" lon="0.347099">
        <ele>829</ele>
        <time>2018-05-13T10:46:30.760Z</time>
      </trkpt>
      <trkpt lat="40.856452" lon="0.347107">
        <ele>829</ele>
        <time>2018-05-13T10:46:34.753Z</time>
      </trkpt>
      <trkpt lat="40.856372" lon="0.347036">
        <ele>826</ele>
        <time>2018-05-13T10:46:45.760Z</time>
      </trkpt>
      <trkpt lat="40.856327" lon="0.346928">
        <ele>824</ele>
        <time>2018-05-13T10:46:50.765Z</time>
      </trkpt>
      <trkpt lat="40.856258" lon="0.346831">
        <ele>822</ele>
        <time>2018-05-13T10:46:57.750Z</time>
      </trkpt>
      <trkpt lat="40.856177" lon="0.346761">
        <ele>820</ele>
        <time>2018-05-13T10:47:03.750Z</time>
      </trkpt>
      <trkpt lat="40.8561" lon="0.346688">
        <ele>817</ele>
        <time>2018-05-13T10:47:08.753Z</time>
      </trkpt>
      <trkpt lat="40.856068" lon="0.34657">
        <ele>814</ele>
        <time>2018-05-13T10:47:19.754Z</time>
      </trkpt>
      <trkpt lat="40.856119" lon="0.346441">
        <ele>814.463458461538</ele>
        <time>2018-05-13T10:47:25.768Z</time>
      </trkpt>
      <trkpt lat="40.856167" lon="0.346294">
        <ele>814</ele>
        <time>2018-05-13T10:47:30.762Z</time>
      </trkpt>
      <trkpt lat="40.856235" lon="0.346211">
        <ele>813</ele>
        <time>2018-05-13T10:47:33.752Z</time>
      </trkpt>
      <trkpt lat="40.856277" lon="0.346106">
        <ele>813</ele>
        <time>2018-05-13T10:47:38.751Z</time>
      </trkpt>
      <trkpt lat="40.856351" lon="0.346034">
        <ele>813</ele>
        <time>2018-05-13T10:47:44.864Z</time>
      </trkpt>
      <trkpt lat="40.856422" lon="0.345906">
        <ele>813</ele>
        <time>2018-05-13T10:47:47.764Z</time>
      </trkpt>
      <trkpt lat="40.85648" lon="0.345806">
        <ele>813</ele>
        <time>2018-05-13T10:47:50.750Z</time>
      </trkpt>
      <trkpt lat="40.856533" lon="0.345701">
        <ele>813</ele>
        <time>2018-05-13T10:47:55.753Z</time>
      </trkpt>
      <trkpt lat="40.856568" lon="0.345576">
        <ele>812.604288</ele>
        <time>2018-05-13T10:48:01.764Z</time>
      </trkpt>
      <trkpt lat="40.856676" lon="0.345566">
        <ele>813.457145842585</ele>
        <time>2018-05-13T10:48:15.762Z</time>
      </trkpt>
      <trkpt lat="40.856769" lon="0.345532">
        <ele>814</ele>
        <time>2018-05-13T10:48:27.755Z</time>
      </trkpt>
      <trkpt lat="40.85681" lon="0.345418">
        <ele>808.520450909091</ele>
        <time>2018-05-13T10:48:36.752Z</time>
      </trkpt>
      <trkpt lat="40.856899" lon="0.345318">
        <ele>807.487233955635</ele>
        <time>2018-05-13T10:48:41.752Z</time>
      </trkpt>
      <trkpt lat="40.856967" lon="0.345232">
        <ele>810</ele>
        <time>2018-05-13T10:48:56.750Z</time>
      </trkpt>
      <trkpt lat="40.857054" lon="0.345197">
        <ele>810</ele>
        <time>2018-05-13T10:49:05.750Z</time>
      </trkpt>
      <trkpt lat="40.8571" lon="0.345083">
        <ele>811</ele>
        <time>2018-05-13T10:49:11.751Z</time>
      </trkpt>
      <trkpt lat="40.857103" lon="0.344944">
        <ele>811</ele>
        <time>2018-05-13T10:49:20.750Z</time>
      </trkpt>
      <trkpt lat="40.85712" lon="0.344822">
        <ele>810.633909888251</ele>
        <time>2018-05-13T10:49:24.751Z</time>
      </trkpt>
      <trkpt lat="40.857059" lon="0.344719">
        <ele>809</ele>
        <time>2018-05-13T10:49:29.755Z</time>
      </trkpt>
      <trkpt lat="40.856993" lon="0.344624">
        <ele>809</ele>
        <time>2018-05-13T10:49:33.760Z</time>
      </trkpt>
      <trkpt lat="40.85692" lon="0.344549">
        <ele>808</ele>
        <time>2018-05-13T10:49:39.764Z</time>
      </trkpt>
      <trkpt lat="40.856848" lon="0.344475">
        <ele>807.593983081024</ele>
        <time>2018-05-13T10:49:43.750Z</time>
      </trkpt>
      <trkpt lat="40.856767" lon="0.344377">
        <ele>807</ele>
        <time>2018-05-13T10:49:48.755Z</time>
      </trkpt>
      <trkpt lat="40.856728" lon="0.34426">
        <ele>807</ele>
        <time>2018-05-13T10:49:53.751Z</time>
      </trkpt>
      <trkpt lat="40.856694" lon="0.344135">
        <ele>807</ele>
        <time>2018-05-13T10:49:58.751Z</time>
      </trkpt>
      <trkpt lat="40.85664" lon="0.344013">
        <ele>807</ele>
        <time>2018-05-13T10:50:02.765Z</time>
      </trkpt>
      <trkpt lat="40.856662" lon="0.343885">
        <ele>806.490111683124</ele>
        <time>2018-05-13T10:50:07.764Z</time>
      </trkpt>
      <trkpt lat="40.85662" lon="0.343756">
        <ele>805.695238095238</ele>
        <time>2018-05-13T10:50:12.766Z</time>
      </trkpt>
      <trkpt lat="40.856605" lon="0.34363">
        <ele>805</ele>
        <time>2018-05-13T10:50:17.766Z</time>
      </trkpt>
      <trkpt lat="40.856592" lon="0.343452">
        <ele>803.671936403853</ele>
        <time>2018-05-13T10:50:23.764Z</time>
      </trkpt>
      <trkpt lat="40.856507" lon="0.343391">
        <ele>803</ele>
        <time>2018-05-13T10:50:27.765Z</time>
      </trkpt>
      <trkpt lat="40.856416" lon="0.343455">
        <ele>800.510810779645</ele>
        <time>2018-05-13T10:50:33.753Z</time>
      </trkpt>
      <trkpt lat="40.856332" lon="0.343533">
        <ele>798.564569286125</ele>
        <time>2018-05-13T10:50:37.763Z</time>
      </trkpt>
      <trkpt lat="40.85627" lon="0.343625">
        <ele>797.626725517241</ele>
        <time>2018-05-13T10:50:40.753Z</time>
      </trkpt>
      <trkpt lat="40.856186" lon="0.343685">
        <ele>797</ele>
        <time>2018-05-13T10:50:43.754Z</time>
      </trkpt>
      <trkpt lat="40.856118" lon="0.343778">
        <ele>795</ele>
        <time>2018-05-13T10:50:46.753Z</time>
      </trkpt>
      <trkpt lat="40.856027" lon="0.343871">
        <ele>793.96630280019</ele>
        <time>2018-05-13T10:50:50.750Z</time>
      </trkpt>
      <trkpt lat="40.855947" lon="0.343928">
        <ele>796.858263034298</ele>
        <time>2018-05-13T10:50:53.755Z</time>
      </trkpt>
      <trkpt lat="40.855845" lon="0.343885">
        <ele>790</ele>
        <time>2018-05-13T10:51:00.751Z</time>
      </trkpt>
      <trkpt lat="40.855753" lon="0.343883">
        <ele>788</ele>
        <time>2018-05-13T10:51:04.751Z</time>
      </trkpt>
      <trkpt lat="40.855661" lon="0.34384">
        <ele>787</ele>
        <time>2018-05-13T10:51:08.751Z</time>
      </trkpt>
      <trkpt lat="40.855571" lon="0.343857">
        <ele>784</ele>
        <time>2018-05-13T10:51:14.751Z</time>
      </trkpt>
      <trkpt lat="40.855464" lon="0.343857">
        <ele>782.76017489607</ele>
        <time>2018-05-13T10:51:19.751Z</time>
      </trkpt>
      <trkpt lat="40.855371" lon="0.34387">
        <ele>782</ele>
        <time>2018-05-13T10:51:23.753Z</time>
      </trkpt>
      <trkpt lat="40.855285" lon="0.343913">
        <ele>779.4419968</ele>
        <time>2018-05-13T10:51:27.768Z</time>
      </trkpt>
      <trkpt lat="40.855207" lon="0.34399">
        <ele>778.4589952</ele>
        <time>2018-05-13T10:51:34.751Z</time>
      </trkpt>
      <trkpt lat="40.855128" lon="0.344049">
        <ele>777.696624527189</ele>
        <time>2018-05-13T10:51:38.750Z</time>
      </trkpt>
      <trkpt lat="40.85504" lon="0.344129">
        <ele>776</ele>
        <time>2018-05-13T10:51:42.763Z</time>
      </trkpt>
      <trkpt lat="40.854963" lon="0.344227">
        <ele>775.629307586207</ele>
        <time>2018-05-13T10:51:46.750Z</time>
      </trkpt>
      <trkpt lat="40.854865" lon="0.344286">
        <ele>774</ele>
        <time>2018-05-13T10:51:51.751Z</time>
      </trkpt>
      <trkpt lat="40.85478" lon="0.344323">
        <ele>773</ele>
        <time>2018-05-13T10:51:55.755Z</time>
      </trkpt>
      <trkpt lat="40.85469" lon="0.344359">
        <ele>771.4589952</ele>
        <time>2018-05-13T10:51:59.751Z</time>
      </trkpt>
      <trkpt lat="40.854604" lon="0.344426">
        <ele>770.47047493661</ele>
        <time>2018-05-13T10:52:02.766Z</time>
      </trkpt>
      <trkpt lat="40.854523" lon="0.344502">
        <ele>769</ele>
        <time>2018-05-13T10:52:11.753Z</time>
      </trkpt>
      <trkpt lat="40.854494" lon="0.344633">
        <ele>767</ele>
        <time>2018-05-13T10:52:17.763Z</time>
      </trkpt>
      <trkpt lat="40.854497" lon="0.344773">
        <ele>765.482854042984</ele>
        <time>2018-05-13T10:52:21.753Z</time>
      </trkpt>
      <trkpt lat="40.854419" lon="0.344833">
        <ele>762</ele>
        <time>2018-05-13T10:52:27.766Z</time>
      </trkpt>
      <trkpt lat="40.85432" lon="0.344801">
        <ele>760</ele>
        <time>2018-05-13T10:52:31.753Z</time>
      </trkpt>
      <trkpt lat="40.854223" lon="0.34478">
        <ele>758</ele>
        <time>2018-05-13T10:52:35.751Z</time>
      </trkpt>
      <trkpt lat="40.854108" lon="0.344779">
        <ele>756.4569984</ele>
        <time>2018-05-13T10:52:40.753Z</time>
      </trkpt>
      <trkpt lat="40.853996" lon="0.344782">
        <ele>756</ele>
        <time>2018-05-13T10:52:44.751Z</time>
      </trkpt>
      <trkpt lat="40.853892" lon="0.344743">
        <ele>755.5410048</ele>
        <time>2018-05-13T10:52:48.751Z</time>
      </trkpt>
      <trkpt lat="40.853775" lon="0.344708">
        <ele>755</ele>
        <time>2018-05-13T10:52:52.766Z</time>
      </trkpt>
      <trkpt lat="40.853666" lon="0.344707">
        <ele>754</ele>
        <time>2018-05-13T10:52:56.751Z</time>
      </trkpt>
      <trkpt lat="40.853572" lon="0.344731">
        <ele>752.4550016</ele>
        <time>2018-05-13T10:53:00.755Z</time>
      </trkpt>
      <trkpt lat="40.853479" lon="0.344769">
        <ele>751</ele>
        <time>2018-05-13T10:53:03.751Z</time>
      </trkpt>
      <trkpt lat="40.853383" lon="0.344796">
        <ele>751</ele>
        <time>2018-05-13T10:53:06.751Z</time>
      </trkpt>
      <trkpt lat="40.85328" lon="0.344828">
        <ele>750</ele>
        <time>2018-05-13T10:53:11.753Z</time>
      </trkpt>
      <trkpt lat="40.853174" lon="0.344909">
        <ele>749</ele>
        <time>2018-05-13T10:53:15.864Z</time>
      </trkpt>
      <trkpt lat="40.853056" lon="0.344954">
        <ele>748</ele>
        <time>2018-05-13T10:53:21.764Z</time>
      </trkpt>
      <trkpt lat="40.852954" lon="0.345046">
        <ele>740.106436129032</ele>
        <time>2018-05-13T10:53:30.764Z</time>
      </trkpt>
      <trkpt lat="40.85285" lon="0.345151">
        <ele>735.208576</ele>
        <time>2018-05-13T10:53:33.764Z</time>
      </trkpt>
      <trkpt lat="40.85276" lon="0.345189">
        <ele>732.439409230769</ele>
        <time>2018-05-13T10:53:36.751Z</time>
      </trkpt>
      <trkpt lat="40.852667" lon="0.345211">
        <ele>724.912</ele>
        <time>2018-05-13T10:53:40.754Z</time>
      </trkpt>
      <trkpt lat="40.852567" lon="0.345251">
        <ele>719.922906666667</ele>
        <time>2018-05-13T10:53:44.767Z</time>
      </trkpt>
      <trkpt lat="40.85246" lon="0.345216">
        <ele>711.4489984</ele>
        <time>2018-05-13T10:53:49.761Z</time>
      </trkpt>
      <trkpt lat="40.852358" lon="0.345224">
        <ele>703</ele>
        <time>2018-05-13T10:53:56.764Z</time>
      </trkpt>
      <trkpt lat="40.852393" lon="0.345072">
        <ele>698.5430016</ele>
        <time>2018-05-13T10:54:01.753Z</time>
      </trkpt>
      <trkpt lat="40.852301" lon="0.345078">
        <ele>699.574013041857</ele>
        <time>2018-05-13T10:54:09.751Z</time>
      </trkpt>
      <trkpt lat="40.852209" lon="0.34506">
        <ele>702</ele>
        <time>2018-05-13T10:54:16.751Z</time>
      </trkpt>
      <trkpt lat="40.852142" lon="0.344936">
        <ele>704.4589952</ele>
        <time>2018-05-13T10:54:20.751Z</time>
      </trkpt>
      <trkpt lat="40.852112" lon="0.344808">
        <ele>702.366090111749</ele>
        <time>2018-05-13T10:54:25.751Z</time>
      </trkpt>
      <trkpt lat="40.852039" lon="0.344889">
        <ele>705</ele>
        <time>2018-05-13T10:54:36.751Z</time>
      </trkpt>
      <trkpt lat="40.851946" lon="0.34491">
        <ele>703</ele>
        <time>2018-05-13T10:54:42.751Z</time>
      </trkpt>
      <trkpt lat="40.851856" lon="0.344871">
        <ele>702</ele>
        <time>2018-05-13T10:54:48.766Z</time>
      </trkpt>
      <trkpt lat="40.851755" lon="0.344866">
        <ele>701</ele>
        <time>2018-05-13T10:54:53.766Z</time>
      </trkpt>
      <trkpt lat="40.851642" lon="0.344869">
        <ele>700.564569286125</ele>
        <time>2018-05-13T10:54:58.763Z</time>
      </trkpt>
      <trkpt lat="40.851557" lon="0.344921">
        <ele>697</ele>
        <time>2018-05-13T10:55:09.751Z</time>
      </trkpt>
      <trkpt lat="40.851498" lon="0.345017">
        <ele>694</ele>
        <time>2018-05-13T10:55:29.751Z</time>
      </trkpt>
      <trkpt lat="40.851422" lon="0.34509">
        <ele>692.4589952</ele>
        <time>2018-05-13T10:55:36.751Z</time>
      </trkpt>
      <trkpt lat="40.851331" lon="0.345138">
        <ele>692</ele>
        <time>2018-05-13T10:55:41.753Z</time>
      </trkpt>
      <trkpt lat="40.851235" lon="0.345198">
        <ele>689.677979238104</ele>
        <time>2018-05-13T10:55:46.751Z</time>
      </trkpt>
      <trkpt lat="40.851144" lon="0.345217">
        <ele>687.513483194546</ele>
        <time>2018-05-13T10:55:49.753Z</time>
      </trkpt>
      <trkpt lat="40.85104" lon="0.34525">
        <ele>686</ele>
        <time>2018-05-13T10:55:52.764Z</time>
      </trkpt>
      <trkpt lat="40.851024" lon="0.345371">
        <ele>680.488296090527</ele>
        <time>2018-05-13T10:56:01.751Z</time>
      </trkpt>
      <trkpt lat="40.850921" lon="0.345354">
        <ele>677.4569984</ele>
        <time>2018-05-13T10:56:06.753Z</time>
      </trkpt>
      <trkpt lat="40.850819" lon="0.345342">
        <ele>674</ele>
        <time>2018-05-13T10:56:11.752Z</time>
      </trkpt>
      <trkpt lat="40.850758" lon="0.345461">
        <ele>668.693259121831</ele>
        <time>2018-05-13T10:56:23.753Z</time>
      </trkpt>
      <trkpt lat="40.850657" lon="0.34555">
        <ele>667</ele>
        <time>2018-05-13T10:56:27.753Z</time>
      </trkpt>
      <trkpt lat="40.850576" lon="0.345606">
        <ele>666</ele>
        <time>2018-05-13T10:56:30.766Z</time>
      </trkpt>
      <trkpt lat="40.850463" lon="0.345594">
        <ele>662.4589952</ele>
        <time>2018-05-13T10:56:34.751Z</time>
      </trkpt>
      <trkpt lat="40.850375" lon="0.345518">
        <ele>660</ele>
        <time>2018-05-13T10:56:37.752Z</time>
      </trkpt>
      <trkpt lat="40.850342" lon="0.345403">
        <ele>658</ele>
        <time>2018-05-13T10:56:40.764Z</time>
      </trkpt>
      <trkpt lat="40.85029" lon="0.345262">
        <ele>655.4460032</ele>
        <time>2018-05-13T10:56:45.764Z</time>
      </trkpt>
      <trkpt lat="40.8503" lon="0.345136">
        <ele>653.456</ele>
        <time>2018-05-13T10:56:51.754Z</time>
      </trkpt>
      <trkpt lat="40.850307" lon="0.345006">
        <ele>652.672190621899</ele>
        <time>2018-05-13T10:56:55.764Z</time>
      </trkpt>
      <trkpt lat="40.850208" lon="0.34496">
        <ele>652</ele>
        <time>2018-05-13T10:57:00.754Z</time>
      </trkpt>
      <trkpt lat="40.850134" lon="0.34489">
        <ele>651.505610450511</ele>
        <time>2018-05-13T10:57:06.751Z</time>
      </trkpt>
      <trkpt lat="40.850033" lon="0.344798">
        <ele>652</ele>
        <time>2018-05-13T10:57:11.754Z</time>
      </trkpt>
      <trkpt lat="40.850012" lon="0.344668">
        <ele>651.506455075974</ele>
        <time>2018-05-13T10:57:14.751Z</time>
      </trkpt>
      <trkpt lat="40.84997" lon="0.344524">
        <ele>651</ele>
        <time>2018-05-13T10:57:19.754Z</time>
      </trkpt>
      <trkpt lat="40.849918" lon="0.344408">
        <ele>650.475</ele>
        <time>2018-05-13T10:57:24.754Z</time>
      </trkpt>
      <trkpt lat="40.849877" lon="0.344232">
        <ele>650</ele>
        <time>2018-05-13T10:57:29.764Z</time>
      </trkpt>
      <trkpt lat="40.84978" lon="0.344234">
        <ele>645.141736965702</ele>
        <time>2018-05-13T10:57:38.755Z</time>
      </trkpt>
      <trkpt lat="40.849718" lon="0.344334">
        <ele>641.69134943912</ele>
        <time>2018-05-13T10:57:41.764Z</time>
      </trkpt>
      <trkpt lat="40.849644" lon="0.3444">
        <ele>640.425986958143</ele>
        <time>2018-05-13T10:57:44.751Z</time>
      </trkpt>
      <trkpt lat="40.849538" lon="0.34448">
        <ele>631.0860032</ele>
        <time>2018-05-13T10:57:50.753Z</time>
      </trkpt>
      <trkpt lat="40.849447" lon="0.344546">
        <ele>632.49097660259</ele>
        <time>2018-05-13T10:57:53.763Z</time>
      </trkpt>
      <trkpt lat="40.849401" lon="0.344693">
        <ele>626</ele>
        <time>2018-05-13T10:58:03.764Z</time>
      </trkpt>
      <trkpt lat="40.849353" lon="0.344806">
        <ele>625.406771505014</ele>
        <time>2018-05-13T10:58:06.751Z</time>
      </trkpt>
      <trkpt lat="40.849302" lon="0.344907">
        <ele>625.433649230769</ele>
        <time>2018-05-13T10:58:11.753Z</time>
      </trkpt>
      <trkpt lat="40.849221" lon="0.344979">
        <ele>620.026966389093</ele>
        <time>2018-05-13T10:58:14.753Z</time>
      </trkpt>
      <trkpt lat="40.849125" lon="0.344929">
        <ele>611.334976</ele>
        <time>2018-05-13T10:58:20.765Z</time>
      </trkpt>
      <trkpt lat="40.84907" lon="0.345037">
        <ele>608.489189220355</ele>
        <time>2018-05-13T10:58:24.753Z</time>
      </trkpt>
      <trkpt lat="40.849047" lon="0.345174">
        <ele>607</ele>
        <time>2018-05-13T10:58:29.865Z</time>
      </trkpt>
      <trkpt lat="40.849024" lon="0.3453">
        <ele>610.007284321255</ele>
        <time>2018-05-13T10:58:32.764Z</time>
      </trkpt>
      <trkpt lat="40.848988" lon="0.345423">
        <ele>614</ele>
        <time>2018-05-13T10:58:35.754Z</time>
      </trkpt>
      <trkpt lat="40.848934" lon="0.345589">
        <ele>614.4599936</ele>
        <time>2018-05-13T10:58:39.750Z</time>
      </trkpt>
      <trkpt lat="40.848914" lon="0.345709">
        <ele>615</ele>
        <time>2018-05-13T10:58:42.753Z</time>
      </trkpt>
      <trkpt lat="40.848935" lon="0.345845">
        <ele>615.42266</ele>
        <time>2018-05-13T10:58:45.751Z</time>
      </trkpt>
      <trkpt lat="40.848852" lon="0.346007">
        <ele>615</ele>
        <time>2018-05-13T10:58:49.867Z</time>
      </trkpt>
      <trkpt lat="40.848769" lon="0.346109">
        <ele>614</ele>
        <time>2018-05-13T10:58:52.764Z</time>
      </trkpt>
      <trkpt lat="40.848698" lon="0.346217">
        <ele>612</ele>
        <time>2018-05-13T10:58:55.753Z</time>
      </trkpt>
      <trkpt lat="40.848638" lon="0.346335">
        <ele>612</ele>
        <time>2018-05-13T10:58:58.765Z</time>
      </trkpt>
      <trkpt lat="40.848584" lon="0.346474">
        <ele>610.452482035814</ele>
        <time>2018-05-13T10:59:03.763Z</time>
      </trkpt>
      <trkpt lat="40.848526" lon="0.346593">
        <ele>609</ele>
        <time>2018-05-13T10:59:07.751Z</time>
      </trkpt>
      <trkpt lat="40.848429" lon="0.346651">
        <ele>607</ele>
        <time>2018-05-13T10:59:11.753Z</time>
      </trkpt>
      <trkpt lat="40.848331" lon="0.346671">
        <ele>605.672056470588</ele>
        <time>2018-05-13T10:59:14.753Z</time>
      </trkpt>
      <trkpt lat="40.848281" lon="0.346778">
        <ele>605</ele>
        <time>2018-05-13T10:59:17.764Z</time>
      </trkpt>
      <trkpt lat="40.848233" lon="0.346924">
        <ele>604</ele>
        <time>2018-05-13T10:59:20.765Z</time>
      </trkpt>
      <trkpt lat="40.848178" lon="0.34704">
        <ele>603</ele>
        <time>2018-05-13T10:59:23.751Z</time>
      </trkpt>
      <trkpt lat="40.848109" lon="0.347118">
        <ele>602</ele>
        <time>2018-05-13T10:59:26.750Z</time>
      </trkpt>
      <trkpt lat="40.848025" lon="0.347206">
        <ele>602</ele>
        <time>2018-05-13T10:59:29.753Z</time>
      </trkpt>
      <trkpt lat="40.84797" lon="0.347324">
        <ele>602</ele>
        <time>2018-05-13T10:59:32.751Z</time>
      </trkpt>
      <trkpt lat="40.847932" lon="0.347447">
        <ele>601.499994074074</ele>
        <time>2018-05-13T10:59:36.750Z</time>
      </trkpt>
      <trkpt lat="40.847876" lon="0.347572">
        <ele>601</ele>
        <time>2018-05-13T10:59:40.764Z</time>
      </trkpt>
      <trkpt lat="40.847854" lon="0.347694">
        <ele>601</ele>
        <time>2018-05-13T10:59:45.753Z</time>
      </trkpt>
      <trkpt lat="40.847782" lon="0.34777">
        <ele>601</ele>
        <time>2018-05-13T10:59:52.763Z</time>
      </trkpt>
      <trkpt lat="40.847691" lon="0.347817">
        <ele>598.487493333333</ele>
        <time>2018-05-13T11:00:00.782Z</time>
      </trkpt>
      <trkpt lat="40.847678" lon="0.347937">
        <ele>596</ele>
        <time>2018-05-13T11:00:07.753Z</time>
      </trkpt>
      <trkpt lat="40.847668" lon="0.348057">
        <ele>593.481055808564</ele>
        <time>2018-05-13T11:00:17.753Z</time>
      </trkpt>
      <trkpt lat="40.847602" lon="0.348176">
        <ele>589.4460032</ele>
        <time>2018-05-13T11:00:23.764Z</time>
      </trkpt>
      <trkpt lat="40.847518" lon="0.348289">
        <ele>590</ele>
        <time>2018-05-13T11:00:27.755Z</time>
      </trkpt>
      <trkpt lat="40.847479" lon="0.348396">
        <ele>588.737497142857</ele>
        <time>2018-05-13T11:00:32.764Z</time>
      </trkpt>
      <trkpt lat="40.847475" lon="0.348531">
        <ele>586</ele>
        <time>2018-05-13T11:00:36.753Z</time>
      </trkpt>
      <trkpt lat="40.84747" lon="0.348685">
        <ele>580.5430016</ele>
        <time>2018-05-13T11:00:41.753Z</time>
      </trkpt>
      <trkpt lat="40.847417" lon="0.348798">
        <ele>580</ele>
        <time>2018-05-13T11:00:44.753Z</time>
      </trkpt>
      <trkpt lat="40.847354" lon="0.348897">
        <ele>577</ele>
        <time>2018-05-13T11:00:48.751Z</time>
      </trkpt>
      <trkpt lat="40.847308" lon="0.349022">
        <ele>574.596267002904</ele>
        <time>2018-05-13T11:00:54.751Z</time>
      </trkpt>
      <trkpt lat="40.847275" lon="0.349162">
        <ele>573</ele>
        <time>2018-05-13T11:00:58.764Z</time>
      </trkpt>
      <trkpt lat="40.847244" lon="0.349312">
        <ele>571.209984</ele>
        <time>2018-05-13T11:01:01.768Z</time>
      </trkpt>
      <trkpt lat="40.84721" lon="0.349454">
        <ele>566.937255295653</ele>
        <time>2018-05-13T11:01:04.752Z</time>
      </trkpt>
      <trkpt lat="40.847187" lon="0.349606">
        <ele>564.506077200481</ele>
        <time>2018-05-13T11:01:08.764Z</time>
      </trkpt>
      <trkpt lat="40.847198" lon="0.349735">
        <ele>563.522635335032</ele>
        <time>2018-05-13T11:01:11.764Z</time>
      </trkpt>
      <trkpt lat="40.847192" lon="0.349889">
        <ele>567.480683636364</ele>
        <time>2018-05-13T11:01:14.753Z</time>
      </trkpt>
      <trkpt lat="40.847201" lon="0.350016">
        <ele>567.4419968</ele>
        <time>2018-05-13T11:01:17.768Z</time>
      </trkpt>
      <trkpt lat="40.847182" lon="0.350172">
        <ele>567.484822857143</ele>
        <time>2018-05-13T11:01:20.753Z</time>
      </trkpt>
      <trkpt lat="40.847159" lon="0.350301">
        <ele>569</ele>
        <time>2018-05-13T11:01:23.753Z</time>
      </trkpt>
      <trkpt lat="40.847146" lon="0.350424">
        <ele>569</ele>
        <time>2018-05-13T11:01:26.753Z</time>
      </trkpt>
      <trkpt lat="40.847115" lon="0.350573">
        <ele>565.924745900185</ele>
        <time>2018-05-13T11:01:30.753Z</time>
      </trkpt>
      <trkpt lat="40.847054" lon="0.350687">
        <ele>563</ele>
        <time>2018-05-13T11:01:35.753Z</time>
      </trkpt>
      <trkpt lat="40.846999" lon="0.350817">
        <ele>560</ele>
        <time>2018-05-13T11:01:40.753Z</time>
      </trkpt>
      <trkpt lat="40.846962" lon="0.350949">
        <ele>560.426773097895</ele>
        <time>2018-05-13T11:01:45.752Z</time>
      </trkpt>
      <trkpt lat="40.846925" lon="0.351085">
        <ele>560</ele>
        <time>2018-05-13T11:01:50.753Z</time>
      </trkpt>
      <trkpt lat="40.846914" lon="0.351207">
        <ele>560</ele>
        <time>2018-05-13T11:01:54.753Z</time>
      </trkpt>
      <trkpt lat="40.846911" lon="0.351346">
        <ele>559</ele>
        <time>2018-05-13T11:02:00.753Z</time>
      </trkpt>
      <trkpt lat="40.846882" lon="0.351486">
        <ele>559</ele>
        <time>2018-05-13T11:02:05.751Z</time>
      </trkpt>
      <trkpt lat="40.84686" lon="0.351628">
        <ele>557</ele>
        <time>2018-05-13T11:02:10.754Z</time>
      </trkpt>
      <trkpt lat="40.846845" lon="0.351768">
        <ele>556.495371851852</ele>
        <time>2018-05-13T11:02:15.755Z</time>
      </trkpt>
      <trkpt lat="40.846805" lon="0.351898">
        <ele>555</ele>
        <time>2018-05-13T11:02:20.753Z</time>
      </trkpt>
      <trkpt lat="40.846761" lon="0.352036">
        <ele>554</ele>
        <time>2018-05-13T11:02:24.753Z</time>
      </trkpt>
      <trkpt lat="40.846738" lon="0.352172">
        <ele>550.605075454723</ele>
        <time>2018-05-13T11:02:31.755Z</time>
      </trkpt>
      <trkpt lat="40.846788" lon="0.352296">
        <ele>548.495371851852</ele>
        <time>2018-05-13T11:02:36.755Z</time>
      </trkpt>
      <trkpt lat="40.846808" lon="0.352426">
        <ele>546.474754253191</ele>
        <time>2018-05-13T11:02:41.751Z</time>
      </trkpt>
      <trkpt lat="40.846792" lon="0.352576">
        <ele>544.4489984</ele>
        <time>2018-05-13T11:02:47.761Z</time>
      </trkpt>
      <trkpt lat="40.846783" lon="0.352702">
        <ele>543.626725517241</ele>
        <time>2018-05-13T11:02:51.753Z</time>
      </trkpt>
      <trkpt lat="40.846808" lon="0.352845">
        <ele>540</ele>
        <time>2018-05-13T11:02:58.753Z</time>
      </trkpt>
      <trkpt lat="40.846809" lon="0.352967">
        <ele>539</ele>
        <time>2018-05-13T11:03:01.753Z</time>
      </trkpt>
      <trkpt lat="40.846835" lon="0.353093">
        <ele>537</ele>
        <time>2018-05-13T11:03:06.753Z</time>
      </trkpt>
      <trkpt lat="40.846862" lon="0.353224">
        <ele>536</ele>
        <time>2018-05-13T11:03:11.753Z</time>
      </trkpt>
      <trkpt lat="40.846949" lon="0.353294">
        <ele>534</ele>
        <time>2018-05-13T11:03:16.751Z</time>
      </trkpt>
      <trkpt lat="40.847041" lon="0.353302">
        <ele>532</ele>
        <time>2018-05-13T11:03:21.753Z</time>
      </trkpt>
      <trkpt lat="40.84713" lon="0.353358">
        <ele>530</ele>
        <time>2018-05-13T11:03:25.753Z</time>
      </trkpt>
      <trkpt lat="40.847161" lon="0.353485">
        <ele>526.4569984</ele>
        <time>2018-05-13T11:03:31.753Z</time>
      </trkpt>
      <trkpt lat="40.847126" lon="0.353601">
        <ele>524</ele>
        <time>2018-05-13T11:03:36.753Z</time>
      </trkpt>
      <trkpt lat="40.847094" lon="0.353725">
        <ele>520.622223924031</ele>
        <time>2018-05-13T11:03:42.762Z</time>
      </trkpt>
      <trkpt lat="40.847061" lon="0.353848">
        <ele>518.448</ele>
        <time>2018-05-13T11:03:47.762Z</time>
      </trkpt>
      <trkpt lat="40.846995" lon="0.35395">
        <ele>516</ele>
        <time>2018-05-13T11:03:51.753Z</time>
      </trkpt>
      <trkpt lat="40.846917" lon="0.354023">
        <ele>514</ele>
        <time>2018-05-13T11:03:57.761Z</time>
      </trkpt>
      <trkpt lat="40.846962" lon="0.354137">
        <ele>512.493544924026</ele>
        <time>2018-05-13T11:04:01.751Z</time>
      </trkpt>
      <trkpt lat="40.846957" lon="0.354265">
        <ele>511</ele>
        <time>2018-05-13T11:04:06.751Z</time>
      </trkpt>
      <trkpt lat="40.846862" lon="0.354276">
        <ele>507</ele>
        <time>2018-05-13T11:04:14.753Z</time>
      </trkpt>
      <trkpt lat="40.84676" lon="0.354212">
        <ele>507</ele>
        <time>2018-05-13T11:04:19.752Z</time>
      </trkpt>
      <trkpt lat="40.846651" lon="0.354194">
        <ele>505.516068571429</ele>
        <time>2018-05-13T11:04:25.752Z</time>
      </trkpt>
      <trkpt lat="40.846547" lon="0.354161">
        <ele>504</ele>
        <time>2018-05-13T11:04:29.752Z</time>
      </trkpt>
      <trkpt lat="40.846445" lon="0.354126">
        <ele>501.635343448276</ele>
        <time>2018-05-13T11:04:33.753Z</time>
      </trkpt>
      <trkpt lat="40.846353" lon="0.354148">
        <ele>499.682562362327</ele>
        <time>2018-05-13T11:04:37.763Z</time>
      </trkpt>
      <trkpt lat="40.846384" lon="0.354268">
        <ele>498</ele>
        <time>2018-05-13T11:04:42.763Z</time>
      </trkpt>
      <trkpt lat="40.846287" lon="0.354276">
        <ele>494.482854042984</ele>
        <time>2018-05-13T11:04:49.753Z</time>
      </trkpt>
      <trkpt lat="40.846263" lon="0.354235">
        <ele>492</ele>
        <time>2018-05-13T11:04:59.752Z</time>
      </trkpt>
      <trkpt lat="40.909240" lon="0.493006">
        <ele>13.873</ele>
        <time>2014-03-15T05:07:35Z</time>
      </trkpt>
      <trkpt lat="40.909338" lon="0.492344">
        <ele>15.685</ele>
        <time>2014-03-15T05:08:01Z</time>
      </trkpt>
      <trkpt lat="40.909886" lon="0.491756">
        <ele>18.413</ele>
        <time>2014-03-15T05:08:32Z</time>
      </trkpt>
      <trkpt lat="40.909720" lon="0.491437">
        <ele>18.808</ele>
        <time>2014-03-15T05:08:43Z</time>
      </trkpt>
      <trkpt lat="40.912205" lon="0.489551">
        <ele>34.078</ele>
        <time>2014-03-15T05:11:01Z</time>
      </trkpt>
      <trkpt lat="40.912490" lon="0.488713">
        <ele>35.652</ele>
        <time>2014-03-15T05:11:35Z</time>
      </trkpt>
      <trkpt lat="40.915468" lon="0.486122">
        <ele>47.246</ele>
        <time>2014-03-15T05:14:09Z</time>
      </trkpt>
      <trkpt lat="40.916737" lon="0.485693">
        <ele>62.631</ele>
        <time>2014-03-15T05:15:23Z</time>
      </trkpt>
      <trkpt lat="40.917491" lon="0.484991">
        <ele>67.019</ele>
        <time>2014-03-15T05:16:22Z</time>
      </trkpt>
      <trkpt lat="40.918135" lon="0.482428">
        <ele>87.045</ele>
        <time>2014-03-15T05:18:14Z</time>
      </trkpt>
      <trkpt lat="40.919257" lon="0.480636">
        <ele>97.615</ele>
        <time>2014-03-15T05:19:40Z</time>
      </trkpt>
      <trkpt lat="40.920357" lon="0.477908">
        <ele>107.611</ele>
        <time>2014-03-15T05:21:24Z</time>
      </trkpt>
      <trkpt lat="40.921096" lon="0.472574">
        <ele>115.623</ele>
        <time>2014-03-15T05:24:48Z</time>
      </trkpt>
      <trkpt lat="40.921971" lon="0.471293">
        <ele>103.283</ele>
        <time>2014-03-15T05:26:09Z</time>
      </trkpt>
      <trkpt lat="40.921886" lon="0.467771">
        <ele>128.611</ele>
        <time>2014-03-15T05:28:59Z</time>
      </trkpt>
      <trkpt lat="40.922875" lon="0.466874">
        <ele>120.208</ele>
        <time>2014-03-15T05:30:48Z</time>
      </trkpt>
      <trkpt lat="40.923355" lon="0.466965">
        <ele>102.463</ele>
        <time>2014-03-15T05:31:41Z</time>
      </trkpt>
      <trkpt lat="40.923287" lon="0.465948">
        <ele>100.277</ele>
        <time>2014-03-15T05:32:35Z</time>
      </trkpt>
      <trkpt lat="40.922792" lon="0.465488">
        <ele>115.251</ele>
        <time>2014-03-15T05:33:16Z</time>
      </trkpt>
      <trkpt lat="40.922117" lon="0.463526">
        <ele>118.676</ele>
        <time>2014-03-15T05:35:30Z</time>
      </trkpt>
      <trkpt lat="40.922109" lon="0.462531">
        <ele>121.674</ele>
        <time>2014-03-15T05:36:20Z</time>
      </trkpt>
      <trkpt lat="40.922566" lon="0.461454">
        <ele>120.210</ele>
        <time>2014-03-15T05:37:04Z</time>
      </trkpt>
      <trkpt lat="40.923718" lon="0.461099">
        <ele>101.020</ele>
        <time>2014-03-15T05:38:13Z</time>
      </trkpt>
      <trkpt lat="40.923810" lon="0.459766">
        <ele>103.066</ele>
        <time>2014-03-15T05:39:04Z</time>
      </trkpt>
      <trkpt lat="40.923310" lon="0.459483">
        <ele>119.261</ele>
        <time>2014-03-15T05:39:34Z</time>
      </trkpt>
      <trkpt lat="40.923559" lon="0.458997">
        <ele>105.821</ele>
        <time>2014-03-15T05:39:58Z</time>
      </trkpt>
      <trkpt lat="40.922563" lon="0.456501">
        <ele>123.213</ele>
        <time>2014-03-15T05:41:46Z</time>
      </trkpt>
      <trkpt lat="40.923095" lon="0.454826">
        <ele>107.208</ele>
        <time>2014-03-15T05:43:06Z</time>
      </trkpt>
      <trkpt lat="40.922092" lon="0.449373">
        <ele>122.417</ele>
        <time>2014-03-15T05:46:27Z</time>
      </trkpt>
      <trkpt lat="40.922281" lon="0.447919">
        <ele>123.291</ele>
        <time>2014-03-15T05:47:52Z</time>
      </trkpt>
      <trkpt lat="40.922571" lon="0.447903">
        <ele>117.825</ele>
        <time>2014-03-15T05:48:10Z</time>
      </trkpt>
      <trkpt lat="40.923474" lon="0.446334">
        <ele>124.250</ele>
        <time>2014-03-15T05:49:55Z</time>
      </trkpt>
      <trkpt lat="40.924180" lon="0.446554">
        <ele>114.298</ele>
        <time>2014-03-15T05:50:50Z</time>
      </trkpt>
      <trkpt lat="40.924788" lon="0.445247">
        <ele>123.284</ele>
        <time>2014-03-15T05:52:04Z</time>
      </trkpt>
      <trkpt lat="40.924888" lon="0.443944">
        <ele>126.264</ele>
        <time>2014-03-15T05:53:01Z</time>
      </trkpt>
      <trkpt lat="40.924463" lon="0.441617">
        <ele>136.690</ele>
        <time>2014-03-15T05:54:47Z</time>
      </trkpt>
      <trkpt lat="40.924815" lon="0.440520">
        <ele>130.475</ele>
        <time>2014-03-15T05:55:27Z</time>
      </trkpt>
      <trkpt lat="40.924713" lon="0.438904">
        <ele>130.428</ele>
        <time>2014-03-15T05:56:32Z</time>
      </trkpt>
      <trkpt lat="40.923554" lon="0.436580">
        <ele>138.420</ele>
        <time>2014-03-15T05:58:08Z</time>
      </trkpt>
      <trkpt lat="40.922781" lon="0.436586">
        <ele>135.808</ele>
        <time>2014-03-15T05:58:49Z</time>
      </trkpt>
      <trkpt lat="40.922417" lon="0.435764">
        <ele>137.658</ele>
        <time>2014-03-15T05:59:24Z</time>
      </trkpt>
      <trkpt lat="40.922450" lon="0.433106">
        <ele>147.852</ele>
        <time>2014-03-15T06:00:50Z</time>
      </trkpt>
      <trkpt lat="40.922858" lon="0.431154">
        <ele>156.026</ele>
        <time>2014-03-15T06:02:26Z</time>
      </trkpt>
      <trkpt lat="40.921948" lon="0.430040">
        <ele>167.641</ele>
        <time>2014-03-15T06:03:44Z</time>
      </trkpt>
      <trkpt lat="40.922600" lon="0.429984">
        <ele>159.259</ele>
        <time>2014-03-15T06:04:44Z</time>
      </trkpt>
      <trkpt lat="40.921821" lon="0.429063">
        <ele>184.485</ele>
        <time>2014-03-15T06:06:07Z</time>
      </trkpt>
      <trkpt lat="40.922279" lon="0.426854">
        <ele>199.225</ele>
        <time>2014-03-15T06:07:39Z</time>
      </trkpt>
      <trkpt lat="40.922935" lon="0.425666">
        <ele>186.651</ele>
        <time>2014-03-15T06:08:22Z</time>
      </trkpt>
      <trkpt lat="40.923002" lon="0.423527">
        <ele>188.825</ele>
        <time>2014-03-15T06:09:41Z</time>
      </trkpt>
      <trkpt lat="40.922109" lon="0.418569">
        <ele>211.426</ele>
        <time>2014-03-15T06:12:52Z</time>
      </trkpt>
      <trkpt lat="40.922445" lon="0.417020">
        <ele>201.408</ele>
        <time>2014-03-15T06:13:47Z</time>
      </trkpt>
      <trkpt lat="40.921746" lon="0.413458">
        <ele>203.808</ele>
        <time>2014-03-15T06:15:57Z</time>
      </trkpt>
      <trkpt lat="40.921251" lon="0.413055">
        <ele>210.843</ele>
        <time>2014-03-15T06:16:31Z</time>
      </trkpt>
      <trkpt lat="40.920366" lon="0.409806">
        <ele>226.697</ele>
        <time>2014-03-15T06:19:11Z</time>
      </trkpt>
      <trkpt lat="40.919465" lon="0.408424">
        <ele>232.831</ele>
        <time>2014-03-15T06:20:33Z</time>
      </trkpt>
      <trkpt lat="40.920013" lon="0.407872">
        <ele>223.226</ele>
        <time>2014-03-15T06:21:03Z</time>
      </trkpt>
      <trkpt lat="40.919432" lon="0.407777">
        <ele>229.024</ele>
        <time>2014-03-15T06:21:27Z</time>
      </trkpt>
      <trkpt lat="40.919204" lon="0.406219">
        <ele>228.450</ele>
        <time>2014-03-15T06:22:28Z</time>
      </trkpt>
      <trkpt lat="40.919586" lon="0.406303">
        <ele>231.820</ele>
        <time>2014-03-15T06:23:06Z</time>
      </trkpt>
      <trkpt lat="40.919400" lon="0.405790">
        <ele>233.656</ele>
        <time>2014-03-15T06:23:49Z</time>
      </trkpt>
      <trkpt lat="40.919707" lon="0.405897">
        <ele>237.475</ele>
        <time>2014-03-15T06:24:15Z</time>
      </trkpt>
      <trkpt lat="40.919810" lon="0.405140">
        <ele>249.628</ele>
        <time>2014-03-15T06:25:07Z</time>
      </trkpt>
      <trkpt lat="40.920180" lon="0.405499">
        <ele>255.220</ele>
        <time>2014-03-15T06:25:53Z</time>
      </trkpt>
      <trkpt lat="40.920176" lon="0.403889">
        <ele>265.408</ele>
        <time>2014-03-15T06:27:25Z</time>
      </trkpt>
      <trkpt lat="40.920669" lon="0.403440">
        <ele>269.628</ele>
        <time>2014-03-15T06:27:53Z</time>
      </trkpt>
      <trkpt lat="40.920734" lon="0.402864">
        <ele>270.872</ele>
        <time>2014-03-15T06:28:24Z</time>
      </trkpt>
      <trkpt lat="40.921640" lon="0.401908">
        <ele>300.696</ele>
        <time>2014-03-15T06:30:14Z</time>
      </trkpt>
      <trkpt lat="40.921472" lon="0.401269">
        <ele>311.471</ele>
        <time>2014-03-15T06:31:00Z</time>
      </trkpt>
      <trkpt lat="40.922185" lon="0.401933">
        <ele>305.489</ele>
        <time>2014-03-15T06:32:03Z</time>
      </trkpt>
      <trkpt lat="40.921131" lon="0.400329">
        <ele>316.215</ele>
        <time>2014-03-15T06:33:56Z</time>
      </trkpt>
      <trkpt lat="40.921342" lon="0.399550">
        <ele>326.875</ele>
        <time>2014-03-15T06:34:42Z</time>
      </trkpt>
      <trkpt lat="40.921615" lon="0.399973">
        <ele>339.841</ele>
        <time>2014-03-15T06:35:12Z</time>
      </trkpt>
      <trkpt lat="40.921992" lon="0.399706">
        <ele>347.039</ele>
        <time>2014-03-15T06:36:01Z</time>
      </trkpt>
      <trkpt lat="40.922457" lon="0.400202">
        <ele>349.001</ele>
        <time>2014-03-15T06:37:50Z</time>
      </trkpt>
      <trkpt lat="40.923265" lon="0.396802">
        <ele>375.221</ele>
        <time>2014-03-15T06:41:13Z</time>
      </trkpt>
      <trkpt lat="40.923761" lon="0.396320">
        <ele>357.008</ele>
        <time>2014-03-15T06:41:43Z</time>
      </trkpt>
      <trkpt lat="40.924141" lon="0.393226">
        <ele>391.024</ele>
        <time>2014-03-15T06:44:08Z</time>
      </trkpt>
      <trkpt lat="40.924929" lon="0.391478">
        <ele>390.848</ele>
        <time>2014-03-15T06:45:58Z</time>
      </trkpt>
      <trkpt lat="40.924702" lon="0.389758">
        <ele>401.652</ele>
        <time>2014-03-15T06:46:56Z</time>
      </trkpt>
      <trkpt lat="40.925152" lon="0.387965">
        <ele>390.497</ele>
        <time>2014-03-15T06:48:16Z</time>
      </trkpt>
      <trkpt lat="40.925501" lon="0.388053">
        <ele>384.645</ele>
        <time>2014-03-15T06:48:38Z</time>
      </trkpt>
      <trkpt lat="40.925969" lon="0.387299">
        <ele>377.091</ele>
        <time>2014-03-15T06:49:29Z</time>
      </trkpt>
      <trkpt lat="40.925570" lon="0.386366">
        <ele>385.861</ele>
        <time>2014-03-15T06:50:16Z</time>
      </trkpt>
      <trkpt lat="40.926804" lon="0.386437">
        <ele>377.697</ele>
        <time>2014-03-15T06:51:59Z</time>
      </trkpt>
      <trkpt lat="40.927595" lon="0.385524">
        <ele>394.815</ele>
        <time>2014-03-15T06:52:50Z</time>
      </trkpt>
      <trkpt lat="40.928305" lon="0.386075">
        <ele>385.065</ele>
        <time>2014-03-15T06:53:59Z</time>
      </trkpt>
      <trkpt lat="40.929230" lon="0.383946">
        <ele>445.811</ele>
        <time>2014-03-15T06:57:40Z</time>
      </trkpt>
      <trkpt lat="40.929957" lon="0.385036">
        <ele>447.808</ele>
        <time>2014-03-15T06:59:56Z</time>
      </trkpt>
      <trkpt lat="40.931247" lon="0.384452">
        <ele>478.062</ele>
        <time>2014-03-15T07:01:45Z</time>
      </trkpt>
      <trkpt lat="40.931625" lon="0.382616">
        <ele>510.456</ele>
        <time>2014-03-15T07:03:39Z</time>
      </trkpt>
      <trkpt lat="40.932850" lon="0.383503">
        <ele>499.010</ele>
        <time>2014-03-15T07:05:55Z</time>
      </trkpt>
      <trkpt lat="40.933588" lon="0.382762">
        <ele>564.855</ele>
        <time>2014-03-15T07:08:30Z</time>
      </trkpt>
      <trkpt lat="40.934525" lon="0.382497">
        <ele>586.823</ele>
        <time>2014-03-15T07:12:28Z</time>
      </trkpt>
      <trkpt lat="40.934490" lon="0.382074">
        <ele>607.489</ele>
        <time>2014-03-15T07:13:21Z</time>
      </trkpt>
      <trkpt lat="40.935380" lon="0.381972">
        <ele>617.679</ele>
        <time>2014-03-15T07:15:38Z</time>
      </trkpt>
      <trkpt lat="40.935724" lon="0.381460">
        <ele>642.095</ele>
        <time>2014-03-15T07:17:13Z</time>
      </trkpt>
      <trkpt lat="40.936886" lon="0.381384">
        <ele>662.453</ele>
        <time>2014-03-15T07:19:44Z</time>
      </trkpt>
      <trkpt lat="40.937549" lon="0.380850">
        <ele>678.204</ele>
        <time>2014-03-15T07:21:30Z</time>
      </trkpt>
      <trkpt lat="40.937418" lon="0.380563">
        <ele>687.014</ele>
        <time>2014-03-15T07:22:11Z</time>
      </trkpt>
      <trkpt lat="40.938713" lon="0.379602">
        <ele>743.608</ele>
        <time>2014-03-15T07:30:00Z</time>
      </trkpt>
      <trkpt lat="40.938947" lon="0.379829">
        <ele>746.666</ele>
        <time>2014-03-15T07:30:51Z</time>
      </trkpt>
      <trkpt lat="40.939538" lon="0.378986">
        <ele>780.050</ele>
        <time>2014-03-15T07:33:42Z</time>
      </trkpt>
      <trkpt lat="40.939214" lon="0.378513">
        <ele>790.494</ele>
        <time>2014-03-15T07:35:12Z</time>
      </trkpt>
      <trkpt lat="40.940623" lon="0.378529">
        <ele>822.839</ele>
        <time>2014-03-15T07:39:06Z</time>
      </trkpt>
      <trkpt lat="40.941756" lon="0.377877">
        <ele>850.087</ele>
        <time>2014-03-15T07:41:30Z</time>
      </trkpt>
      <trkpt lat="40.942326" lon="0.379137">
        <ele>859.823</ele>
        <time>2014-03-15T07:44:06Z</time>
      </trkpt>
      <trkpt lat="40.943249" lon="0.379424">
        <ele>890.493</ele>
        <time>2014-03-15T07:46:19Z</time>
      </trkpt>
      <trkpt lat="40.944862" lon="0.380778">
        <ele>921.679</ele>
        <time>2014-03-15T07:49:45Z</time>
      </trkpt>
      <trkpt lat="40.945660" lon="0.380994">
        <ele>917.433</ele>
        <time>2014-03-15T07:50:45Z</time>
      </trkpt>
      <trkpt lat="40.945667" lon="0.379321">
        <ele>919.423</ele>
        <time>2014-03-15T08:32:20Z</time>
      </trkpt>
      <trkpt lat="40.943162" lon="0.375969">
        <ele>951.515</ele>
        <time>2014-03-15T10:22:24Z</time>
      </trkpt>
      <trkpt lat="40.942886" lon="0.375060">
        <ele>969.408</ele>
        <time>2014-03-15T10:42:56Z</time>
      </trkpt>
      <trkpt lat="40.943072" lon="0.373422">
        <ele>965.484</ele>
        <time>2014-03-15T11:17:11Z</time>
      </trkpt>
      <trkpt lat="40.941844" lon="0.370223">
        <ele>1033.448</ele>
        <time>2014-03-15T11:25:35Z</time>
      </trkpt>
      <trkpt lat="40.941476" lon="0.370407">
        <ele>1030.452</ele>
        <time>2014-03-15T11:26:03Z</time>
      </trkpt>
      <trkpt lat="40.941240" lon="0.369872">
        <ele>1025.647</ele>
        <time>2014-03-15T11:26:33Z</time>
      </trkpt>
      <trkpt lat="40.940799" lon="0.369829">
        <ele>1018.625</ele>
        <time>2014-03-15T11:27:06Z</time>
      </trkpt>
      <trkpt lat="40.939350" lon="0.367216">
        <ele>979.271</ele>
        <time>2014-03-15T11:29:24Z</time>
      </trkpt>
      <trkpt lat="40.938074" lon="0.365684">
        <ele>963.061</ele>
        <time>2014-03-15T11:30:50Z</time>
      </trkpt>
      <trkpt lat="40.937266" lon="0.365683">
        <ele>948.227</ele>
        <time>2014-03-15T11:31:52Z</time>
      </trkpt>
      <trkpt lat="40.935858" lon="0.364436">
        <ele>937.414</ele>
        <time>2014-03-15T11:33:51Z</time>
      </trkpt>
      <trkpt lat="40.934576" lon="0.364565">
        <ele>932.654</ele>
        <time>2014-03-15T11:35:19Z</time>
      </trkpt>
      <trkpt lat="40.934850" lon="0.363536">
        <ele>937.809</ele>
        <time>2014-03-15T11:36:55Z</time>
      </trkpt>
      <trkpt lat="40.934516" lon="0.362298">
        <ele>955.808</ele>
        <time>2014-03-15T11:38:35Z</time>
      </trkpt>
      <trkpt lat="40.933279" lon="0.361822">
        <ele>964.022</ele>
        <time>2014-03-15T11:40:01Z</time>
      </trkpt>
      <trkpt lat="40.933194" lon="0.360843">
        <ele>975.466</ele>
        <time>2014-03-15T11:41:46Z</time>
      </trkpt>
      <trkpt lat="40.932061" lon="0.359407">
        <ele>991.810</ele>
        <time>2014-03-15T11:43:55Z</time>
      </trkpt>
      <trkpt lat="40.931163" lon="0.360213">
        <ele>1003.295</ele>
        <time>2014-03-15T11:45:28Z</time>
      </trkpt>
      <trkpt lat="40.931403" lon="0.362982">
        <ele>1013.473</ele>
        <time>2014-03-15T11:48:31Z</time>
      </trkpt>
      <trkpt lat="40.930521" lon="0.364803">
        <ele>987.499</ele>
        <time>2014-03-15T11:50:41Z</time>
      </trkpt>
      <trkpt lat="40.930471" lon="0.366041">
        <ele>969.239</ele>
        <time>2014-03-15T11:51:46Z</time>
      </trkpt>
      <trkpt lat="40.930095" lon="0.366455">
        <ele>943.295</ele>
        <time>2016-12-09T09:59:11Z</time>
      </trkpt>
      <trkpt lat="40.930307" lon="0.367540">
        <ele>918.211</ele>
        <time>2016-12-09T10:03:30Z</time>
      </trkpt>
      <trkpt lat="40.930009" lon="0.368110">
        <ele>897.521</ele>
        <time>2016-12-09T10:04:53Z</time>
      </trkpt>
      <trkpt lat="40.930720" lon="0.371014">
        <ele>805.203</ele>
        <time>2016-12-09T10:09:50Z</time>
      </trkpt>
      <trkpt lat="40.930135" lon="0.374779">
        <ele>746.608</ele>
        <time>2016-12-09T10:14:38Z</time>
      </trkpt>
      <trkpt lat="40.930321" lon="0.374365">
        <ele>734.612</ele>
        <time>2016-12-09T10:15:10Z</time>
      </trkpt>
      <trkpt lat="40.930562" lon="0.375094">
        <ele>710.676</ele>
        <time>2016-12-09T10:16:00Z</time>
      </trkpt>
      <trkpt lat="40.930887" lon="0.374793">
        <ele>694.260</ele>
        <time>2016-12-09T10:16:36Z</time>
      </trkpt>
      <trkpt lat="40.930856" lon="0.376242">
        <ele>674.085</ele>
        <time>2016-12-09T10:17:36Z</time>
      </trkpt>
      <trkpt lat="40.930140" lon="0.377305">
        <ele>628.873</ele>
        <time>2016-12-09T10:19:21Z</time>
      </trkpt>
      <trkpt lat="40.929748" lon="0.379702">
        <ele>574.549</ele>
        <time>2016-12-09T10:21:31Z</time>
      </trkpt>
      <trkpt lat="40.928739" lon="0.379139">
        <ele>547.199</ele>
        <time>2016-12-09T10:22:38Z</time>
      </trkpt>
      <trkpt lat="40.927841" lon="0.379604">
        <ele>533.295</ele>
        <time>2016-12-09T10:23:34Z</time>
      </trkpt>
      <trkpt lat="40.928173" lon="0.379696">
        <ele>523.113</ele>
        <time>2016-12-09T10:23:57Z</time>
      </trkpt>
      <trkpt lat="40.928207" lon="0.380733">
        <ele>498.143</ele>
        <time>2016-12-09T10:25:04Z</time>
      </trkpt>
      <trkpt lat="40.926595" lon="0.383248">
        <ele>462.107</ele>
        <time>2016-12-09T10:28:00Z</time>
      </trkpt>
      <trkpt lat="40.926061" lon="0.382849">
        <ele>459.208</ele>
        <time>2016-12-09T10:28:26Z</time>
      </trkpt>
      <trkpt lat="40.925018" lon="0.382885">
        <ele>462.512</ele>
        <time>2016-12-09T10:29:10Z</time>
      </trkpt>
      <trkpt lat="40.923946" lon="0.381785">
        <ele>455.346</ele>
        <time>2016-12-09T10:30:05Z</time>
      </trkpt>
      <trkpt lat="40.923348" lon="0.383787">
        <ele>439.010</ele>
        <time>2016-12-09T10:31:41Z</time>
      </trkpt>
      <trkpt lat="40.924352" lon="0.386407">
        <ele>418.395</ele>
        <time>2016-12-09T10:33:01Z</time>
      </trkpt>
      <trkpt lat="40.924014" lon="0.387289">
        <ele>413.523</ele>
        <time>2016-12-09T10:33:48Z</time>
      </trkpt>
      <trkpt lat="40.923092" lon="0.387636">
        <ele>440.939</ele>
        <time>2016-12-09T10:36:08Z</time>
      </trkpt>
      <trkpt lat="40.921733" lon="0.388942">
        <ele>496.789</ele>
        <time>2016-12-09T10:40:02Z</time>
      </trkpt>
      <trkpt lat="40.921261" lon="0.388295">
        <ele>497.645</ele>
        <time>2016-12-09T10:41:15Z</time>
      </trkpt>
      <trkpt lat="40.921563" lon="0.389107">
        <ele>495.271</ele>
        <time>2016-12-09T10:42:29Z</time>
      </trkpt>
      <trkpt lat="40.920833" lon="0.388442">
        <ele>510.641</ele>
        <time>2016-12-09T10:43:52Z</time>
      </trkpt>
      <trkpt lat="40.920006" lon="0.386613">
        <ele>537.515</ele>
        <time>2016-12-09T10:46:17Z</time>
      </trkpt>
      <trkpt lat="40.919151" lon="0.386211">
        <ele>547.608</ele>
        <time>2016-12-09T10:48:20Z</time>
      </trkpt>
      <trkpt lat="40.919866" lon="0.385455">
        <ele>559.618</ele>
        <time>2016-12-09T10:50:01Z</time>
      </trkpt>
      <trkpt lat="40.919252" lon="0.384225">
        <ele>576.452</ele>
        <time>2016-12-09T10:51:46Z</time>
      </trkpt>
      <trkpt lat="40.919599" lon="0.383869">
        <ele>583.286</ele>
        <time>2016-12-09T10:52:25Z</time>
      </trkpt>
      <trkpt lat="40.919500" lon="0.382705">
        <ele>592.841</ele>
        <time>2016-12-09T10:53:43Z</time>
      </trkpt>
      <trkpt lat="40.918866" lon="0.382099">
        <ele>590.479</ele>
        <time>2016-12-09T10:54:25Z</time>
      </trkpt>
      <trkpt lat="40.918399" lon="0.382227">
        <ele>588.045</ele>
        <time>2016-12-09T10:54:47Z</time>
      </trkpt>
      <trkpt lat="40.918146" lon="0.381669">
        <ele>587.025</ele>
        <time>2016-12-09T10:55:08Z</time>
      </trkpt>
      <trkpt lat="40.916779" lon="0.380761">
        <ele>592.811</ele>
        <time>2016-12-09T10:57:00Z</time>
      </trkpt>
      <trkpt lat="40.916569" lon="0.379385">
        <ele>597.623</ele>
        <time>2016-12-09T10:58:13Z</time>
      </trkpt>
      <trkpt lat="40.915728" lon="0.379244">
        <ele>604.383</ele>
        <time>2016-12-09T10:59:05Z</time>
      </trkpt>
      <trkpt lat="40.915468" lon="0.379731">
        <ele>601.011</ele>
        <time>2016-12-09T10:59:30Z</time>
      </trkpt>
      <trkpt lat="40.914588" lon="0.380045">
        <ele>585.608</ele>
        <time>2016-12-09T11:00:10Z</time>
      </trkpt>
      <trkpt lat="40.914330" lon="0.380862">
        <ele>571.653</ele>
        <time>2016-12-09T11:00:42Z</time>
      </trkpt>
      <trkpt lat="40.914091" lon="0.380819">
        <ele>567.327</ele>
        <time>2016-12-09T11:00:58Z</time>
      </trkpt>
      <trkpt lat="40.913818" lon="0.381762">
        <ele>545.711</ele>
        <time>2016-12-09T11:01:39Z</time>
      </trkpt>
      <trkpt lat="40.913397" lon="0.381800">
        <ele>537.546</ele>
        <time>2016-12-09T11:02:00Z</time>
      </trkpt>
      <trkpt lat="40.913533" lon="0.383396">
        <ele>506.394</ele>
        <time>2016-12-09T11:03:05Z</time>
      </trkpt>
      <trkpt lat="40.912120" lon="0.382848">
        <ele>468.820</ele>
        <time>2016-12-09T11:04:49Z</time>
      </trkpt>
      <trkpt lat="40.909714" lon="0.383712">
        <ele>433.210</ele>
        <time>2016-12-09T11:08:34Z</time>
      </trkpt>
      <trkpt lat="40.909136" lon="0.385597">
        <ele>122.756</ele>
        <time>2016-12-09T07:47:38Z</time>
      </trkpt>
      <trkpt lat="40.908364" lon="0.384793">
        <ele>134.732</ele>
        <time>2016-12-09T07:48:38Z</time>
      </trkpt>
      <trkpt lat="40.906599" lon="0.384284">
        <ele>161.692</ele>
        <time>2016-12-09T07:51:55Z</time>
      </trkpt>
      <trkpt lat="40.905835" lon="0.381988">
        <ele>487.011</ele>
        <time>2016-12-09T07:54:54Z</time>
      </trkpt>
      <trkpt lat="40.905981" lon="0.381203">
        <ele>516.408</ele>
        <time>2016-12-09T07:56:02Z</time>
      </trkpt>
      <trkpt lat="40.906388" lon="0.380930">
        <ele>513.014</ele>
        <time>2016-12-09T07:56:37Z</time>
      </trkpt>
      <trkpt lat="40.906310" lon="0.380467">
        <ele>515.438</ele>
        <time>2016-12-09T07:57:36Z</time>
      </trkpt>
      <trkpt lat="40.906454" lon="0.380730">
        <ele>512.532</ele>
        <time>2016-12-09T07:59:47Z</time>
      </trkpt>
      <trkpt lat="40.906800" lon="0.380436">
        <ele>505.887</ele>
        <time>2016-12-09T08:00:24Z</time>
      </trkpt>
      <trkpt lat="40.906585" lon="0.379543">
        <ele>514.075</ele>
        <time>2016-12-09T08:01:19Z</time>
      </trkpt>
      <trkpt lat="40.905757" lon="0.378559">
        <ele>541.481</ele>
        <time>2016-12-09T08:03:30Z</time>
      </trkpt>
      <trkpt lat="40.905589" lon="0.378898">
        <ele>551.051</ele>
        <time>2016-12-09T08:04:06Z</time>
      </trkpt>
      <trkpt lat="40.905167" lon="0.378518">
        <ele>560.647</ele>
        <time>2016-12-09T08:05:01Z</time>
      </trkpt>
      <trkpt lat="40.905048" lon="0.376653">
        <ele>577.975</ele>
        <time>2016-12-09T08:07:07Z</time>
      </trkpt>
      <trkpt lat="40.905533" lon="0.375278">
        <ele>588.528</ele>
        <time>2016-12-09T08:08:46Z</time>
      </trkpt>
      <trkpt lat="40.905401" lon="0.373503">
        <ele>600.520</ele>
        <time>2016-12-09T08:11:03Z</time>
      </trkpt>
      <trkpt lat="40.906278" lon="0.372502">
        <ele>617.808</ele>
        <time>2016-12-09T08:13:03Z</time>
      </trkpt>
      <trkpt lat="40.906176" lon="0.371941">
        <ele>630.358</ele>
        <time>2016-12-09T08:13:53Z</time>
      </trkpt>
      <trkpt lat="40.906678" lon="0.372425">
        <ele>635.142</ele>
        <time>2016-12-09T08:14:59Z</time>
      </trkpt>
      <trkpt lat="40.907754" lon="0.372294">
        <ele>652.466</ele>
        <time>2016-12-09T08:16:36Z</time>
      </trkpt>
      <trkpt lat="40.908178" lon="0.371697">
        <ele>662.071</ele>
        <time>2016-12-09T08:17:32Z</time>
      </trkpt>
      <trkpt lat="40.908348" lon="0.372565">
        <ele>683.239</ele>
        <time>2016-12-09T08:18:54Z</time>
      </trkpt>
      <trkpt lat="40.908773" lon="0.372726">
        <ele>694.225</ele>
        <time>2016-12-09T08:19:41Z</time>
      </trkpt>
      <trkpt lat="40.909243" lon="0.372322">
        <ele>712.555</ele>
        <time>2016-12-09T08:20:57Z</time>
      </trkpt>
      <trkpt lat="40.909491" lon="0.371327">
        <ele>737.591</ele>
        <time>2016-12-09T08:22:30Z</time>
      </trkpt>
      <trkpt lat="40.910305" lon="0.370650">
        <ele>772.644</ele>
        <time>2016-12-09T08:24:45Z</time>
      </trkpt>
      <trkpt lat="40.910236" lon="0.370112">
        <ele>792.305</ele>
        <time>2016-12-09T08:26:08Z</time>
      </trkpt>
      <trkpt lat="40.911701" lon="0.369806">
        <ele>819.215</ele>
        <time>2016-12-09T08:29:00Z</time>
      </trkpt>
      <trkpt lat="40.912328" lon="0.371537">
        <ele>857.608</ele>
        <time>2016-12-09T08:32:02Z</time>
      </trkpt>
      <trkpt lat="40.913548" lon="0.370706">
        <ele>870.165</ele>
        <time>2016-12-09T08:34:11Z</time>
      </trkpt>
      <trkpt lat="40.913841" lon="0.369885">
        <ele>868.779</ele>
        <time>2016-12-09T08:35:14Z</time>
      </trkpt>
      <trkpt lat="40.914400" lon="0.369532">
        <ele>875.483</ele>
        <time>2016-12-09T08:36:18Z</time>
      </trkpt>
      <trkpt lat="40.915002" lon="0.369745">
        <ele>875.498</ele>
        <time>2016-12-09T08:37:09Z</time>
      </trkpt>
      <trkpt lat="40.915567" lon="0.370733">
        <ele>884.176</ele>
        <time>2016-12-09T08:38:35Z</time>
      </trkpt>
      <trkpt lat="40.917302" lon="0.369611">
        <ele>876.482</ele>
        <time>2016-12-09T08:41:09Z</time>
      </trkpt>
      <trkpt lat="40.918431" lon="0.370441">
        <ele>880.222</ele>
        <time>2016-12-09T08:42:15Z</time>
      </trkpt>
      <trkpt lat="40.919533" lon="0.370502">
        <ele>807.698</ele>
        <time>2016-11-03T07:34:08Z</time>
      </trkpt>
      <trkpt lat="40.921006" lon="0.369083">
        <ele>873.583</ele>
        <time>2016-11-03T07:39:16Z</time>
      </trkpt>
      <trkpt lat="40.919252" lon="0.367269">
        <ele>868.725</ele>
        <time>2016-11-03T07:43:31Z</time>
      </trkpt>
      <trkpt lat="40.917407" lon="0.363967">
        <ele>986.917</ele>
        <time>2016-11-03T07:51:39Z</time>
      </trkpt>
      <trkpt lat="40.915234" lon="0.362162">
        <ele>924.908</ele>
        <time>2016-11-03T07:55:00Z</time>
      </trkpt>
      <trkpt lat="40.914443" lon="0.361012">
        <ele>904.769</ele>
        <time>2016-11-03T07:56:56Z</time>
      </trkpt>
      <trkpt lat="40.913192" lon="0.360164">
        <ele>874.083</ele>
        <time>2016-11-03T07:58:40Z</time>
      </trkpt>
      <trkpt lat="40.912547" lon="0.360150">
        <ele>868.287</ele>
        <time>2016-11-03T07:59:55Z</time>
      </trkpt>
      <trkpt lat="40.912063" lon="0.358738">
        <ele>903.382</ele>
        <time>2016-11-03T08:04:04Z</time>
      </trkpt>
      <trkpt lat="40.909828" lon="0.357635">
        <ele>846.660</ele>
        <time>2016-11-03T08:07:03Z</time>
      </trkpt>
      <trkpt lat="40.909288" lon="0.358055">
        <ele>836.526</ele>
        <time>2016-11-03T08:07:48Z</time>
      </trkpt>
      <trkpt lat="40.909161" lon="0.357215">
        <ele>822.126</ele>
        <time>2016-11-03T08:09:46Z</time>
      </trkpt>
      <trkpt lat="40.908382" lon="0.356812">
        <ele>794.772</ele>
        <time>2016-11-03T08:10:44Z</time>
      </trkpt>
      <trkpt lat="40.907984" lon="0.357060">
        <ele>779.371</ele>
        <time>2016-11-03T08:11:16Z</time>
      </trkpt>
      <trkpt lat="40.906749" lon="0.356474">
        <ele>750.941</ele>
        <time>2016-11-03T08:12:31Z</time>
      </trkpt>
      <trkpt lat="40.904124" lon="0.357989">
        <ele>688.015</ele>
        <time>2016-11-03T08:15:41Z</time>
      </trkpt>
      <trkpt lat="40.903642" lon="0.357897">
        <ele>684.608</ele>
        <time>2016-11-03T08:16:29Z</time>
      </trkpt>
      <trkpt lat="40.904287" lon="0.356299">
        <ele>672.118</ele>
        <time>2016-11-03T08:19:35Z</time>
      </trkpt>
      <trkpt lat="40.903461" lon="0.357111">
        <ele>685.172</ele>
        <time>2016-11-03T08:20:57Z</time>
      </trkpt>
      <trkpt lat="40.901297" lon="0.357609">
        <ele>713.436</ele>
        <time>2016-11-03T08:24:06Z</time>
      </trkpt>
      <trkpt lat="40.898896" lon="0.356696">
        <ele>729.351</ele>
        <time>2016-11-03T08:27:03Z</time>
      </trkpt>
      <trkpt lat="40.901238" lon="0.355679">
        <ele>750.989</ele>
        <time>2016-11-03T08:30:01Z</time>
      </trkpt>
      <trkpt lat="40.901340" lon="0.355158">
        <ele>756.245</ele>
        <time>2016-11-03T08:30:40Z</time>
      </trkpt>
      <trkpt lat="40.900135" lon="0.354514">
        <ele>768.265</ele>
        <time>2016-11-03T08:32:21Z</time>
      </trkpt>
      <trkpt lat="40.899392" lon="0.354575">
        <ele>773.561</ele>
        <time>2016-11-03T08:33:20Z</time>
      </trkpt>
      <trkpt lat="40.898521" lon="0.352958">
        <ele>785.165</ele>
        <time>2016-11-03T08:35:12Z</time>
      </trkpt>
      <trkpt lat="40.896772" lon="0.351842">
        <ele>787.068</ele>
        <time>2016-11-03T08:37:25Z</time>
      </trkpt>
      <trkpt lat="40.895942" lon="0.352059">
        <ele>785.114</ele>
        <time>2016-11-03T08:38:17Z</time>
      </trkpt>
      <trkpt lat="40.894582" lon="0.354263">
        <ele>777.808</ele>
        <time>2016-11-03T08:39:47Z</time>
      </trkpt>
      <trkpt lat="40.892845" lon="0.353984">
        <ele>771.697</ele>
        <time>2016-11-03T08:40:59Z</time>
      </trkpt>
      <trkpt lat="40.892058" lon="0.354737">
        <ele>764.991</ele>
        <time>2016-11-03T08:41:40Z</time>
      </trkpt>
      <trkpt lat="40.891258" lon="0.353793">
        <ele>757.775</ele>
        <time>2016-11-03T08:42:24Z</time>
      </trkpt>
      <trkpt lat="40.888871" lon="0.352845">
        <ele>751.460</ele>
        <time>2016-11-03T08:44:04Z</time>
      </trkpt>
      <trkpt lat="40.889017" lon="0.351241">
        <ele>754.818</ele>
        <time>2016-11-03T08:45:03Z</time>
      </trkpt>
      <trkpt lat="40.889544" lon="0.350741">
        <ele>752.484</ele>
        <time>2016-11-03T08:45:27Z</time>
      </trkpt>
      <trkpt lat="40.889414" lon="0.349021">
        <ele>743.294</ele>
        <time>2016-11-03T08:46:15Z</time>
      </trkpt>
      <trkpt lat="40.888208" lon="0.347439">
        <ele>741.880</ele>
        <time>2016-11-03T08:47:24Z</time>
      </trkpt>
      <trkpt lat="40.886861" lon="0.346834">
        <ele>741.897</ele>
        <time>2016-11-03T08:48:20Z</time>
      </trkpt>
      <trkpt lat="40.888188" lon="0.345613">
        <ele>755.723</ele>
        <time>2016-11-03T08:50:27Z</time>
      </trkpt>
      <trkpt lat="40.887938" lon="0.343840">
        <ele>765.325</ele>
        <time>2016-11-03T08:51:52Z</time>
      </trkpt>
      <trkpt lat="40.888340" lon="0.343202">
        <ele>770.608</ele>
        <time>2016-11-03T08:52:45Z</time>
      </trkpt>
      <trkpt lat="40.888207" lon="0.342101">
        <ele>777.850</ele>
        <time>2016-11-03T08:53:45Z</time>
      </trkpt>
      <trkpt lat="40.887578" lon="0.342032">
        <ele>786.584</ele>
        <time>2016-11-03T08:54:42Z</time>
      </trkpt>
      <trkpt lat="40.887844" lon="0.341481">
        <ele>798.058</ele>
        <time>2016-11-03T08:55:30Z</time>
      </trkpt>
      <trkpt lat="40.887525" lon="0.338672">
        <ele>825.923</ele>
        <time>2016-11-03T08:58:27Z</time>
      </trkpt>
      <trkpt lat="40.886819" lon="0.337098">
        <ele>829.311</ele>
        <time>2016-11-03T09:00:55Z</time>
      </trkpt>
      <trkpt lat="40.887347" lon="0.336266">
        <ele>839.437</ele>
        <time>2016-11-03T09:02:19Z</time>
      </trkpt>
      <trkpt lat="40.886190" lon="0.336630">
        <ele>861.097</ele>
        <time>2016-11-03T09:04:13Z</time>
      </trkpt>
      <trkpt lat="40.885996" lon="0.334776">
        <ele>893.743</ele>
        <time>2016-11-03T09:06:48Z</time>
      </trkpt>
      <trkpt lat="40.886479" lon="0.333558">
        <ele>908.157</ele>
        <time>2016-11-03T09:08:34Z</time>
      </trkpt>
      <trkpt lat="40.885797" lon="0.333416">
        <ele>924.900</ele>
        <time>2016-11-03T09:09:52Z</time>
      </trkpt>
      <trkpt lat="40.886274" lon="0.332052">
        <ele>942.220</ele>
        <time>2016-11-03T09:11:52Z</time>
      </trkpt>
      <trkpt lat="40.885856" lon="0.331177">
        <ele>963.908</ele>
        <time>2016-11-03T09:13:47Z</time>
      </trkpt>
      <trkpt lat="40.886170" lon="0.329505">
        <ele>965.876</ele>
        <time>2016-11-03T09:16:38Z</time>
      </trkpt>
      <trkpt lat="40.885461" lon="0.328565">
        <ele>952.820</ele>
        <time>2016-11-03T09:17:39Z</time>
      </trkpt>
      <trkpt lat="40.883982" lon="0.328326">
        <ele>929.364</ele>
        <time>2016-11-03T09:18:57Z</time>
      </trkpt>
      <trkpt lat="40.883955" lon="0.328674">
        <ele>929.369</ele>
        <time>2016-11-03T09:19:12Z</time>
      </trkpt>
      <trkpt lat="40.883163" lon="0.328584">
        <ele>916.337</ele>
        <time>2016-11-03T09:19:56Z</time>
      </trkpt>
      <trkpt lat="40.882358" lon="0.329031">
        <ele>906.223</ele>
        <time>2016-11-03T09:20:35Z</time>
      </trkpt>
      <trkpt lat="40.882493" lon="0.328684">
        <ele>898.093</ele>
        <time>2016-11-03T09:20:57Z</time>
      </trkpt>
      <trkpt lat="40.881731" lon="0.328482">
        <ele>883.179</ele>
        <time>2016-11-03T09:21:41Z</time>
      </trkpt>
      <trkpt lat="40.882029" lon="0.328055">
        <ele>874.016</ele>
        <time>2016-11-03T09:22:14Z</time>
      </trkpt>
      <trkpt lat="40.880664" lon="0.327467">
        <ele>854.376</ele>
        <time>2016-11-03T09:23:40Z</time>
      </trkpt>
      <trkpt lat="40.879319" lon="0.325544">
        <ele>835.513</ele>
        <time>2016-11-03T09:25:21Z</time>
      </trkpt>
      <trkpt lat="40.878908" lon="0.325444">
        <ele>829.308</ele>
        <time>2016-11-03T09:25:51Z</time>
      </trkpt>
      <trkpt lat="40.878946" lon="0.324937">
        <ele>818.212</ele>
        <time>2016-11-03T09:26:22Z</time>
      </trkpt>
      <trkpt lat="40.878301" lon="0.323985">
        <ele>800.976</ele>
        <time>2016-11-03T09:27:21Z</time>
      </trkpt>
      <trkpt lat="40.877474" lon="0.323756">
        <ele>788.910</ele>
        <time>2016-11-03T09:28:00Z</time>
      </trkpt>
      <trkpt lat="40.877565" lon="0.323150">
        <ele>777.475</ele>
        <time>2016-11-03T09:28:35Z</time>
      </trkpt>
      <trkpt lat="40.877041" lon="0.323183">
        <ele>770.253</ele>
        <time>2016-11-03T09:28:59Z</time>
      </trkpt>
      <trkpt lat="40.877223" lon="0.322879">
        <ele>763.959</ele>
        <time>2016-11-03T09:29:21Z</time>
      </trkpt>
      <trkpt lat="40.876777" lon="0.322900">
        <ele>755.329</ele>
        <time>2016-11-03T09:29:48Z</time>
      </trkpt>
      <trkpt lat="40.876940" lon="0.322373">
        <ele>746.125</ele>
        <time>2016-11-03T09:30:12Z</time>
      </trkpt>
      <trkpt lat="40.876560" lon="0.322427">
        <ele>740.883</ele>
        <time>2016-11-03T09:30:28Z</time>
      </trkpt>
      <trkpt lat="40.875142" lon="0.320287">
        <ele>688.025</ele>
        <time>2016-11-03T09:33:09Z</time>
      </trkpt>
      <trkpt lat="40.874154" lon="0.320437">
        <ele>675.917</ele>
        <time>2016-11-03T09:34:37Z</time>
      </trkpt>
      <trkpt lat="40.873822" lon="0.319056">
        <ele>680.808</ele>
        <time>2016-11-03T09:35:33Z</time>
      </trkpt>
      <trkpt lat="40.874292" lon="0.317715">
        <ele>682.269</ele>
        <time>2016-11-03T09:36:23Z</time>
      </trkpt>
      <trkpt lat="40.873019" lon="0.313618">
        <ele>694.793</ele>
        <time>2016-11-03T09:40:05Z</time>
      </trkpt>
      <trkpt lat="40.872903" lon="0.313997">
        <ele>689.417</ele>
        <time>2016-11-03T09:40:25Z</time>
      </trkpt>
      <trkpt lat="40.870334" lon="0.313372">
        <ele>658.282</ele>
        <time>2016-11-03T09:42:15Z</time>
      </trkpt>
      <trkpt lat="40.869720" lon="0.313754">
        <ele>650.060</ele>
        <time>2016-11-03T09:42:43Z</time>
      </trkpt>
      <trkpt lat="40.870018" lon="0.313249">
        <ele>643.346</ele>
        <time>2016-11-03T09:43:08Z</time>
      </trkpt>
      <trkpt lat="40.869078" lon="0.313609">
        <ele>635.136</ele>
        <time>2016-11-03T09:43:49Z</time>
      </trkpt>
      <trkpt lat="40.869495" lon="0.312628">
        <ele>623.132</ele>
        <time>2016-11-03T09:44:31Z</time>
      </trkpt>
      <trkpt lat="40.868060" lon="0.309085">
        <ele>564.042</ele>
        <time>2016-11-03T09:47:18Z</time>
      </trkpt>
      <trkpt lat="40.867493" lon="0.309373">
        <ele>555.822</ele>
        <time>2016-11-03T09:52:55Z</time>
      </trkpt>
      <trkpt lat="40.867783" lon="0.309349">
        <ele>554.314</ele>
        <time>2016-11-03T09:59:16Z</time>
      </trkpt>
      <trkpt lat="40.867711" lon="0.311188">
        <ele>560.608</ele>
        <time>2016-11-03T10:00:57Z</time>
      </trkpt>
      <trkpt lat="40.866993" lon="0.314523">
        <ele>562.065</ele>
        <time>2016-11-03T10:04:08Z</time>
      </trkpt>
      <trkpt lat="40.867608" lon="0.315943">
        <ele>567.389</ele>
        <time>2016-11-03T10:05:45Z</time>
      </trkpt>
      <trkpt lat="40.867273" lon="0.316682">
        <ele>568.843</ele>
        <time>2016-11-03T10:06:47Z</time>
      </trkpt>
      <trkpt lat="40.867886" lon="0.318480">
        <ele>575.098</ele>
        <time>2016-11-03T10:09:15Z</time>
      </trkpt>
      <trkpt lat="40.867299" lon="0.319723">
        <ele>583.286</ele>
        <time>2016-11-03T10:11:18Z</time>
      </trkpt>
      <trkpt lat="40.866992" lon="0.321501">
        <ele>592.332</ele>
        <time>2016-11-03T10:13:23Z</time>
      </trkpt>
      <trkpt lat="40.866225" lon="0.321274">
        <ele>598.172</ele>
        <time>2016-11-03T10:14:19Z</time>
      </trkpt>
      <trkpt lat="40.865534" lon="0.322041">
        <ele>601.468</ele>
        <time>2016-11-03T10:15:31Z</time>
      </trkpt>
      <trkpt lat="40.865227" lon="0.323123">
        <ele>608.215</ele>
        <time>2016-11-03T10:16:51Z</time>
      </trkpt>
      <trkpt lat="40.865329" lon="0.324287">
        <ele>613.565</ele>
        <time>2016-11-03T10:18:11Z</time>
      </trkpt>
      <trkpt lat="40.864940" lon="0.326256">
        <ele>630.811</ele>
        <time>2016-11-03T10:21:07Z</time>
      </trkpt>
      <trkpt lat="40.866165" lon="0.326064">
        <ele>638.508</ele>
        <time>2016-11-03T10:23:02Z</time>
      </trkpt>
      <trkpt lat="40.866810" lon="0.327276">
        <ele>647.622</ele>
        <time>2016-11-03T10:24:40Z</time>
      </trkpt>
      <trkpt lat="40.866700" lon="0.328218">
        <ele>653.456</ele>
        <time>2016-11-03T10:25:43Z</time>
      </trkpt>
      <trkpt lat="40.865668" lon="0.328909">
        <ele>662.570</ele>
        <time>2016-11-03T10:27:21Z</time>
      </trkpt>
      <trkpt lat="40.866181" lon="0.331329">
        <ele>672.695</ele>
        <time>2016-11-03T10:30:01Z</time>
      </trkpt>
      <trkpt lat="40.865797" lon="0.332684">
        <ele>683.623</ele>
        <time>2016-11-03T10:32:42Z</time>
      </trkpt>
      <trkpt lat="40.866009" lon="0.334103">
        <ele>700.069</ele>
        <time>2016-11-03T10:34:58Z</time>
      </trkpt>
      <trkpt lat="40.864039" lon="0.336275">
        <ele>768.259</ele>
        <time>2016-11-03T10:42:56Z</time>
      </trkpt>
      <trkpt lat="40.865404" lon="0.340540">
        <ele>799.075</ele>
        <time>2016-11-03T10:47:58Z</time>
      </trkpt>
      <trkpt lat="40.865041" lon="0.341986">
        <ele>808.691</ele>
        <time>2016-11-03T10:49:42Z</time>
      </trkpt>
      <trkpt lat="40.866377" lon="0.345919">
        <ele>832.281</ele>
        <time>2016-11-03T10:54:02Z</time>
      </trkpt>
      <trkpt lat="40.865740" lon="0.347271">
        <ele>844.719</ele>
        <time>2016-11-03T10:55:55Z</time>
      </trkpt>
      <trkpt lat="40.866330" lon="0.348093">
        <ele>857.208</ele>
        <time>2016-11-03T11:00:25Z</time>
      </trkpt>
      <trkpt lat="40.865854" lon="0.348375">
        <ele>864.480</ele>
        <time>2016-11-03T11:02:10Z</time>
      </trkpt>
      <trkpt lat="40.866371" lon="0.348982">
        <ele>872.514</ele>
        <time>2016-11-03T11:03:26Z</time>
      </trkpt>
      <trkpt lat="40.866472" lon="0.350830">
        <ele>894.618</ele>
        <time>2016-11-03T11:06:42Z</time>
      </trkpt>
      <trkpt lat="40.867418" lon="0.351713">
        <ele>908.143</ele>
        <time>2016-11-03T11:09:14Z</time>
      </trkpt>
      <trkpt lat="40.868036" lon="0.354262">
        <ele>957.191</ele>
        <time>2016-11-03T11:13:21Z</time>
      </trkpt>
      <trkpt lat="40.868619" lon="0.355142">
        <ele>977.897</ele>
        <time>2016-11-03T11:15:15Z</time>
      </trkpt>
      <trkpt lat="40.868630" lon="0.355811">
        <ele>987.957</ele>
        <time>2016-11-03T11:16:12Z</time>
      </trkpt>
      <trkpt lat="40.869108" lon="0.356233">
        <ele>997.513</ele>
        <time>2016-11-03T11:17:19Z</time>
      </trkpt>
      <trkpt lat="40.868905" lon="0.356387">
        <ele>1004.792</ele>
        <time>2016-11-03T11:17:56Z</time>
      </trkpt>
      <trkpt lat="40.869364" lon="0.356375">
        <ele>1023.973</ele>
        <time>2016-11-03T11:22:39Z</time>
      </trkpt>
      <trkpt lat="40.870738" lon="0.358249">
        <ele>1030.720</ele>
        <time>2016-11-03T11:28:21Z</time>
      </trkpt>
      <trkpt lat="40.872029" lon="0.358828">
        <ele>1039.308</ele>
        <time>2016-11-03T11:30:04Z</time>
      </trkpt>
      <trkpt lat="40.872412" lon="0.358545">
        <ele>1046.180</ele>
        <time>2016-11-03T11:30:39Z</time>
      </trkpt>
      <trkpt lat="40.874311" lon="0.360859">
        <ele>1078.774</ele>
        <time>2016-11-03T11:34:20Z</time>
      </trkpt>
      <trkpt lat="40.876653" lon="0.361334">
        <ele>1093.238</ele>
        <time>2016-11-03T11:37:40Z</time>
      </trkpt>
      <trkpt lat="40.877292" lon="0.362407">
        <ele>1100.483</ele>
        <time>2016-11-03T11:39:01Z</time>
      </trkpt>
      <trkpt lat="40.878426" lon="0.362655">
        <ele>1127.331</ele>
        <time>2016-11-03T11:41:12Z</time>
      </trkpt>
      <trkpt lat="40.878627" lon="0.365133">
        <ele>1112.257</ele>
        <time>2016-11-10T14:48:15Z</time>
      </trkpt>
      <trkpt lat="40.878776" lon="0.364867">
        <ele>1105.687</ele>
        <time>2016-11-10T14:48:35Z</time>
      </trkpt>
      <trkpt lat="40.879631" lon="0.367644">
        <ele>1027.653</ele>
        <time>2016-11-10T14:52:27Z</time>
      </trkpt>
      <trkpt lat="40.879701" lon="0.370322">
        <ele>951.432</ele>
        <time>2016-11-10T14:55:36Z</time>
      </trkpt>
      <trkpt lat="40.878970" lon="0.370255">
        <ele>923.692</ele>
        <time>2016-11-10T14:56:41Z</time>
      </trkpt>
      <trkpt lat="40.879330" lon="0.371022">
        <ele>904.211</ele>
        <time>2016-11-10T14:57:30Z</time>
      </trkpt>
      <trkpt lat="40.878517" lon="0.370725">
        <ele>880.608</ele>
        <time>2016-11-10T14:58:28Z</time>
      </trkpt>
      <trkpt lat="40.878700" lon="0.371613">
        <ele>856.434</ele>
        <time>2016-11-10T14:59:35Z</time>
      </trkpt>
      <trkpt lat="40.877634" lon="0.374229">
        <ele>789.868</ele>
        <time>2016-11-10T15:02:55Z</time>
      </trkpt>
      <trkpt lat="40.876869" lon="0.375285">
        <ele>749.422</ele>
        <time>2016-11-10T15:04:45Z</time>
      </trkpt>
      <trkpt lat="40.876673" lon="0.376165">
        <ele>722.817</ele>
        <time>2016-11-10T15:06:06Z</time>
      </trkpt>
      <trkpt lat="40.875979" lon="0.376116">
        <ele>698.425</ele>
        <time>2016-11-10T15:07:18Z</time>
      </trkpt>
      <trkpt lat="40.875716" lon="0.377704">
        <ele>679.281</ele>
        <time>2016-11-10T15:08:34Z</time>
      </trkpt>
      <trkpt lat="40.875270" lon="0.378140">
        <ele>671.011</ele>
        <time>2016-11-10T15:09:12Z</time>
      </trkpt>
      <trkpt lat="40.875402" lon="0.378598">
        <ele>665.087</ele>
        <time>2016-11-10T15:09:36Z</time>
      </trkpt>
      <trkpt lat="40.874415" lon="0.379136">
        <ele>639.031</ele>
        <time>2016-11-10T15:11:03Z</time>
      </trkpt>
      <trkpt lat="40.874221" lon="0.378907">
        <ele>630.861</ele>
        <time>2016-11-10T15:11:36Z</time>
      </trkpt>
      <trkpt lat="40.873734" lon="0.379707">
        <ele>610.007</ele>
        <time>2016-11-10T15:12:51Z</time>
      </trkpt>
      <trkpt lat="40.872570" lon="0.379535">
        <ele>589.208</ele>
        <time>2016-11-10T15:14:05Z</time>
      </trkpt>
      <trkpt lat="40.871786" lon="0.380293">
        <ele>575.844</ele>
        <time>2016-11-10T15:15:09Z</time>
      </trkpt>
      <trkpt lat="40.871370" lon="0.381289">
        <ele>564.888</ele>
        <time>2016-11-10T15:16:05Z</time>
      </trkpt>
      <trkpt lat="40.871685" lon="0.382411">
        <ele>548.412</ele>
        <time>2016-11-10T15:17:18Z</time>
      </trkpt>
      <trkpt lat="40.873538" lon="0.385053">
        <ele>493.477</ele>
        <time>2016-11-10T15:20:45Z</time>
      </trkpt>
      <trkpt lat="40.873479" lon="0.386717">
        <ele>468.255</ele>
        <time>2016-11-10T15:22:18Z</time>
      </trkpt>
      <trkpt lat="40.873720" lon="0.386739">
        <ele>458.891</ele>
        <time>2016-11-10T15:22:50Z</time>
      </trkpt>
      <trkpt lat="40.873819" lon="0.390716">
        <ele>377.891</ele>
        <time>2016-11-10T15:27:21Z</time>
      </trkpt>
      <trkpt lat="40.873522" lon="0.392799">
        <ele>352.647</ele>
        <time>2016-11-10T15:29:13Z</time>
      </trkpt>
      <trkpt lat="40.872899" lon="0.393330">
        <ele>344.223</ele>
        <time>2016-11-10T15:29:57Z</time>
      </trkpt>
      <trkpt lat="40.872121" lon="0.397256">
        <ele>322.283</ele>
        <time>2016-11-10T15:32:35Z</time>
      </trkpt>
      <trkpt lat="40.872749" lon="0.399141">
        <ele>316.211</ele>
        <time>2016-11-10T15:34:20Z</time>
      </trkpt>
      <trkpt lat="40.874163" lon="0.400024">
        <ele>348.808</ele>
        <time>2016-11-10T15:44:41Z</time>
      </trkpt>
      <trkpt lat="40.875224" lon="0.400033">
        <ele>348.883</ele>
        <time>2016-11-10T15:46:02Z</time>
      </trkpt>
      <trkpt lat="40.875581" lon="0.398514">
        <ele>338.897</ele>
        <time>2016-11-10T15:47:19Z</time>
      </trkpt>
      <trkpt lat="40.877342" lon="0.400022">
        <ele>329.441</ele>
        <time>2016-11-10T15:49:52Z</time>
      </trkpt>
      <trkpt lat="40.878118" lon="0.399017">
        <ele>349.276</ele>
        <time>2016-11-10T15:51:44Z</time>
      </trkpt>
      <trkpt lat="40.878342" lon="0.399319">
        <ele>354.444</ele>
        <time>2016-11-10T15:52:14Z</time>
      </trkpt>
      <trkpt lat="40.878919" lon="0.398601">
        <ele>376.080</ele>
        <time>2016-11-10T15:54:03Z</time>
      </trkpt>
      <trkpt lat="40.878957" lon="0.399182">
        <ele>384.690</ele>
        <time>2016-11-10T15:54:57Z</time>
      </trkpt>
      <trkpt lat="40.879422" lon="0.398327">
        <ele>402.486</ele>
        <time>2016-11-10T15:56:46Z</time>
      </trkpt>
      <trkpt lat="40.879473" lon="0.397134">
        <ele>421.082</ele>
        <time>2016-11-10T15:58:40Z</time>
      </trkpt>
      <trkpt lat="40.879872" lon="0.396717">
        <ele>451.043</ele>
        <time>2016-11-10T16:01:39Z</time>
      </trkpt>
      <trkpt lat="40.880149" lon="0.397028">
        <ele>454.817</ele>
        <time>2016-11-10T16:02:21Z</time>
      </trkpt>
      <trkpt lat="40.880523" lon="0.394848">
        <ele>496.008</ele>
        <time>2016-11-10T16:06:48Z</time>
      </trkpt>
      <trkpt lat="40.881532" lon="0.394761">
        <ele>510.059</ele>
        <time>2016-11-10T16:08:35Z</time>
      </trkpt>
      <trkpt lat="40.881213" lon="0.392847">
        <ele>548.063</ele>
        <time>2016-11-10T16:12:23Z</time>
      </trkpt>
      <trkpt lat="40.882120" lon="0.390742">
        <ele>549.037</ele>
        <time>2016-11-10T16:14:59Z</time>
      </trkpt>
      <trkpt lat="40.882129" lon="0.389553">
        <ele>561.432</ele>
        <time>2016-11-10T16:16:46Z</time>
      </trkpt>
      <trkpt lat="40.882870" lon="0.389353">
        <ele>585.040</ele>
        <time>2016-11-10T16:18:29Z</time>
      </trkpt>
      <trkpt lat="40.883707" lon="0.389885">
        <ele>600.296</ele>
        <time>2016-11-10T16:20:39Z</time>
      </trkpt>
      <trkpt lat="40.884621" lon="0.388506">
        <ele>636.266</ele>
        <time>2016-11-10T16:24:36Z</time>
      </trkpt>
      <trkpt lat="40.885313" lon="0.389803">
        <ele>633.842</ele>
        <time>2016-11-10T16:26:25Z</time>
      </trkpt>
      <trkpt lat="40.885083" lon="0.391013">
        <ele>629.093</ele>
        <time>2016-11-10T16:27:40Z</time>
      </trkpt>
      <trkpt lat="40.885319" lon="0.391870">
        <ele>629.265</ele>
        <time>2016-11-10T16:28:38Z</time>
      </trkpt>
      <trkpt lat="40.886332" lon="0.391060">
        <ele>648.221</ele>
        <time>2016-11-10T16:30:40Z</time>
      </trkpt>
      <trkpt lat="40.886697" lon="0.391439">
        <ele>653.608</ele>
        <time>2016-11-10T16:31:45Z</time>
      </trkpt>
      <trkpt lat="40.887441" lon="0.390736">
        <ele>674.240</ele>
        <time>2016-11-10T16:33:27Z</time>
      </trkpt>
      <trkpt lat="40.888796" lon="0.391837">
        <ele>698.054</ele>
        <time>2016-11-10T16:36:48Z</time>
      </trkpt>
      <trkpt lat="40.890175" lon="0.391781">
        <ele>737.018</ele>
        <time>2016-11-10T16:40:23Z</time>
      </trkpt>
      <trkpt lat="40.889791" lon="0.394527">
        <ele>754.693</ele>
        <time>2016-11-10T16:43:49Z</time>
      </trkpt>
      <trkpt lat="40.890916" lon="0.397146">
        <ele>723.631</ele>
        <time>2016-11-10T16:46:53Z</time>
      </trkpt>
      <trkpt lat="40.890351" lon="0.398080">
        <ele>705.837</ele>
        <time>2016-11-10T16:48:05Z</time>
      </trkpt>
      <trkpt lat="40.890622" lon="0.398357">
        <ele>697.467</ele>
        <time>2016-11-10T16:49:03Z</time>
      </trkpt>
      <trkpt lat="40.890302" lon="0.399464">
        <ele>717.443</ele>
        <time>2016-11-10T16:51:24Z</time>
      </trkpt>
      <trkpt lat="40.890561" lon="0.401773">
        <ele>710.438</ele>
        <time>2016-11-10T16:53:33Z</time>
      </trkpt>
      <trkpt lat="40.891492" lon="0.402911">
        <ele>689.670</ele>
        <time>2016-11-10T16:55:39Z</time>
      </trkpt>
      <trkpt lat="40.892109" lon="0.403029">
        <ele>680.817</ele>
        <time>2016-11-10T16:56:27Z</time>
      </trkpt>
      <trkpt lat="40.892737" lon="0.402307">
        <ele>671.208</ele>
        <time>2016-11-10T16:57:28Z</time>
      </trkpt>
      <trkpt lat="40.893274" lon="0.402768">
        <ele>661.034</ele>
        <time>2016-11-10T16:58:09Z</time>
      </trkpt>
      <trkpt lat="40.894440" lon="0.401642">
        <ele>659.298</ele>
        <time>2016-11-10T17:01:03Z</time>
      </trkpt>
      <trkpt lat="40.894873" lon="0.402078">
        <ele>674.612</ele>
        <time>2016-11-10T17:02:23Z</time>
      </trkpt>
      <trkpt lat="40.894978" lon="0.403008">
        <ele>682.837</ele>
        <time>2016-11-10T17:03:38Z</time>
      </trkpt>
      <trkpt lat="40.895948" lon="0.404250">
        <ele>711.435</ele>
        <time>2016-11-10T17:06:26Z</time>
      </trkpt>
      <trkpt lat="40.898096" lon="0.403976">
        <ele>735.041</ele>
        <time>2016-11-10T17:09:44Z</time>
      </trkpt>
      <trkpt lat="40.898699" lon="0.404909">
        <ele>739.861</ele>
        <time>2016-11-10T17:11:01Z</time>
      </trkpt>
      <trkpt lat="40.901789" lon="0.406765">
        <ele>765.257</ele>
        <time>2016-11-10T17:16:32Z</time>
      </trkpt>
      <trkpt lat="40.901905" lon="0.407478">
        <ele>765.267</ele>
        <time>2016-11-10T17:17:17Z</time>
      </trkpt>
      <trkpt lat="40.903469" lon="0.409337">
        <ele>763.881</ele>
        <time>2016-11-10T17:20:06Z</time>
      </trkpt>
      <trkpt lat="40.902103" lon="0.411781">
        <ele>834.819</ele>
        <time>2016-11-10T17:28:27Z</time>
      </trkpt>
      <trkpt lat="40.901514" lon="0.411645">
        <ele>837.808</ele>
        <time>2016-11-10T17:29:25Z</time>
      </trkpt>
      <trkpt lat="40.900994" lon="0.412373">
        <ele>832.457</ele>
        <time>2016-11-10T17:30:31Z</time>
      </trkpt>
      <trkpt lat="40.900952" lon="0.414314">
        <ele>803.291</ele>
        <time>2016-11-10T17:32:35Z</time>
      </trkpt>
      <trkpt lat="40.900300" lon="0.415185">
        <ele>786.695</ele>
        <time>2016-11-10T17:33:48Z</time>
      </trkpt>
      <trkpt lat="40.899611" lon="0.418271">
        <ele>780.830</ele>
        <time>2016-11-10T17:37:24Z</time>
      </trkpt>
      <trkpt lat="40.900661" lon="0.419331">
        <ele>772.418</ele>
        <time>2016-11-10T17:39:00Z</time>
      </trkpt>
      <trkpt lat="40.901323" lon="0.420871">
        <ele>759.844</ele>
        <time>2016-11-10T17:40:29Z</time>
      </trkpt>
      <trkpt lat="40.902317" lon="0.420686">
        <ele>741.824</ele>
        <time>2016-11-10T17:42:11Z</time>
      </trkpt>
      <trkpt lat="40.903534" lon="0.421773">
        <ele>704.470</ele>
        <time>2016-11-10T17:44:30Z</time>
      </trkpt>
      <trkpt lat="40.903786" lon="0.424185">
        <ele>678.214</ele>
        <time>2016-11-10T17:47:03Z</time>
      </trkpt>
      <trkpt lat="40.903166" lon="0.425343">
        <ele>667.854</ele>
        <time>2016-11-10T17:48:27Z</time>
      </trkpt>
      <trkpt lat="40.901458" lon="0.425064">
        <ele>633.009</ele>
        <time>2016-11-10T17:51:20Z</time>
      </trkpt>
      <trkpt lat="40.901547" lon="0.428341">
        <ele>573.208</ele>
        <time>2016-11-10T17:54:39Z</time>
      </trkpt>
      <trkpt lat="40.901191" lon="0.428265">
        <ele>557.022</ele>
        <time>2016-11-10T17:55:34Z</time>
      </trkpt>
      <trkpt lat="40.901102" lon="0.429258">
        <ele>534.016</ele>
        <time>2016-11-10T17:56:55Z</time>
      </trkpt>
      <trkpt lat="40.900809" lon="0.429248">
        <ele>522.680</ele>
        <time>2016-11-10T17:57:34Z</time>
      </trkpt>
      <trkpt lat="40.900837" lon="0.429630">
        <ele>513.645</ele>
        <time>2016-11-10T17:58:05Z</time>
      </trkpt>
      <trkpt lat="40.900161" lon="0.429809">
        <ele>488.473</ele>
        <time>2016-11-10T17:59:41Z</time>
      </trkpt>
      <trkpt lat="40.900439" lon="0.430589">
        <ele>469.639</ele>
        <time>2016-11-10T18:00:47Z</time>
      </trkpt>
      <trkpt lat="40.899213" lon="0.430522">
        <ele>444.639</ele>
        <time>2016-11-10T18:02:56Z</time>
      </trkpt>
      <trkpt lat="40.899140" lon="0.431682">
        <ele>410.285</ele>
        <time>2016-11-10T18:07:01Z</time>
      </trkpt>
      <trkpt lat="40.899617" lon="0.432702">
        <ele>411.049</ele>
        <time>2016-11-10T18:10:22Z</time>
      </trkpt>
      <trkpt lat="40.898883" lon="0.435040">
        <ele>450.602</ele>
        <time>2016-11-10T18:14:39Z</time>
      </trkpt>
      <trkpt lat="40.899984" lon="0.435908">
        <ele>448.422</ele>
        <time>2016-11-10T18:16:22Z</time>
      </trkpt>
      <trkpt lat="40.899772" lon="0.435893">
        <ele>446.408</ele>
        <time>2016-11-10T18:16:48Z</time>
      </trkpt>
      <trkpt lat="40.900232" lon="0.436750">
        <ele>439.455</ele>
        <time>2016-11-10T18:17:58Z</time>
      </trkpt>
      <trkpt lat="40.900622" lon="0.436521">
        <ele>435.849</ele>
        <time>2016-11-10T18:18:33Z</time>
      </trkpt>
      <trkpt lat="40.901439" lon="0.437229">
        <ele>430.063</ele>
        <time>2016-11-10T18:19:46Z</time>
      </trkpt>
      <trkpt lat="40.900996" lon="0.438529">
        <ele>417.438</ele>
        <time>2016-11-10T18:21:13Z</time>
      </trkpt>
      <trkpt lat="40.900777" lon="0.437790">
        <ele>407.076</ele>
        <time>2016-11-10T18:22:03Z</time>
      </trkpt>
      <trkpt lat="40.900692" lon="0.439003">
        <ele>399.632</ele>
        <time>2016-11-10T18:23:07Z</time>
      </trkpt>
      <trkpt lat="40.901616" lon="0.439476">
        <ele>390.482</ele>
        <time>2016-11-10T18:24:13Z</time>
      </trkpt>
      <trkpt lat="40.902080" lon="0.440688">
        <ele>379.428</ele>
        <time>2016-11-10T18:25:26Z</time>
      </trkpt>
      <trkpt lat="40.901657" lon="0.440740">
        <ele>372.071</ele>
        <time>2016-11-10T18:25:59Z</time>
      </trkpt>
      <trkpt lat="40.901911" lon="0.441397">
        <ele>365.241</ele>
        <time>2016-11-10T18:26:33Z</time>
      </trkpt>
      <trkpt lat="40.901533" lon="0.442375">
        <ele>353.415</ele>
        <time>2016-11-10T18:27:23Z</time>
      </trkpt>
      <trkpt lat="40.901821" lon="0.442639">
        <ele>348.208</ele>
        <time>2016-11-10T18:27:43Z</time>
      </trkpt>
      <trkpt lat="40.901974" lon="0.443918">
        <ele>331.418</ele>
        <time>2016-11-10T18:28:42Z</time>
      </trkpt>
      <trkpt lat="40.902783" lon="0.445678">
        <ele>307.292</ele>
        <time>2016-11-10T18:30:08Z</time>
      </trkpt>
      <trkpt lat="40.904059" lon="0.445086">
        <ele>287.666</ele>
        <time>2016-11-10T18:31:22Z</time>
      </trkpt>
      <trkpt lat="40.902923" lon="0.447444">
        <ele>261.271</ele>
        <time>2016-11-10T18:33:20Z</time>
      </trkpt>
      <trkpt lat="40.902794" lon="0.448748">
        <ele>251.249</ele>
        <time>2016-11-10T18:34:24Z</time>
      </trkpt>
      <trkpt lat="40.903325" lon="0.449754">
        <ele>239.485</ele>
        <time>2016-11-10T18:35:21Z</time>
      </trkpt>
      <trkpt lat="40.903433" lon="0.449314">
        <ele>234.055</ele>
        <time>2016-11-10T18:35:44Z</time>
      </trkpt>
      <trkpt lat="40.904742" lon="0.451284">
        <ele>213.071</ele>
        <time>2016-11-10T18:37:45Z</time>
      </trkpt>
      <trkpt lat="40.905951" lon="0.454482">
        <ele>191.284</ele>
        <time>2016-11-10T18:40:05Z</time>
      </trkpt>
      <trkpt lat="40.906738" lon="0.454726">
        <ele>182.607</ele>
        <time>2016-11-10T18:41:03Z</time>
      </trkpt>
      <trkpt lat="40.907028" lon="0.455940">
        <ele>173.217</ele>
        <time>2016-11-10T18:42:13Z</time>
      </trkpt>
      <trkpt lat="40.907916" lon="0.456659">
        <ele>160.208</ele>
        <time>2016-11-10T18:43:29Z</time>
      </trkpt>
      <trkpt lat="40.909043" lon="0.456523">
        <ele>150.259</ele>
        <time>2016-11-10T18:44:54Z</time>
      </trkpt>
      <trkpt lat="40.909483" lon="0.456912">
        <ele>149.433</ele>
        <time>2016-11-10T18:45:27Z</time>
      </trkpt>
      <trkpt lat="40.909804" lon="0.458142">
        <ele>148.027</ele>
        <time>2016-11-10T18:46:29Z</time>
      </trkpt>
      <trkpt lat="40.910920" lon="0.458067">
        <ele>150.252</ele>
        <time>2016-11-10T18:47:38Z</time>
      </trkpt>
      <trkpt lat="40.911087" lon="0.458436">
        <ele>149.870</ele>
        <time>2016-11-10T18:47:57Z</time>
      </trkpt>
      <trkpt lat="40.910414" lon="0.459434">
        <ele>148.836</ele>
        <time>2016-11-10T18:49:01Z</time>
      </trkpt>
      <trkpt lat="40.911164" lon="0.460915">
        <ele>147.466</ele>
        <time>2016-11-10T18:50:28Z</time>
      </trkpt>
      <trkpt lat="40.910810" lon="0.462130">
        <ele>145.022</ele>
        <time>2016-11-10T18:51:24Z</time>
      </trkpt>
      <trkpt lat="40.911124" lon="0.462356">
        <ele>142.074</ele>
        <time>2016-11-10T18:51:51Z</time>
      </trkpt>
      <trkpt lat="40.909996" lon="0.465369">
        <ele>122.256</ele>
        <time>2016-11-10T18:54:10Z</time>
      </trkpt>
      <trkpt lat="40.910407" lon="0.466886">
        <ele>110.221</ele>
        <time>2016-11-10T18:55:38Z</time>
      </trkpt>
      <trkpt lat="40.910039" lon="0.469327">
        <ele>93.808</ele>
        <time>2016-11-10T18:58:03Z</time>
      </trkpt>
      <trkpt lat="40.910357" lon="0.470749">
        <ele>84.498</ele>
        <time>2016-11-10T18:59:18Z</time>
      </trkpt>
      <trkpt lat="40.909152" lon="0.473991">
        <ele>57.212</ele>
        <time>2016-11-10T19:01:39Z</time>
      </trkpt>
      <trkpt lat="40.909352" lon="0.476493">
        <ele>45.026</ele>
        <time>2016-11-10T19:03:26Z</time>
      </trkpt>
      <trkpt lat="40.908920" lon="0.476424">
        <ele>42.841</ele>
        <time>2016-11-10T19:03:56Z</time>
      </trkpt>
      <trkpt lat="40.907328" lon="0.480328">
        <ele>25.439</ele>
        <time>2016-11-10T19:07:28Z</time>
      </trkpt>
      <trkpt lat="40.907209" lon="0.481911">
        <ele>21.865</ele>
        <time>2016-11-10T19:08:42Z</time>
      </trkpt>
      <trkpt lat="40.906514" lon="0.483117">
        <ele>18.295</ele>
        <time>2016-11-10T19:09:55Z</time>
      </trkpt>
      <trkpt lat="40.906748" lon="0.485108">
        <ele>15.681</ele>
        <time>2016-11-10T19:11:37Z</time>
      </trkpt>
      <trkpt lat="40.908088" lon="0.486889">
        <ele>13.691</ele>
        <time>2016-11-10T19:13:42Z</time>
      </trkpt>
      <trkpt lat="40.906967" lon="0.488724">
        <ele>3.281</ele>
        <time>2016-11-10T19:15:35Z</time>
      </trkpt>
      <trkpt lat="40.906937" lon="0.489633">
        <ele>0.619</ele>
        <time>2016-11-10T19:16:22Z</time>
      </trkpt>
      <trkpt lat="40.907464" lon="0.490492">
        <ele>26.808</ele>
        <time>2016-11-10T19:17:18Z</time>
      </trkpt>
      <trkpt lat="40.909715" lon="0.491462">
        <ele>26.080</ele>
        <time>2016-11-10T19:19:14Z</time>
      </trkpt>
      <trkpt lat="40.909844" lon="0.491847">
        <ele>24.084</ele>
        <time>2016-11-10T19:19:28Z</time>
      </trkpt>
      <trkpt lat="40.909363" lon="0.492304">
        <ele>21.078</ele>
        <time>2016-11-10T19:19:52Z</time>
      </trkpt>
      <trkpt lat="40.909303" lon="0.493068">
        <ele>17.023</ele>
        <time>2016-11-10T19:20:21Z</time>
      </trkpt>
    </trkseg>
  </trk>
</gpx>
